<?xml version="1.0" encoding="UTF-8" standalone="no" ?>
<gpx xmlns="http://www.topografix.com/GPX/1/1" xmlns:xsi="http://www.w3.org/2001/XMLSchema-instance" xsi:schemaLocation="http://www.topografix.com/GPX/1/1 http://www.topografix.com/GPX/1/1/gpx.xsd" version="1.1" creator="VisuGPX - https://www.visugpx.com">
  <metadata>
    <name>qcc 10-05-26 gr2</name>
  </metadata>
  <trk>
    <name><![CDATA[qcc 11-05-25_1]]></name>
    <extensions>
      <line xmlns="http://www.topografix.com/GPX/gpx_style/0/2">
        <color>0000FF</color>
        <opacity>1</opacity>
        <width>4</width>
      </line>
    </extensions>
    <trkseg>
      <trkpt lat="48.00707" lon="-4.11596">
        <ele>6.5</ele>
        <time>2025-04-20T13:25:13.000Z</time>
      </trkpt>
      <trkpt lat="48.00698" lon="-4.11599">
        <ele>6.6</ele>
        <time>2025-04-20T13:25:14.619Z</time>
      </trkpt>
      <trkpt lat="48.00683" lon="-4.11606">
        <ele>6.5</ele>
        <time>2025-04-20T13:25:17.067Z</time>
      </trkpt>
      <trkpt lat="48.00657" lon="-4.11625">
        <ele>6.3</ele>
        <time>2025-04-20T13:25:21.552Z</time>
      </trkpt>
      <trkpt lat="48.00649" lon="-4.11631">
        <ele>6.3</ele>
        <time>2025-04-20T13:25:23.031Z</time>
      </trkpt>
      <trkpt lat="48.00643" lon="-4.11635">
        <ele>6.1</ele>
        <time>2025-04-20T13:25:23.866Z</time>
      </trkpt>
      <trkpt lat="48.00638" lon="-4.11642">
        <ele>6</ele>
        <time>2025-04-20T13:25:24.858Z</time>
      </trkpt>
      <trkpt lat="48.00633" lon="-4.11645">
        <ele>6</ele>
        <time>2025-04-20T13:25:25.749Z</time>
      </trkpt>
      <trkpt lat="48.00626" lon="-4.11648">
        <ele>6.2</ele>
        <time>2025-04-20T13:25:27.350Z</time>
      </trkpt>
      <trkpt lat="48.00619" lon="-4.11646">
        <ele>6.2</ele>
        <time>2025-04-20T13:25:28.527Z</time>
      </trkpt>
      <trkpt lat="48.00613" lon="-4.11648">
        <ele>6.3</ele>
        <time>2025-04-20T13:25:29.723Z</time>
      </trkpt>
      <trkpt lat="48.00596" lon="-4.11658">
        <ele>6.3</ele>
        <time>2025-04-20T13:25:32.742Z</time>
      </trkpt>
      <trkpt lat="48.00537" lon="-4.117">
        <ele>6.5</ele>
        <time>2025-04-20T13:25:43.865Z</time>
      </trkpt>
      <trkpt lat="48.00511" lon="-4.11712">
        <ele>6.6</ele>
        <time>2025-04-20T13:25:48.524Z</time>
      </trkpt>
      <trkpt lat="48.00484" lon="-4.11719">
        <ele>7.5</ele>
        <time>2025-04-20T13:25:54.931Z</time>
      </trkpt>
      <trkpt lat="48.00478" lon="-4.11721">
        <ele>7.7</ele>
        <time>2025-04-20T13:25:56.363Z</time>
      </trkpt>
      <trkpt lat="48.00469" lon="-4.11731">
        <ele>8</ele>
        <time>2025-04-20T13:25:58.809Z</time>
      </trkpt>
      <trkpt lat="48.00459" lon="-4.11758">
        <ele>9.1</ele>
        <time>2025-04-20T13:26:05.017Z</time>
      </trkpt>
      <trkpt lat="48.00423" lon="-4.11729">
        <ele>8.2</ele>
        <time>2025-04-20T13:26:10.580Z</time>
      </trkpt>
      <trkpt lat="48.00419" lon="-4.11734">
        <ele>8.4</ele>
        <time>2025-04-20T13:26:11.881Z</time>
      </trkpt>
      <trkpt lat="48.00416" lon="-4.11732">
        <ele>8.4</ele>
        <time>2025-04-20T13:26:12.424Z</time>
      </trkpt>
      <trkpt lat="48.00415" lon="-4.11728">
        <ele>8.2</ele>
        <time>2025-04-20T13:26:12.707Z</time>
      </trkpt>
      <trkpt lat="48.00393" lon="-4.1169">
        <ele>7</ele>
        <time>2025-04-20T13:26:16.815Z</time>
      </trkpt>
      <trkpt lat="48.00384" lon="-4.11673">
        <ele>7</ele>
        <time>2025-04-20T13:26:19.212Z</time>
      </trkpt>
      <trkpt lat="48.00362" lon="-4.11617">
        <ele>6</ele>
        <time>2025-04-20T13:26:25.073Z</time>
      </trkpt>
      <trkpt lat="48.00361" lon="-4.11614">
        <ele>6</ele>
        <time>2025-04-20T13:26:25.444Z</time>
      </trkpt>
      <trkpt lat="48.00357" lon="-4.11609">
        <ele>6</ele>
        <time>2025-04-20T13:26:26.305Z</time>
      </trkpt>
      <trkpt lat="48.00351" lon="-4.11597">
        <ele>6</ele>
        <time>2025-04-20T13:26:27.962Z</time>
      </trkpt>
      <trkpt lat="48.00346" lon="-4.11582">
        <ele>6</ele>
        <time>2025-04-20T13:26:29.815Z</time>
      </trkpt>
      <trkpt lat="48.00343" lon="-4.11572">
        <ele>5.9</ele>
        <time>2025-04-20T13:26:30.885Z</time>
      </trkpt>
      <trkpt lat="48.00343" lon="-4.1157">
        <ele>5.8</ele>
        <time>2025-04-20T13:26:31.018Z</time>
      </trkpt>
      <trkpt lat="48.00304" lon="-4.11477">
        <ele>5</ele>
        <time>2025-04-20T13:26:42.000Z</time>
      </trkpt>
      <trkpt lat="48.003" lon="-4.1147">
        <ele>4.9</ele>
        <time>2025-04-20T13:26:42.879Z</time>
      </trkpt>
      <trkpt lat="48.00268" lon="-4.11444">
        <ele>5</ele>
        <time>2025-04-20T13:26:49.059Z</time>
      </trkpt>
      <trkpt lat="48.00252" lon="-4.11432">
        <ele>5</ele>
        <time>2025-04-20T13:26:52.018Z</time>
      </trkpt>
      <trkpt lat="48.00244" lon="-4.11423">
        <ele>5.2</ele>
        <time>2025-04-20T13:26:54.044Z</time>
      </trkpt>
      <trkpt lat="48.00234" lon="-4.11417">
        <ele>5.6</ele>
        <time>2025-04-20T13:26:56.694Z</time>
      </trkpt>
      <trkpt lat="48.0023" lon="-4.11419">
        <ele>5.7</ele>
        <time>2025-04-20T13:26:57.583Z</time>
      </trkpt>
      <trkpt lat="48.00225" lon="-4.11417">
        <ele>5.9</ele>
        <time>2025-04-20T13:26:58.880Z</time>
      </trkpt>
      <trkpt lat="48.00222" lon="-4.11414">
        <ele>6</ele>
        <time>2025-04-20T13:26:59.675Z</time>
      </trkpt>
      <trkpt lat="48.0022" lon="-4.11407">
        <ele>6</ele>
        <time>2025-04-20T13:27:00.517Z</time>
      </trkpt>
      <trkpt lat="48.00201" lon="-4.11391">
        <ele>6</ele>
        <time>2025-04-20T13:27:04.121Z</time>
      </trkpt>
      <trkpt lat="48.00196" lon="-4.11386">
        <ele>6.1</ele>
        <time>2025-04-20T13:27:05.296Z</time>
      </trkpt>
      <trkpt lat="48.0019" lon="-4.1138">
        <ele>6.6</ele>
        <time>2025-04-20T13:27:07.980Z</time>
      </trkpt>
      <trkpt lat="48.00156" lon="-4.11352">
        <ele>10</ele>
        <time>2025-04-20T13:27:26.483Z</time>
      </trkpt>
      <trkpt lat="48.00136" lon="-4.11337">
        <ele>11.4</ele>
        <time>2025-04-20T13:27:34.085Z</time>
      </trkpt>
      <trkpt lat="48.00103" lon="-4.1131">
        <ele>13.7</ele>
        <time>2025-04-20T13:27:46.625Z</time>
      </trkpt>
      <trkpt lat="48.00095" lon="-4.11303">
        <ele>14.2</ele>
        <time>2025-04-20T13:27:49.437Z</time>
      </trkpt>
      <trkpt lat="48.00084" lon="-4.11294">
        <ele>15</ele>
        <time>2025-04-20T13:27:53.768Z</time>
      </trkpt>
      <trkpt lat="48.00056" lon="-4.11273">
        <ele>17.1</ele>
        <time>2025-04-20T13:28:05.069Z</time>
      </trkpt>
      <trkpt lat="48.00047" lon="-4.11264">
        <ele>18.3</ele>
        <time>2025-04-20T13:28:11.860Z</time>
      </trkpt>
      <trkpt lat="48.00013" lon="-4.11239">
        <ele>21.6</ele>
        <time>2025-04-20T13:28:29.802Z</time>
      </trkpt>
      <trkpt lat="48.00012" lon="-4.11225">
        <ele>21.7</ele>
        <time>2025-04-20T13:28:31.531Z</time>
      </trkpt>
      <trkpt lat="48.00007" lon="-4.11199">
        <ele>21.8</ele>
        <time>2025-04-20T13:28:34.687Z</time>
      </trkpt>
      <trkpt lat="47.99997" lon="-4.11171">
        <ele>20.4</ele>
        <time>2025-04-20T13:28:36.803Z</time>
      </trkpt>
      <trkpt lat="47.99983" lon="-4.1115">
        <ele>19.6</ele>
        <time>2025-04-20T13:28:39.145Z</time>
      </trkpt>
      <trkpt lat="47.99955" lon="-4.11125">
        <ele>18.7</ele>
        <time>2025-04-20T13:28:43.385Z</time>
      </trkpt>
      <trkpt lat="47.99943" lon="-4.11114">
        <ele>18.1</ele>
        <time>2025-04-20T13:28:45.020Z</time>
      </trkpt>
      <trkpt lat="47.9994" lon="-4.11112">
        <ele>18</ele>
        <time>2025-04-20T13:28:45.438Z</time>
      </trkpt>
      <trkpt lat="47.99846" lon="-4.11031">
        <ele>12.6</ele>
        <time>2025-04-20T13:28:57.428Z</time>
      </trkpt>
      <trkpt lat="47.99789" lon="-4.10983">
        <ele>10.2</ele>
        <time>2025-04-20T13:29:05.363Z</time>
      </trkpt>
      <trkpt lat="47.99745" lon="-4.10945">
        <ele>8.8</ele>
        <time>2025-04-20T13:29:11.973Z</time>
      </trkpt>
      <trkpt lat="47.99726" lon="-4.10929">
        <ele>7.5</ele>
        <time>2025-04-20T13:29:14.232Z</time>
      </trkpt>
      <trkpt lat="47.99706" lon="-4.10912">
        <ele>7</ele>
        <time>2025-04-20T13:29:17.369Z</time>
      </trkpt>
      <trkpt lat="47.99647" lon="-4.10861">
        <ele>6.3</ele>
        <time>2025-04-20T13:29:27.618Z</time>
      </trkpt>
      <trkpt lat="47.99626" lon="-4.10853">
        <ele>6</ele>
        <time>2025-04-20T13:29:30.776Z</time>
      </trkpt>
      <trkpt lat="47.99607" lon="-4.10847">
        <ele>6</ele>
        <time>2025-04-20T13:29:33.985Z</time>
      </trkpt>
      <trkpt lat="47.99572" lon="-4.10836">
        <ele>5.6</ele>
        <time>2025-04-20T13:29:39.320Z</time>
      </trkpt>
      <trkpt lat="47.9954" lon="-4.10826">
        <ele>5</ele>
        <time>2025-04-20T13:29:43.904Z</time>
      </trkpt>
      <trkpt lat="47.99507" lon="-4.10815">
        <ele>5</ele>
        <time>2025-04-20T13:29:49.492Z</time>
      </trkpt>
      <trkpt lat="47.9949" lon="-4.10807">
        <ele>5</ele>
        <time>2025-04-20T13:29:52.437Z</time>
      </trkpt>
      <trkpt lat="47.9947" lon="-4.10793">
        <ele>4.5</ele>
        <time>2025-04-20T13:29:55.426Z</time>
      </trkpt>
      <trkpt lat="47.99441" lon="-4.10764">
        <ele>4</ele>
        <time>2025-04-20T13:30:00.489Z</time>
      </trkpt>
      <trkpt lat="47.9943" lon="-4.10752">
        <ele>4</ele>
        <time>2025-04-20T13:30:02.740Z</time>
      </trkpt>
      <trkpt lat="47.99405" lon="-4.10723">
        <ele>4</ele>
        <time>2025-04-20T13:30:07.971Z</time>
      </trkpt>
      <trkpt lat="47.99398" lon="-4.10715">
        <ele>4</ele>
        <time>2025-04-20T13:30:09.427Z</time>
      </trkpt>
      <trkpt lat="47.99391" lon="-4.10704">
        <ele>4</ele>
        <time>2025-04-20T13:30:11.106Z</time>
      </trkpt>
      <trkpt lat="47.99371" lon="-4.10661">
        <ele>3.5</ele>
        <time>2025-04-20T13:30:16.194Z</time>
      </trkpt>
      <trkpt lat="47.99367" lon="-4.10649">
        <ele>3.7</ele>
        <time>2025-04-20T13:30:18.056Z</time>
      </trkpt>
      <trkpt lat="47.99365" lon="-4.10644">
        <ele>3.8</ele>
        <time>2025-04-20T13:30:18.895Z</time>
      </trkpt>
      <trkpt lat="47.99363" lon="-4.1064">
        <ele>4</ele>
        <time>2025-04-20T13:30:19.990Z</time>
      </trkpt>
      <trkpt lat="47.99362" lon="-4.10637">
        <ele>4</ele>
        <time>2025-04-20T13:30:20.361Z</time>
      </trkpt>
      <trkpt lat="47.99352" lon="-4.10607">
        <ele>4</ele>
        <time>2025-04-20T13:30:24.068Z</time>
      </trkpt>
      <trkpt lat="47.99349" lon="-4.10599">
        <ele>4.2</ele>
        <time>2025-04-20T13:30:25.499Z</time>
      </trkpt>
      <trkpt lat="47.99347" lon="-4.10589">
        <ele>4.4</ele>
        <time>2025-04-20T13:30:27.055Z</time>
      </trkpt>
      <trkpt lat="47.99348" lon="-4.10582">
        <ele>4.5</ele>
        <time>2025-04-20T13:30:28.034Z</time>
      </trkpt>
      <trkpt lat="47.9935" lon="-4.10568">
        <ele>4.4</ele>
        <time>2025-04-20T13:30:29.472Z</time>
      </trkpt>
      <trkpt lat="47.99361" lon="-4.1056">
        <ele>4</ele>
        <time>2025-04-20T13:30:31.001Z</time>
      </trkpt>
      <trkpt lat="47.99367" lon="-4.10556">
        <ele>4</ele>
        <time>2025-04-20T13:30:32.087Z</time>
      </trkpt>
      <trkpt lat="47.99377" lon="-4.10547">
        <ele>4.1</ele>
        <time>2025-04-20T13:30:34.184Z</time>
      </trkpt>
      <trkpt lat="47.99387" lon="-4.10534">
        <ele>4.1</ele>
        <time>2025-04-20T13:30:36.375Z</time>
      </trkpt>
      <trkpt lat="47.9939" lon="-4.10529">
        <ele>3.9</ele>
        <time>2025-04-20T13:30:36.890Z</time>
      </trkpt>
      <trkpt lat="47.99399" lon="-4.10507">
        <ele>3.5</ele>
        <time>2025-04-20T13:30:39.214Z</time>
      </trkpt>
      <trkpt lat="47.99422" lon="-4.1043">
        <ele>4.7</ele>
        <time>2025-04-20T13:30:50.796Z</time>
      </trkpt>
      <trkpt lat="47.99425" lon="-4.1042">
        <ele>4.7</ele>
        <time>2025-04-20T13:30:52.008Z</time>
      </trkpt>
      <trkpt lat="47.9945" lon="-4.10342">
        <ele>4.3</ele>
        <time>2025-04-20T13:31:00.977Z</time>
      </trkpt>
      <trkpt lat="47.99461" lon="-4.10266">
        <ele>3.2</ele>
        <time>2025-04-20T13:31:08.106Z</time>
      </trkpt>
      <trkpt lat="47.99462" lon="-4.1026">
        <ele>3</ele>
        <time>2025-04-20T13:31:08.567Z</time>
      </trkpt>
      <trkpt lat="47.99462" lon="-4.10254">
        <ele>2.8</ele>
        <time>2025-04-20T13:31:09.011Z</time>
      </trkpt>
      <trkpt lat="47.99468" lon="-4.10188">
        <ele>4</ele>
        <time>2025-04-20T13:31:18.750Z</time>
      </trkpt>
      <trkpt lat="47.9947" lon="-4.10171">
        <ele>4</ele>
        <time>2025-04-20T13:31:20.659Z</time>
      </trkpt>
      <trkpt lat="47.99473" lon="-4.10139">
        <ele>4.9</ele>
        <time>2025-04-20T13:31:26.274Z</time>
      </trkpt>
      <trkpt lat="47.99476" lon="-4.10118">
        <ele>4.7</ele>
        <time>2025-04-20T13:31:28.366Z</time>
      </trkpt>
      <trkpt lat="47.99481" lon="-4.10089">
        <ele>4.4</ele>
        <time>2025-04-20T13:31:31.258Z</time>
      </trkpt>
      <trkpt lat="47.9949" lon="-4.10015">
        <ele>4</ele>
        <time>2025-04-20T13:31:38.986Z</time>
      </trkpt>
      <trkpt lat="47.99492" lon="-4.09991">
        <ele>4.2</ele>
        <time>2025-04-20T13:31:42.009Z</time>
      </trkpt>
      <trkpt lat="47.9949" lon="-4.09981">
        <ele>4.1</ele>
        <time>2025-04-20T13:31:43.022Z</time>
      </trkpt>
      <trkpt lat="47.9949" lon="-4.09959">
        <ele>4.5</ele>
        <time>2025-04-20T13:31:46.248Z</time>
      </trkpt>
      <trkpt lat="47.99492" lon="-4.09936">
        <ele>4.9</ele>
        <time>2025-04-20T13:31:49.596Z</time>
      </trkpt>
      <trkpt lat="47.99495" lon="-4.099">
        <ele>4.3</ele>
        <time>2025-04-20T13:31:52.826Z</time>
      </trkpt>
      <trkpt lat="47.99497" lon="-4.09883">
        <ele>4.2</ele>
        <time>2025-04-20T13:31:54.588Z</time>
      </trkpt>
      <trkpt lat="47.99501" lon="-4.09843">
        <ele>4.9</ele>
        <time>2025-04-20T13:32:00.432Z</time>
      </trkpt>
      <trkpt lat="47.99503" lon="-4.09822">
        <ele>4.7</ele>
        <time>2025-04-20T13:32:02.496Z</time>
      </trkpt>
      <trkpt lat="47.99504" lon="-4.09809">
        <ele>4.7</ele>
        <time>2025-04-20T13:32:03.943Z</time>
      </trkpt>
      <trkpt lat="47.99506" lon="-4.09789">
        <ele>4.6</ele>
        <time>2025-04-20T13:32:06.031Z</time>
      </trkpt>
      <trkpt lat="47.99509" lon="-4.09759">
        <ele>4.1</ele>
        <time>2025-04-20T13:32:08.734Z</time>
      </trkpt>
      <trkpt lat="47.99513" lon="-4.09716">
        <ele>3.8</ele>
        <time>2025-04-20T13:32:13.100Z</time>
      </trkpt>
      <trkpt lat="47.99517" lon="-4.09675">
        <ele>4.8</ele>
        <time>2025-04-20T13:32:19.834Z</time>
      </trkpt>
      <trkpt lat="47.99513" lon="-4.09663">
        <ele>4.9</ele>
        <time>2025-04-20T13:32:21.489Z</time>
      </trkpt>
      <trkpt lat="47.99508" lon="-4.09649">
        <ele>4.6</ele>
        <time>2025-04-20T13:32:22.862Z</time>
      </trkpt>
      <trkpt lat="47.99486" lon="-4.09573">
        <ele>5.2</ele>
        <time>2025-04-20T13:32:33.051Z</time>
      </trkpt>
      <trkpt lat="47.99461" lon="-4.09488">
        <ele>5.4</ele>
        <time>2025-04-20T13:32:43.642Z</time>
      </trkpt>
      <trkpt lat="47.99447" lon="-4.09441">
        <ele>5.2</ele>
        <time>2025-04-20T13:32:49.031Z</time>
      </trkpt>
      <trkpt lat="47.99433" lon="-4.09395">
        <ele>5.5</ele>
        <time>2025-04-20T13:32:55.127Z</time>
      </trkpt>
      <trkpt lat="47.99422" lon="-4.09348">
        <ele>6</ele>
        <time>2025-04-20T13:33:01.524Z</time>
      </trkpt>
      <trkpt lat="47.99414" lon="-4.09296">
        <ele>5.7</ele>
        <time>2025-04-20T13:33:06.983Z</time>
      </trkpt>
      <trkpt lat="47.99412" lon="-4.09286">
        <ele>5.4</ele>
        <time>2025-04-20T13:33:07.792Z</time>
      </trkpt>
      <trkpt lat="47.99403" lon="-4.0923">
        <ele>6</ele>
        <time>2025-04-20T13:33:15.235Z</time>
      </trkpt>
      <trkpt lat="47.994" lon="-4.09212">
        <ele>6</ele>
        <time>2025-04-20T13:33:17.286Z</time>
      </trkpt>
      <trkpt lat="47.99398" lon="-4.09204">
        <ele>6</ele>
        <time>2025-04-20T13:33:18.231Z</time>
      </trkpt>
      <trkpt lat="47.99392" lon="-4.09168">
        <ele>6</ele>
        <time>2025-04-20T13:33:22.334Z</time>
      </trkpt>
      <trkpt lat="47.99384" lon="-4.09167">
        <ele>6.2</ele>
        <time>2025-04-20T13:33:24.049Z</time>
      </trkpt>
      <trkpt lat="47.99379" lon="-4.09162">
        <ele>6.4</ele>
        <time>2025-04-20T13:33:25.462Z</time>
      </trkpt>
      <trkpt lat="47.99358" lon="-4.0912">
        <ele>7.3</ele>
        <time>2025-04-20T13:33:33.020Z</time>
      </trkpt>
      <trkpt lat="47.99276" lon="-4.08953">
        <ele>14.4</ele>
        <time>2025-04-20T13:34:13.610Z</time>
      </trkpt>
      <trkpt lat="47.99271" lon="-4.08945">
        <ele>15.5</ele>
        <time>2025-04-20T13:34:18.799Z</time>
      </trkpt>
      <trkpt lat="47.99265" lon="-4.08942">
        <ele>16.6</ele>
        <time>2025-04-20T13:34:23.280Z</time>
      </trkpt>
      <trkpt lat="47.99261" lon="-4.08941">
        <ele>17.4</ele>
        <time>2025-04-20T13:34:26.152Z</time>
      </trkpt>
      <trkpt lat="47.9926" lon="-4.08904">
        <ele>15.6</ele>
        <time>2025-04-20T13:34:28.610Z</time>
      </trkpt>
      <trkpt lat="47.99245" lon="-4.08773">
        <ele>21.2</ele>
        <time>2025-04-20T13:34:58.987Z</time>
      </trkpt>
      <trkpt lat="47.99229" lon="-4.08648">
        <ele>22.4</ele>
        <time>2025-04-20T13:35:15.181Z</time>
      </trkpt>
      <trkpt lat="47.99219" lon="-4.08564">
        <ele>23.7</ele>
        <time>2025-04-20T13:35:27.094Z</time>
      </trkpt>
      <trkpt lat="47.99215" lon="-4.0849">
        <ele>23.8</ele>
        <time>2025-04-20T13:35:35.465Z</time>
      </trkpt>
      <trkpt lat="47.99212" lon="-4.08423">
        <ele>25.6</ele>
        <time>2025-04-20T13:35:46.913Z</time>
      </trkpt>
      <trkpt lat="47.99209" lon="-4.08401">
        <ele>25.3</ele>
        <time>2025-04-20T13:35:48.992Z</time>
      </trkpt>
      <trkpt lat="47.99205" lon="-4.08386">
        <ele>25.5</ele>
        <time>2025-04-20T13:35:51.145Z</time>
      </trkpt>
      <trkpt lat="47.99196" lon="-4.08364">
        <ele>27.7</ele>
        <time>2025-04-20T13:36:03.228Z</time>
      </trkpt>
      <trkpt lat="47.99183" lon="-4.08346">
        <ele>29.2</ele>
        <time>2025-04-20T13:36:11.349Z</time>
      </trkpt>
      <trkpt lat="47.99171" lon="-4.08335">
        <ele>29</ele>
        <time>2025-04-20T13:36:13.394Z</time>
      </trkpt>
      <trkpt lat="47.99154" lon="-4.08326">
        <ele>29.5</ele>
        <time>2025-04-20T13:36:17.370Z</time>
      </trkpt>
      <trkpt lat="47.99146" lon="-4.08323">
        <ele>29.8</ele>
        <time>2025-04-20T13:36:19.381Z</time>
      </trkpt>
      <trkpt lat="47.99084" lon="-4.08321">
        <ele>31.5</ele>
        <time>2025-04-20T13:36:33.006Z</time>
        <extensions>
          <visugpx:TrkExtension xmlns:visugpx="https://www.visugpx.com/editgpx/">
            <visugpx:node>1</visugpx:node>
            </visugpx:TrkExtension>
        </extensions>
      </trkpt>
      <trkpt lat="47.99072" lon="-4.0832">
        <ele>31.9</ele>
        <time>2025-04-20T13:36:35.830Z</time>
      </trkpt>
      <trkpt lat="47.99049" lon="-4.08319">
        <ele>33.2</ele>
        <time>2025-04-20T13:36:43.045Z</time>
      </trkpt>
      <trkpt lat="47.99027" lon="-4.08313">
        <ele>34.8</ele>
        <time>2025-04-20T13:36:51.622Z</time>
      </trkpt>
      <trkpt lat="47.98992" lon="-4.08303">
        <ele>34.6</ele>
        <time>2025-04-20T13:36:57.210Z</time>
      </trkpt>
      <trkpt lat="47.98981" lon="-4.08298">
        <ele>34.5</ele>
        <time>2025-04-20T13:36:58.963Z</time>
      </trkpt>
      <trkpt lat="47.98973" lon="-4.08291">
        <ele>34.9</ele>
        <time>2025-04-20T13:37:01.416Z</time>
      </trkpt>
      <trkpt lat="47.98959" lon="-4.08278">
        <ele>36</ele>
        <time>2025-04-20T13:37:07.339Z</time>
      </trkpt>
      <trkpt lat="47.98954" lon="-4.08265">
        <ele>35.8</ele>
        <time>2025-04-20T13:37:08.727Z</time>
      </trkpt>
      <trkpt lat="47.98942" lon="-4.08242">
        <ele>37</ele>
        <time>2025-04-20T13:37:15.263Z</time>
      </trkpt>
      <trkpt lat="47.9893" lon="-4.08217">
        <ele>37.4</ele>
        <time>2025-04-20T13:37:19.406Z</time>
      </trkpt>
      <trkpt lat="47.98914" lon="-4.08173">
        <ele>39.1</ele>
        <time>2025-04-20T13:37:29.157Z</time>
      </trkpt>
      <trkpt lat="47.98904" lon="-4.0814">
        <ele>39.9</ele>
        <time>2025-04-20T13:37:34.836Z</time>
      </trkpt>
      <trkpt lat="47.98887" lon="-4.08069">
        <ele>41.2</ele>
        <time>2025-04-20T13:37:45.721Z</time>
      </trkpt>
      <trkpt lat="47.98875" lon="-4.08017">
        <ele>42.3</ele>
        <time>2025-04-20T13:37:54.039Z</time>
      </trkpt>
      <trkpt lat="47.98858" lon="-4.07932">
        <ele>44.3</ele>
        <time>2025-04-20T13:38:08.059Z</time>
      </trkpt>
      <trkpt lat="47.98836" lon="-4.07827">
        <ele>47.4</ele>
        <time>2025-04-20T13:38:27.292Z</time>
      </trkpt>
      <trkpt lat="47.98831" lon="-4.07787">
        <ele>48.3</ele>
        <time>2025-04-20T13:38:33.676Z</time>
      </trkpt>
      <trkpt lat="47.98825" lon="-4.07674">
        <ele>51</ele>
        <time>2025-04-20T13:38:51.997Z</time>
      </trkpt>
      <trkpt lat="47.98823" lon="-4.0766">
        <ele>51.4</ele>
        <time>2025-04-20T13:38:54.488Z</time>
      </trkpt>
      <trkpt lat="47.98818" lon="-4.07636">
        <ele>51.6</ele>
        <time>2025-04-20T13:38:57.615Z</time>
      </trkpt>
      <trkpt lat="47.9881" lon="-4.07615">
        <ele>51.4</ele>
        <time>2025-04-20T13:39:00.002Z</time>
      </trkpt>
      <trkpt lat="47.98808" lon="-4.07612">
        <ele>51.5</ele>
        <time>2025-04-20T13:39:00.684Z</time>
      </trkpt>
      <trkpt lat="47.98796" lon="-4.07593">
        <ele>52</ele>
        <time>2025-04-20T13:39:04.578Z</time>
      </trkpt>
      <trkpt lat="47.98783" lon="-4.07579">
        <ele>51.4</ele>
        <time>2025-04-20T13:39:06.510Z</time>
      </trkpt>
      <trkpt lat="47.9877" lon="-4.07568">
        <ele>52.3</ele>
        <time>2025-04-20T13:39:11.431Z</time>
      </trkpt>
      <trkpt lat="47.98695" lon="-4.07516">
        <ele>55.9</ele>
        <time>2025-04-20T13:39:33.413Z</time>
      </trkpt>
      <trkpt lat="47.98676" lon="-4.07506">
        <ele>56.8</ele>
        <time>2025-04-20T13:39:38.844Z</time>
      </trkpt>
      <trkpt lat="47.98663" lon="-4.07501">
        <ele>57.4</ele>
        <time>2025-04-20T13:39:42.465Z</time>
      </trkpt>
      <trkpt lat="47.98647" lon="-4.07503">
        <ele>58.4</ele>
        <time>2025-04-20T13:39:47.899Z</time>
      </trkpt>
      <trkpt lat="47.9863" lon="-4.07509">
        <ele>60.2</ele>
        <time>2025-04-20T13:39:57.997Z</time>
      </trkpt>
      <trkpt lat="47.98611" lon="-4.07521">
        <ele>61.5</ele>
        <time>2025-04-20T13:40:05.048Z</time>
      </trkpt>
      <trkpt lat="47.98592" lon="-4.07542">
        <ele>64</ele>
        <time>2025-04-20T13:40:19.131Z</time>
      </trkpt>
      <trkpt lat="47.98578" lon="-4.07553">
        <ele>65</ele>
        <time>2025-04-20T13:40:24.552Z</time>
      </trkpt>
      <trkpt lat="47.98564" lon="-4.07556">
        <ele>65.7</ele>
        <time>2025-04-20T13:40:28.603Z</time>
      </trkpt>
      <trkpt lat="47.98527" lon="-4.07558">
        <ele>67.2</ele>
        <time>2025-04-20T13:40:38.088Z</time>
      </trkpt>
      <trkpt lat="47.98519" lon="-4.0756">
        <ele>67.6</ele>
        <time>2025-04-20T13:40:40.406Z</time>
      </trkpt>
      <trkpt lat="47.98515" lon="-4.07563">
        <ele>67.9</ele>
        <time>2025-04-20T13:40:42.021Z</time>
      </trkpt>
      <trkpt lat="47.98508" lon="-4.07569">
        <ele>68.3</ele>
        <time>2025-04-20T13:40:44.334Z</time>
      </trkpt>
      <trkpt lat="47.98501" lon="-4.07576">
        <ele>68.7</ele>
        <time>2025-04-20T13:40:46.687Z</time>
      </trkpt>
      <trkpt lat="47.98495" lon="-4.0757">
        <ele>68.6</ele>
        <time>2025-04-20T13:40:47.739Z</time>
      </trkpt>
      <trkpt lat="47.98478" lon="-4.0756">
        <ele>68.3</ele>
        <time>2025-04-20T13:40:50.343Z</time>
      </trkpt>
      <trkpt lat="47.98456" lon="-4.07559">
        <ele>67.7</ele>
        <time>2025-04-20T13:40:53.212Z</time>
      </trkpt>
      <trkpt lat="47.9837" lon="-4.07585">
        <ele>67.3</ele>
        <time>2025-04-20T13:41:07.107Z</time>
      </trkpt>
      <trkpt lat="47.98363" lon="-4.07583">
        <ele>67.1</ele>
        <time>2025-04-20T13:41:08.030Z</time>
      </trkpt>
      <trkpt lat="47.98356" lon="-4.07578">
        <ele>66.7</ele>
        <time>2025-04-20T13:41:08.877Z</time>
      </trkpt>
      <trkpt lat="47.98342" lon="-4.07558">
        <ele>66</ele>
        <time>2025-04-20T13:41:11.236Z</time>
      </trkpt>
      <trkpt lat="47.98329" lon="-4.07544">
        <ele>66.2</ele>
        <time>2025-04-20T13:41:14.232Z</time>
      </trkpt>
      <trkpt lat="47.9832" lon="-4.07545">
        <ele>66.5</ele>
        <time>2025-04-20T13:41:16.353Z</time>
      </trkpt>
      <trkpt lat="47.98307" lon="-4.07543">
        <ele>66.9</ele>
        <time>2025-04-20T13:41:19.330Z</time>
      </trkpt>
      <trkpt lat="47.98296" lon="-4.07536">
        <ele>66.9</ele>
        <time>2025-04-20T13:41:21.306Z</time>
      </trkpt>
      <trkpt lat="47.98284" lon="-4.07521">
        <ele>67</ele>
        <time>2025-04-20T13:41:24.058Z</time>
      </trkpt>
      <trkpt lat="47.98276" lon="-4.075">
        <ele>66.9</ele>
        <time>2025-04-20T13:41:26.581Z</time>
      </trkpt>
      <trkpt lat="47.98274" lon="-4.07475">
        <ele>66.7</ele>
        <time>2025-04-20T13:41:29.079Z</time>
      </trkpt>
      <trkpt lat="47.98266" lon="-4.07462">
        <ele>66.3</ele>
        <time>2025-04-20T13:41:30.544Z</time>
      </trkpt>
      <trkpt lat="47.9826" lon="-4.07453">
        <ele>66.2</ele>
        <time>2025-04-20T13:41:31.806Z</time>
      </trkpt>
      <trkpt lat="47.98249" lon="-4.07447">
        <ele>65.9</ele>
        <time>2025-04-20T13:41:33.352Z</time>
      </trkpt>
      <trkpt lat="47.98181" lon="-4.07417">
        <ele>64.5</ele>
        <time>2025-04-20T13:41:43.179Z</time>
      </trkpt>
      <trkpt lat="47.98158" lon="-4.07404">
        <ele>64</ele>
        <time>2025-04-20T13:41:46.570Z</time>
      </trkpt>
      <trkpt lat="47.98138" lon="-4.07391">
        <ele>64</ele>
        <time>2025-04-20T13:41:50.175Z</time>
      </trkpt>
      <trkpt lat="47.98111" lon="-4.07367">
        <ele>63</ele>
        <time>2025-04-20T13:41:54.127Z</time>
      </trkpt>
      <trkpt lat="47.98087" lon="-4.07341">
        <ele>63.1</ele>
        <time>2025-04-20T13:41:59.188Z</time>
      </trkpt>
      <trkpt lat="47.98065" lon="-4.0731">
        <ele>62.6</ele>
        <time>2025-04-20T13:42:03.494Z</time>
      </trkpt>
      <trkpt lat="47.9806" lon="-4.07304">
        <ele>62.4</ele>
        <time>2025-04-20T13:42:04.305Z</time>
      </trkpt>
      <trkpt lat="47.98048" lon="-4.07304">
        <ele>61.8</ele>
        <time>2025-04-20T13:42:05.629Z</time>
      </trkpt>
      <trkpt lat="47.98041" lon="-4.07298">
        <ele>61.6</ele>
        <time>2025-04-20T13:42:06.702Z</time>
      </trkpt>
      <trkpt lat="47.98036" lon="-4.07289">
        <ele>61.5</ele>
        <time>2025-04-20T13:42:07.854Z</time>
      </trkpt>
      <trkpt lat="47.98035" lon="-4.07274">
        <ele>61.6</ele>
        <time>2025-04-20T13:42:09.692Z</time>
      </trkpt>
      <trkpt lat="47.98036" lon="-4.07267">
        <ele>61.9</ele>
        <time>2025-04-20T13:42:11.320Z</time>
      </trkpt>
      <trkpt lat="47.98034" lon="-4.07255">
        <ele>62.1</ele>
        <time>2025-04-20T13:42:13.074Z</time>
      </trkpt>
      <trkpt lat="47.98031" lon="-4.0724">
        <ele>62.6</ele>
        <time>2025-04-20T13:42:16.009Z</time>
      </trkpt>
      <trkpt lat="47.97956" lon="-4.07122">
        <ele>61.7</ele>
        <time>2025-04-20T13:42:32.685Z</time>
      </trkpt>
      <trkpt lat="47.97924" lon="-4.07089">
        <ele>63</ele>
        <time>2025-04-20T13:42:41.840Z</time>
      </trkpt>
      <trkpt lat="47.97894" lon="-4.07069">
        <ele>65.5</ele>
        <time>2025-04-20T13:42:55.246Z</time>
      </trkpt>
      <trkpt lat="47.97887" lon="-4.07066">
        <ele>65.6</ele>
        <time>2025-04-20T13:42:56.626Z</time>
      </trkpt>
      <trkpt lat="47.97859" lon="-4.07056">
        <ele>66</ele>
        <time>2025-04-20T13:43:02.089Z</time>
      </trkpt>
      <trkpt lat="47.97821" lon="-4.07042">
        <ele>66</ele>
        <time>2025-04-20T13:43:08.557Z</time>
      </trkpt>
      <trkpt lat="47.97787" lon="-4.07029">
        <ele>66</ele>
        <time>2025-04-20T13:43:14.357Z</time>
      </trkpt>
      <trkpt lat="47.97757" lon="-4.07014">
        <ele>66</ele>
        <time>2025-04-20T13:43:19.585Z</time>
      </trkpt>
      <trkpt lat="47.97744" lon="-4.07004">
        <ele>65.8</ele>
        <time>2025-04-20T13:43:21.719Z</time>
      </trkpt>
      <trkpt lat="47.97724" lon="-4.06983">
        <ele>65.1</ele>
        <time>2025-04-20T13:43:24.872Z</time>
      </trkpt>
      <trkpt lat="47.97661" lon="-4.06901">
        <ele>63.8</ele>
        <time>2025-04-20T13:43:36.870Z</time>
      </trkpt>
      <trkpt lat="47.9764" lon="-4.06877">
        <ele>62.6</ele>
        <time>2025-04-20T13:43:39.881Z</time>
      </trkpt>
      <trkpt lat="47.97632" lon="-4.06867">
        <ele>62</ele>
        <time>2025-04-20T13:43:40.976Z</time>
      </trkpt>
      <trkpt lat="47.97527" lon="-4.06734">
        <ele>58</ele>
        <time>2025-04-20T13:43:58.672Z</time>
      </trkpt>
      <trkpt lat="47.97474" lon="-4.0667">
        <ele>56.1</ele>
        <time>2025-04-20T13:44:07.513Z</time>
      </trkpt>
      <trkpt lat="47.97448" lon="-4.06639">
        <ele>55.3</ele>
        <time>2025-04-20T13:44:11.963Z</time>
      </trkpt>
      <trkpt lat="47.97349" lon="-4.06532">
        <ele>54</ele>
        <time>2025-04-20T13:44:30.278Z</time>
      </trkpt>
      <trkpt lat="47.97321" lon="-4.06504">
        <ele>53.8</ele>
        <time>2025-04-20T13:44:35.547Z</time>
      </trkpt>
      <trkpt lat="47.97302" lon="-4.06491">
        <ele>54</ele>
        <time>2025-04-20T13:44:39.341Z</time>
      </trkpt>
      <trkpt lat="47.97152" lon="-4.06426">
        <ele>54.5</ele>
        <time>2025-04-20T13:45:05.959Z</time>
      </trkpt>
      <trkpt lat="47.97118" lon="-4.06412">
        <ele>53.2</ele>
        <time>2025-04-20T13:45:10.230Z</time>
      </trkpt>
      <trkpt lat="47.97015" lon="-4.06366">
        <ele>48.8</ele>
        <time>2025-04-20T13:45:22.868Z</time>
        <extensions>
          <visugpx:TrkExtension xmlns:visugpx="https://www.visugpx.com/editgpx/">
            <visugpx:node>2</visugpx:node>
            </visugpx:TrkExtension>
        </extensions>
      </trkpt>
      <trkpt lat="47.97011" lon="-4.06364">
        <ele>48.6</ele>
        <time>2025-04-20T13:45:23.341Z</time>
      </trkpt>
      <trkpt lat="47.96979" lon="-4.06347">
        <ele>47.2</ele>
        <time>2025-04-20T13:45:27.326Z</time>
      </trkpt>
      <trkpt lat="47.96924" lon="-4.06315">
        <ele>45.7</ele>
        <time>2025-04-20T13:45:35.135Z</time>
      </trkpt>
      <trkpt lat="47.96818" lon="-4.0624">
        <ele>45</ele>
        <time>2025-04-20T13:45:53.470Z</time>
      </trkpt>
      <trkpt lat="47.96762" lon="-4.06197">
        <ele>45.5</ele>
        <time>2025-04-20T13:46:04.714Z</time>
      </trkpt>
      <trkpt lat="47.96702" lon="-4.06157">
        <ele>47.1</ele>
        <time>2025-04-20T13:46:18.664Z</time>
      </trkpt>
      <trkpt lat="47.96664" lon="-4.06128">
        <ele>47.6</ele>
        <time>2025-04-20T13:46:26.582Z</time>
      </trkpt>
      <trkpt lat="47.96637" lon="-4.06108">
        <ele>47.8</ele>
        <time>2025-04-20T13:46:31.895Z</time>
      </trkpt>
      <trkpt lat="47.96594" lon="-4.06081">
        <ele>46.8</ele>
        <time>2025-04-20T13:46:38.269Z</time>
      </trkpt>
      <trkpt lat="47.96459" lon="-4.06005">
        <ele>39.5</ele>
        <time>2025-04-20T13:46:54.122Z</time>
      </trkpt>
      <trkpt lat="47.96436" lon="-4.05994">
        <ele>38.1</ele>
        <time>2025-04-20T13:46:56.650Z</time>
      </trkpt>
      <trkpt lat="47.96419" lon="-4.05981">
        <ele>37.9</ele>
        <time>2025-04-20T13:46:59.517Z</time>
      </trkpt>
      <trkpt lat="47.96396" lon="-4.05958">
        <ele>36.9</ele>
        <time>2025-04-20T13:47:02.888Z</time>
      </trkpt>
      <trkpt lat="47.96378" lon="-4.05935">
        <ele>37.6</ele>
        <time>2025-04-20T13:47:08.220Z</time>
      </trkpt>
      <trkpt lat="47.9636" lon="-4.05906">
        <ele>36.8</ele>
        <time>2025-04-20T13:47:11.593Z</time>
      </trkpt>
      <trkpt lat="47.96321" lon="-4.0583">
        <ele>35.2</ele>
        <time>2025-04-20T13:47:20.107Z</time>
      </trkpt>
      <trkpt lat="47.96299" lon="-4.05795">
        <ele>32.1</ele>
        <time>2025-04-20T13:47:23.294Z</time>
      </trkpt>
      <trkpt lat="47.96262" lon="-4.05748">
        <ele>28.3</ele>
        <time>2025-04-20T13:47:28.111Z</time>
      </trkpt>
      <trkpt lat="47.96232" lon="-4.05713">
        <ele>26.1</ele>
        <time>2025-04-20T13:47:32.101Z</time>
      </trkpt>
      <trkpt lat="47.96185" lon="-4.05668">
        <ele>23.7</ele>
        <time>2025-04-20T13:47:38.568Z</time>
      </trkpt>
      <trkpt lat="47.96155" lon="-4.05633">
        <ele>21.5</ele>
        <time>2025-04-20T13:47:42.558Z</time>
      </trkpt>
      <trkpt lat="47.96148" lon="-4.05625">
        <ele>21.2</ele>
        <time>2025-04-20T13:47:43.648Z</time>
      </trkpt>
      <trkpt lat="47.96047" lon="-4.055">
        <ele>17</ele>
        <time>2025-04-20T13:48:00.127Z</time>
      </trkpt>
      <trkpt lat="47.9603" lon="-4.05473">
        <ele>17.1</ele>
        <time>2025-04-20T13:48:04.390Z</time>
      </trkpt>
      <trkpt lat="47.96013" lon="-4.05432">
        <ele>17.4</ele>
        <time>2025-04-20T13:48:10.236Z</time>
      </trkpt>
      <trkpt lat="47.96009" lon="-4.05424">
        <ele>17.7</ele>
        <time>2025-04-20T13:48:12.043Z</time>
      </trkpt>
      <trkpt lat="47.96003" lon="-4.054">
        <ele>18</ele>
        <time>2025-04-20T13:48:15.423Z</time>
      </trkpt>
      <trkpt lat="47.95976" lon="-4.05283">
        <ele>20.7</ele>
        <time>2025-04-20T13:48:34.742Z</time>
      </trkpt>
      <trkpt lat="47.95948" lon="-4.05184">
        <ele>23.2</ele>
        <time>2025-04-20T13:48:51.947Z</time>
      </trkpt>
      <trkpt lat="47.95921" lon="-4.05107">
        <ele>25.1</ele>
        <time>2025-04-20T13:49:05.526Z</time>
      </trkpt>
      <trkpt lat="47.95867" lon="-4.04952">
        <ele>30.7</ele>
        <time>2025-04-20T13:49:38.356Z</time>
      </trkpt>
      <trkpt lat="47.95812" lon="-4.04812">
        <ele>33.2</ele>
        <time>2025-04-20T13:50:01.091Z</time>
      </trkpt>
      <trkpt lat="47.95714" lon="-4.04568">
        <ele>30</ele>
        <time>2025-04-20T13:50:28.162Z</time>
      </trkpt>
      <trkpt lat="47.95699" lon="-4.04534">
        <ele>31.5</ele>
        <time>2025-04-20T13:50:36.546Z</time>
      </trkpt>
      <trkpt lat="47.95682" lon="-4.04501">
        <ele>36.2</ele>
        <time>2025-04-20T13:50:56.294Z</time>
      </trkpt>
      <trkpt lat="47.95649" lon="-4.04448">
        <ele>38.7</ele>
        <time>2025-04-20T13:51:10.552Z</time>
      </trkpt>
      <trkpt lat="47.95632" lon="-4.04424">
        <ele>40.3</ele>
        <time>2025-04-20T13:51:19.148Z</time>
      </trkpt>
      <trkpt lat="47.95539" lon="-4.04317">
        <ele>46.4</ele>
        <time>2025-04-20T13:51:53.854Z</time>
      </trkpt>
      <trkpt lat="47.95524" lon="-4.04299">
        <ele>47.2</ele>
        <time>2025-04-20T13:51:58.848Z</time>
      </trkpt>
      <trkpt lat="47.955" lon="-4.04264">
        <ele>48</ele>
        <time>2025-04-20T13:52:05.930Z</time>
      </trkpt>
      <trkpt lat="47.95472" lon="-4.04215">
        <ele>49</ele>
        <time>2025-04-20T13:52:14.971Z</time>
      </trkpt>
      <trkpt lat="47.95443" lon="-4.04151">
        <ele>49.5</ele>
        <time>2025-04-20T13:52:24.374Z</time>
      </trkpt>
      <trkpt lat="47.95403" lon="-4.0406">
        <ele>48.9</ele>
        <time>2025-04-20T13:52:35.538Z</time>
      </trkpt>
      <trkpt lat="47.95358" lon="-4.03949">
        <ele>50.4</ele>
        <time>2025-04-20T13:52:52.622Z</time>
      </trkpt>
      <trkpt lat="47.95331" lon="-4.03893">
        <ele>50.8</ele>
        <time>2025-04-20T13:53:00.934Z</time>
      </trkpt>
      <trkpt lat="47.953" lon="-4.03833">
        <ele>52</ele>
        <time>2025-04-20T13:53:11.625Z</time>
      </trkpt>
      <trkpt lat="47.95274" lon="-4.03782">
        <ele>52.9</ele>
        <time>2025-04-20T13:53:20.406Z</time>
      </trkpt>
      <trkpt lat="47.95265" lon="-4.03769">
        <ele>53.2</ele>
        <time>2025-04-20T13:53:23.053Z</time>
      </trkpt>
      <trkpt lat="47.95258" lon="-4.03756">
        <ele>53.2</ele>
        <time>2025-04-20T13:53:24.900Z</time>
      </trkpt>
      <trkpt lat="47.95241" lon="-4.03716">
        <ele>53</ele>
        <time>2025-04-20T13:53:29.844Z</time>
      </trkpt>
      <trkpt lat="47.9523" lon="-4.03709">
        <ele>53</ele>
        <time>2025-04-20T13:53:31.820Z</time>
      </trkpt>
      <trkpt lat="47.95217" lon="-4.03698">
        <ele>52.6</ele>
        <time>2025-04-20T13:53:33.776Z</time>
      </trkpt>
      <trkpt lat="47.95206" lon="-4.03689">
        <ele>52</ele>
        <time>2025-04-20T13:53:35.180Z</time>
      </trkpt>
      <trkpt lat="47.95181" lon="-4.03668">
        <ele>51.9</ele>
        <time>2025-04-20T13:53:39.768Z</time>
      </trkpt>
      <trkpt lat="47.95146" lon="-4.03628">
        <ele>53.1</ele>
        <time>2025-04-20T13:53:49.431Z</time>
      </trkpt>
      <trkpt lat="47.95131" lon="-4.03607">
        <ele>53.6</ele>
        <time>2025-04-20T13:53:53.795Z</time>
      </trkpt>
      <trkpt lat="47.95093" lon="-4.03549">
        <ele>55.1</ele>
        <time>2025-04-20T13:54:05.760Z</time>
      </trkpt>
      <trkpt lat="47.95044" lon="-4.0347">
        <ele>58.9</ele>
        <time>2025-04-20T13:54:27.281Z</time>
      </trkpt>
      <trkpt lat="47.95025" lon="-4.03435">
        <ele>60.5</ele>
        <time>2025-04-20T13:54:36.324Z</time>
      </trkpt>
      <trkpt lat="47.95002" lon="-4.03368">
        <ele>63</ele>
        <time>2025-04-20T13:54:50.784Z</time>
      </trkpt>
      <trkpt lat="47.94971" lon="-4.03271">
        <ele>65.1</ele>
        <time>2025-04-20T13:55:06.918Z</time>
      </trkpt>
      <trkpt lat="47.94961" lon="-4.03245">
        <ele>65.7</ele>
        <time>2025-04-20T13:55:11.456Z</time>
      </trkpt>
      <trkpt lat="47.94933" lon="-4.03189">
        <ele>66.2</ele>
        <time>2025-04-20T13:55:20.049Z</time>
      </trkpt>
      <trkpt lat="47.94929" lon="-4.03181">
        <ele>66.1</ele>
        <time>2025-04-20T13:55:21.014Z</time>
        <extensions>
          <visugpx:TrkExtension xmlns:visugpx="https://www.visugpx.com/editgpx/">
            <visugpx:node>3</visugpx:node>
            </visugpx:TrkExtension>
        </extensions>
      </trkpt>
      <trkpt lat="47.94858" lon="-4.03042">
        <ele>64.5</ele>
        <time>2025-04-20T13:55:38.103Z</time>
      </trkpt>
      <trkpt lat="47.94833" lon="-4.02999">
        <ele>62.9</ele>
        <time>2025-04-20T13:55:42.553Z</time>
      </trkpt>
      <trkpt lat="47.94817" lon="-4.02978">
        <ele>61.3</ele>
        <time>2025-04-20T13:55:44.666Z</time>
      </trkpt>
      <trkpt lat="47.94789" lon="-4.02948">
        <ele>59.5</ele>
        <time>2025-04-20T13:55:48.411Z</time>
      </trkpt>
      <trkpt lat="47.94746" lon="-4.02903">
        <ele>55.9</ele>
        <time>2025-04-20T13:55:53.618Z</time>
      </trkpt>
      <trkpt lat="47.94679" lon="-4.02828">
        <ele>49.6</ele>
        <time>2025-04-20T13:56:01.922Z</time>
      </trkpt>
      <trkpt lat="47.94515" lon="-4.02647">
        <ele>52.9</ele>
        <time>2025-04-20T13:56:41.561Z</time>
      </trkpt>
      <trkpt lat="47.94481" lon="-4.0261">
        <ele>53.3</ele>
        <time>2025-04-20T13:56:49.193Z</time>
      </trkpt>
      <trkpt lat="47.94407" lon="-4.02528">
        <ele>53.6</ele>
        <time>2025-04-20T13:57:04.908Z</time>
      </trkpt>
      <trkpt lat="47.94403" lon="-4.02524">
        <ele>53.5</ele>
        <time>2025-04-20T13:57:05.569Z</time>
      </trkpt>
      <trkpt lat="47.94398" lon="-4.02519">
        <ele>53.3</ele>
        <time>2025-04-20T13:57:06.318Z</time>
      </trkpt>
      <trkpt lat="47.94345" lon="-4.02461">
        <ele>49.8</ele>
        <time>2025-04-20T13:57:13.412Z</time>
      </trkpt>
      <trkpt lat="47.94321" lon="-4.02443">
        <ele>47</ele>
        <time>2025-04-20T13:57:16.075Z</time>
      </trkpt>
      <trkpt lat="47.943" lon="-4.02435">
        <ele>45</ele>
        <time>2025-04-20T13:57:18.224Z</time>
      </trkpt>
      <trkpt lat="47.94272" lon="-4.02434">
        <ele>43.1</ele>
        <time>2025-04-20T13:57:21.001Z</time>
      </trkpt>
      <trkpt lat="47.9418" lon="-4.02452">
        <ele>33.7</ele>
        <time>2025-04-20T13:57:30.202Z</time>
      </trkpt>
      <trkpt lat="47.94159" lon="-4.02452">
        <ele>32.7</ele>
        <time>2025-04-20T13:57:32.557Z</time>
      </trkpt>
      <trkpt lat="47.94135" lon="-4.02446">
        <ele>33.4</ele>
        <time>2025-04-20T13:57:37.986Z</time>
      </trkpt>
      <trkpt lat="47.94072" lon="-4.0241">
        <ele>38.3</ele>
        <time>2025-04-20T13:58:04.246Z</time>
      </trkpt>
      <trkpt lat="47.94054" lon="-4.02403">
        <ele>40.7</ele>
        <time>2025-04-20T13:58:17.329Z</time>
      </trkpt>
      <trkpt lat="47.94037" lon="-4.02401">
        <ele>42</ele>
        <time>2025-04-20T13:58:24.301Z</time>
      </trkpt>
      <trkpt lat="47.94017" lon="-4.02402">
        <ele>43.3</ele>
        <time>2025-04-20T13:58:31.321Z</time>
      </trkpt>
      <trkpt lat="47.93985" lon="-4.0241">
        <ele>45.2</ele>
        <time>2025-04-20T13:58:41.773Z</time>
      </trkpt>
      <trkpt lat="47.93969" lon="-4.02416">
        <ele>46.1</ele>
        <time>2025-04-20T13:58:46.816Z</time>
      </trkpt>
      <trkpt lat="47.93944" lon="-4.02432">
        <ele>47.6</ele>
        <time>2025-04-20T13:58:55.196Z</time>
      </trkpt>
      <trkpt lat="47.93909" lon="-4.02453">
        <ele>50.2</ele>
        <time>2025-04-20T13:59:09.157Z</time>
      </trkpt>
      <trkpt lat="47.93889" lon="-4.02462">
        <ele>51.4</ele>
        <time>2025-04-20T13:59:15.788Z</time>
      </trkpt>
      <trkpt lat="47.93865" lon="-4.02469">
        <ele>52</ele>
        <time>2025-04-20T13:59:20.991Z</time>
      </trkpt>
      <trkpt lat="47.93842" lon="-4.02471">
        <ele>52.8</ele>
        <time>2025-04-20T13:59:26.498Z</time>
      </trkpt>
      <trkpt lat="47.93806" lon="-4.02465">
        <ele>55.2</ele>
        <time>2025-04-20T13:59:39.429Z</time>
      </trkpt>
      <trkpt lat="47.93769" lon="-4.02447">
        <ele>56.4</ele>
        <time>2025-04-20T13:59:48.320Z</time>
      </trkpt>
      <trkpt lat="47.93759" lon="-4.02444">
        <ele>56.7</ele>
        <time>2025-04-20T13:59:50.612Z</time>
      </trkpt>
      <trkpt lat="47.93757" lon="-4.0245">
        <ele>56.9</ele>
        <time>2025-04-20T13:59:51.821Z</time>
      </trkpt>
      <trkpt lat="47.93751" lon="-4.02453">
        <ele>57.3</ele>
        <time>2025-04-20T13:59:53.989Z</time>
      </trkpt>
      <trkpt lat="47.93746" lon="-4.02448">
        <ele>57.4</ele>
        <time>2025-04-20T13:59:55.164Z</time>
      </trkpt>
      <trkpt lat="47.93746" lon="-4.02438">
        <ele>57.3</ele>
        <time>2025-04-20T13:59:56.131Z</time>
      </trkpt>
      <trkpt lat="47.93734" lon="-4.02428">
        <ele>57.8</ele>
        <time>2025-04-20T13:59:59.482Z</time>
      </trkpt>
      <trkpt lat="47.93707" lon="-4.02402">
        <ele>58.3</ele>
        <time>2025-04-20T14:00:05.686Z</time>
        <extensions>
          <visugpx:TrkExtension xmlns:visugpx="https://www.visugpx.com/editgpx/">
            <visugpx:node>4</visugpx:node>
            </visugpx:TrkExtension>
        </extensions>
      </trkpt>
      <trkpt lat="47.93706" lon="-4.02401">
        <ele>58.3</ele>
        <time>2025-04-20T14:00:05.885Z</time>
      </trkpt>
      <trkpt lat="47.93695" lon="-4.02386">
        <ele>57.8</ele>
        <time>2025-04-20T14:00:07.735Z</time>
      </trkpt>
      <trkpt lat="47.93679" lon="-4.02341">
        <ele>56.2</ele>
        <time>2025-04-20T14:00:11.581Z</time>
      </trkpt>
      <trkpt lat="47.93668" lon="-4.02305">
        <ele>54</ele>
        <time>2025-04-20T14:00:14.210Z</time>
      </trkpt>
      <trkpt lat="47.93662" lon="-4.02282">
        <ele>53.3</ele>
        <time>2025-04-20T14:00:16.134Z</time>
      </trkpt>
      <trkpt lat="47.93662" lon="-4.0228">
        <ele>53.2</ele>
        <time>2025-04-20T14:00:16.267Z</time>
      </trkpt>
      <trkpt lat="47.93652" lon="-4.0224">
        <ele>52.8</ele>
        <time>2025-04-20T14:00:20.430Z</time>
      </trkpt>
      <trkpt lat="47.93645" lon="-4.02191">
        <ele>52.1</ele>
        <time>2025-04-20T14:00:25.039Z</time>
      </trkpt>
      <trkpt lat="47.93639" lon="-4.02166">
        <ele>53</ele>
        <time>2025-04-20T14:00:30.207Z</time>
      </trkpt>
      <trkpt lat="47.93625" lon="-4.02162">
        <ele>53</ele>
        <time>2025-04-20T14:00:32.563Z</time>
      </trkpt>
      <trkpt lat="47.93591" lon="-4.02144">
        <ele>54.3</ele>
        <time>2025-04-20T14:00:41.321Z</time>
      </trkpt>
      <trkpt lat="47.93581" lon="-4.0214">
        <ele>55</ele>
        <time>2025-04-20T14:00:45.085Z</time>
      </trkpt>
      <trkpt lat="47.93545" lon="-4.02129">
        <ele>56.5</ele>
        <time>2025-04-20T14:00:54.534Z</time>
      </trkpt>
      <trkpt lat="47.93522" lon="-4.02125">
        <ele>57.6</ele>
        <time>2025-04-20T14:01:01.002Z</time>
      </trkpt>
      <trkpt lat="47.93504" lon="-4.02124">
        <ele>57.9</ele>
        <time>2025-04-20T14:01:04.521Z</time>
      </trkpt>
      <trkpt lat="47.93454" lon="-4.02127">
        <ele>57.4</ele>
        <time>2025-04-20T14:01:12.064Z</time>
      </trkpt>
      <trkpt lat="47.93366" lon="-4.02121">
        <ele>52.5</ele>
        <time>2025-04-20T14:01:21.426Z</time>
      </trkpt>
      <trkpt lat="47.93337" lon="-4.02114">
        <ele>50.3</ele>
        <time>2025-04-20T14:01:24.339Z</time>
      </trkpt>
      <trkpt lat="47.93298" lon="-4.02099">
        <ele>47.3</ele>
        <time>2025-04-20T14:01:28.333Z</time>
      </trkpt>
      <trkpt lat="47.93293" lon="-4.02106">
        <ele>47</ele>
        <time>2025-04-20T14:01:29.123Z</time>
      </trkpt>
      <trkpt lat="47.93289" lon="-4.02106">
        <ele>46.7</ele>
        <time>2025-04-20T14:01:29.519Z</time>
      </trkpt>
      <trkpt lat="47.93285" lon="-4.02102">
        <ele>46.3</ele>
        <time>2025-04-20T14:01:29.997Z</time>
      </trkpt>
      <trkpt lat="47.93283" lon="-4.02098">
        <ele>46</ele>
        <time>2025-04-20T14:01:30.328Z</time>
      </trkpt>
      <trkpt lat="47.93284" lon="-4.02089">
        <ele>45.8</ele>
        <time>2025-04-20T14:01:31.092Z</time>
      </trkpt>
      <trkpt lat="47.93273" lon="-4.02082">
        <ele>44.7</ele>
        <time>2025-04-20T14:01:32.278Z</time>
      </trkpt>
      <trkpt lat="47.9327" lon="-4.02079">
        <ele>44.4</ele>
        <time>2025-04-20T14:01:32.636Z</time>
      </trkpt>
      <trkpt lat="47.93223" lon="-4.02031">
        <ele>40.3</ele>
        <time>2025-04-20T14:01:38.283Z</time>
      </trkpt>
      <trkpt lat="47.93089" lon="-4.01859">
        <ele>34.7</ele>
        <time>2025-04-20T14:02:00.541Z</time>
      </trkpt>
      <trkpt lat="47.93056" lon="-4.01824">
        <ele>33</ele>
        <time>2025-04-20T14:02:05.264Z</time>
      </trkpt>
      <trkpt lat="47.93031" lon="-4.01804">
        <ele>33</ele>
        <time>2025-04-20T14:02:09.952Z</time>
      </trkpt>
      <trkpt lat="47.93007" lon="-4.0179">
        <ele>32.3</ele>
        <time>2025-04-20T14:02:13.314Z</time>
      </trkpt>
      <trkpt lat="47.92977" lon="-4.0178">
        <ele>32.7</ele>
        <time>2025-04-20T14:02:19.094Z</time>
      </trkpt>
      <trkpt lat="47.92931" lon="-4.01773">
        <ele>34.7</ele>
        <time>2025-04-20T14:02:31.343Z</time>
      </trkpt>
      <trkpt lat="47.92893" lon="-4.01771">
        <ele>35.5</ele>
        <time>2025-04-20T14:02:39.128Z</time>
      </trkpt>
      <trkpt lat="47.9284" lon="-4.01773">
        <ele>37.1</ele>
        <time>2025-04-20T14:02:51.149Z</time>
      </trkpt>
      <trkpt lat="47.92818" lon="-4.01771">
        <ele>37.9</ele>
        <time>2025-04-20T14:02:56.516Z</time>
      </trkpt>
      <trkpt lat="47.92809" lon="-4.0177">
        <ele>38.2</ele>
        <time>2025-04-20T14:02:58.636Z</time>
      </trkpt>
      <trkpt lat="47.92779" lon="-4.01768">
        <ele>39</ele>
        <time>2025-04-20T14:03:05.177Z</time>
      </trkpt>
      <trkpt lat="47.92746" lon="-4.01769">
        <ele>41.3</ele>
        <time>2025-04-20T14:03:17.520Z</time>
      </trkpt>
      <trkpt lat="47.9274" lon="-4.01771">
        <ele>41.7</ele>
        <time>2025-04-20T14:03:19.679Z</time>
      </trkpt>
      <trkpt lat="47.92634" lon="-4.01808">
        <ele>49.4</ele>
        <time>2025-04-20T14:04:00.971Z</time>
      </trkpt>
      <trkpt lat="47.92591" lon="-4.01812">
        <ele>52.3</ele>
        <time>2025-04-20T14:04:16.572Z</time>
      </trkpt>
      <trkpt lat="47.92577" lon="-4.01814">
        <ele>53</ele>
        <time>2025-04-20T14:04:20.615Z</time>
      </trkpt>
      <trkpt lat="47.92555" lon="-4.01813">
        <ele>54</ele>
        <time>2025-04-20T14:04:26.606Z</time>
      </trkpt>
      <trkpt lat="47.92516" lon="-4.01808">
        <ele>55.4</ele>
        <time>2025-04-20T14:04:36.078Z</time>
      </trkpt>
      <trkpt lat="47.92506" lon="-4.01806">
        <ele>55.8</ele>
        <time>2025-04-20T14:04:38.636Z</time>
      </trkpt>
      <trkpt lat="47.92492" lon="-4.01802">
        <ele>56</ele>
        <time>2025-04-20T14:04:41.345Z</time>
      </trkpt>
      <trkpt lat="47.92458" lon="-4.01787">
        <ele>56.2</ele>
        <time>2025-04-20T14:04:47.533Z</time>
      </trkpt>
      <trkpt lat="47.92404" lon="-4.0176">
        <ele>56.7</ele>
        <time>2025-04-20T14:04:57.789Z</time>
      </trkpt>
      <trkpt lat="47.92371" lon="-4.01745">
        <ele>56.9</ele>
        <time>2025-04-20T14:05:03.820Z</time>
      </trkpt>
      <trkpt lat="47.92343" lon="-4.01741">
        <ele>57</ele>
        <time>2025-04-20T14:05:08.630Z</time>
      </trkpt>
      <trkpt lat="47.92333" lon="-4.01741">
        <ele>57</ele>
        <time>2025-04-20T14:05:10.283Z</time>
      </trkpt>
      <trkpt lat="47.92326" lon="-4.01745">
        <ele>57</ele>
        <time>2025-04-20T14:05:11.521Z</time>
      </trkpt>
      <trkpt lat="47.92321" lon="-4.01745">
        <ele>57</ele>
        <time>2025-04-20T14:05:12.348Z</time>
      </trkpt>
      <trkpt lat="47.92317" lon="-4.01742">
        <ele>57</ele>
        <time>2025-04-20T14:05:13.087Z</time>
      </trkpt>
      <trkpt lat="47.92312" lon="-4.01732">
        <ele>57</ele>
        <time>2025-04-20T14:05:14.469Z</time>
      </trkpt>
      <trkpt lat="47.92312" lon="-4.01718">
        <ele>57</ele>
        <time>2025-04-20T14:05:16.020Z</time>
      </trkpt>
      <trkpt lat="47.92298" lon="-4.01689">
        <ele>57.2</ele>
        <time>2025-04-20T14:05:20.314Z</time>
      </trkpt>
      <trkpt lat="47.92284" lon="-4.01675">
        <ele>57.2</ele>
        <time>2025-04-20T14:05:23.100Z</time>
      </trkpt>
      <trkpt lat="47.92276" lon="-4.0167">
        <ele>57.1</ele>
        <time>2025-04-20T14:05:24.389Z</time>
      </trkpt>
      <trkpt lat="47.92176" lon="-4.01618">
        <ele>54.1</ele>
        <time>2025-04-20T14:05:38.079Z</time>
      </trkpt>
      <trkpt lat="47.92114" lon="-4.01588">
        <ele>52.9</ele>
        <time>2025-04-20T14:05:47.213Z</time>
      </trkpt>
      <trkpt lat="47.9204" lon="-4.01547">
        <ele>51</ele>
        <time>2025-04-20T14:05:57.771Z</time>
      </trkpt>
      <trkpt lat="47.91982" lon="-4.01521">
        <ele>49.9</ele>
        <time>2025-04-20T14:06:06.276Z</time>
      </trkpt>
      <trkpt lat="47.9196" lon="-4.01515">
        <ele>50.2</ele>
        <time>2025-04-20T14:06:10.499Z</time>
      </trkpt>
      <trkpt lat="47.91935" lon="-4.01511">
        <ele>50.6</ele>
        <time>2025-04-20T14:06:15.371Z</time>
      </trkpt>
      <trkpt lat="47.91786" lon="-4.01485">
        <ele>54.3</ele>
        <time>2025-04-20T14:06:47.332Z</time>
      </trkpt>
      <trkpt lat="47.91726" lon="-4.01472">
        <ele>55</ele>
        <time>2025-04-20T14:06:58.561Z</time>
      </trkpt>
      <trkpt lat="47.91597" lon="-4.01444">
        <ele>53</ele>
        <time>2025-04-20T14:07:17.313Z</time>
      </trkpt>
      <trkpt lat="47.91575" lon="-4.0144">
        <ele>52.7</ele>
        <time>2025-04-20T14:07:20.552Z</time>
      </trkpt>
      <trkpt lat="47.91558" lon="-4.01439">
        <ele>52.1</ele>
        <time>2025-04-20T14:07:22.637Z</time>
      </trkpt>
      <trkpt lat="47.91529" lon="-4.01442">
        <ele>51.1</ele>
        <time>2025-04-20T14:07:26.223Z</time>
      </trkpt>
      <trkpt lat="47.91445" lon="-4.01467">
        <ele>46.2</ele>
        <time>2025-04-20T14:07:35.234Z</time>
      </trkpt>
      <trkpt lat="47.91335" lon="-4.01499">
        <ele>39.2</ele>
        <time>2025-04-20T14:07:46.639Z</time>
      </trkpt>
      <trkpt lat="47.91293" lon="-4.01515">
        <ele>36.6</ele>
        <time>2025-04-20T14:07:51.119Z</time>
      </trkpt>
      <trkpt lat="47.91284" lon="-4.01519">
        <ele>35.8</ele>
        <time>2025-04-20T14:07:52.050Z</time>
      </trkpt>
      <trkpt lat="47.91271" lon="-4.01527">
        <ele>34.5</ele>
        <time>2025-04-20T14:07:53.445Z</time>
      </trkpt>
      <trkpt lat="47.91258" lon="-4.01537">
        <ele>33.2</ele>
        <time>2025-04-20T14:07:54.895Z</time>
      </trkpt>
      <trkpt lat="47.91219" lon="-4.01576">
        <ele>30.1</ele>
        <time>2025-04-20T14:07:59.570Z</time>
      </trkpt>
      <trkpt lat="47.91189" lon="-4.01616">
        <ele>27.6</ele>
        <time>2025-04-20T14:08:03.673Z</time>
      </trkpt>
      <trkpt lat="47.91161" lon="-4.01665">
        <ele>24.8</ele>
        <time>2025-04-20T14:08:08.000Z</time>
      </trkpt>
      <trkpt lat="47.91098" lon="-4.0179">
        <ele>17.8</ele>
        <time>2025-04-20T14:08:18.395Z</time>
      </trkpt>
      <trkpt lat="47.91067" lon="-4.0185">
        <ele>17</ele>
        <time>2025-04-20T14:08:25.673Z</time>
      </trkpt>
      <trkpt lat="47.91028" lon="-4.01923">
        <ele>21.4</ele>
        <time>2025-04-20T14:08:49.275Z</time>
      </trkpt>
      <trkpt lat="47.91016" lon="-4.01942">
        <ele>23.3</ele>
        <time>2025-04-20T14:09:00.010Z</time>
      </trkpt>
      <trkpt lat="47.90979" lon="-4.01989">
        <ele>27.4</ele>
        <time>2025-04-20T14:09:22.198Z</time>
      </trkpt>
      <trkpt lat="47.90947" lon="-4.02016">
        <ele>28.1</ele>
        <time>2025-04-20T14:09:29.564Z</time>
      </trkpt>
      <trkpt lat="47.90899" lon="-4.02048">
        <ele>26.8</ele>
        <time>2025-04-20T14:09:36.558Z</time>
      </trkpt>
      <trkpt lat="47.90827" lon="-4.02087">
        <ele>23.6</ele>
        <time>2025-04-20T14:09:45.508Z</time>
      </trkpt>
      <trkpt lat="47.90759" lon="-4.02122">
        <ele>24.1</ele>
        <time>2025-04-20T14:09:58.228Z</time>
      </trkpt>
      <trkpt lat="47.90738" lon="-4.02128">
        <ele>25.6</ele>
        <time>2025-04-20T14:10:06.274Z</time>
      </trkpt>
      <trkpt lat="47.90696" lon="-4.02133">
        <ele>28.9</ele>
        <time>2025-04-20T14:10:23.998Z</time>
      </trkpt>
      <trkpt lat="47.90668" lon="-4.02131">
        <ele>30.9</ele>
        <time>2025-04-20T14:10:34.720Z</time>
      </trkpt>
      <trkpt lat="47.90643" lon="-4.02126">
        <ele>32.3</ele>
        <time>2025-04-20T14:10:42.526Z</time>
      </trkpt>
      <trkpt lat="47.90602" lon="-4.02115">
        <ele>33.6</ele>
        <time>2025-04-20T14:10:52.084Z</time>
      </trkpt>
      <trkpt lat="47.90563" lon="-4.02097">
        <ele>33.7</ele>
        <time>2025-04-20T14:10:58.991Z</time>
      </trkpt>
      <trkpt lat="47.90548" lon="-4.02094">
        <ele>34.3</ele>
        <time>2025-04-20T14:11:02.827Z</time>
        <extensions>
          <visugpx:TrkExtension xmlns:visugpx="https://www.visugpx.com/editgpx/">
            <visugpx:node>5</visugpx:node>
            </visugpx:TrkExtension>
        </extensions>
      </trkpt>
      <trkpt lat="47.90496" lon="-4.02083">
        <ele>36.1</ele>
        <time>2025-04-20T14:11:15.315Z</time>
      </trkpt>
      <trkpt lat="47.90476" lon="-4.02083">
        <ele>36.9</ele>
        <time>2025-04-20T14:11:20.407Z</time>
      </trkpt>
      <trkpt lat="47.9037" lon="-4.02126">
        <ele>44.4</ele>
        <time>2025-04-20T14:12:00.707Z</time>
      </trkpt>
      <trkpt lat="47.90288" lon="-4.02162">
        <ele>47.9</ele>
        <time>2025-04-20T14:12:22.721Z</time>
      </trkpt>
      <trkpt lat="47.9027" lon="-4.02166">
        <ele>48</ele>
        <time>2025-04-20T14:12:25.893Z</time>
      </trkpt>
      <trkpt lat="47.90232" lon="-4.02168">
        <ele>48.7</ele>
        <time>2025-04-20T14:12:33.460Z</time>
      </trkpt>
      <trkpt lat="47.90202" lon="-4.0216">
        <ele>49.2</ele>
        <time>2025-04-20T14:12:39.397Z</time>
      </trkpt>
      <trkpt lat="47.90185" lon="-4.02151">
        <ele>49.6</ele>
        <time>2025-04-20T14:12:43.136Z</time>
      </trkpt>
      <trkpt lat="47.90167" lon="-4.02139">
        <ele>50</ele>
        <time>2025-04-20T14:12:47.140Z</time>
      </trkpt>
      <trkpt lat="47.90149" lon="-4.02123">
        <ele>50.8</ele>
        <time>2025-04-20T14:12:52.359Z</time>
      </trkpt>
      <trkpt lat="47.9013" lon="-4.02102">
        <ele>52.4</ele>
        <time>2025-04-20T14:13:00.962Z</time>
      </trkpt>
      <trkpt lat="47.90115" lon="-4.02083">
        <ele>53.6</ele>
        <time>2025-04-20T14:13:07.508Z</time>
      </trkpt>
      <trkpt lat="47.9009" lon="-4.02041">
        <ele>56.3</ele>
        <time>2025-04-20T14:13:21.981Z</time>
      </trkpt>
      <trkpt lat="47.90073" lon="-4.02012">
        <ele>57.2</ele>
        <time>2025-04-20T14:13:28.163Z</time>
      </trkpt>
      <trkpt lat="47.90061" lon="-4.0199">
        <ele>56.9</ele>
        <time>2025-04-20T14:13:30.888Z</time>
      </trkpt>
      <trkpt lat="47.90043" lon="-4.01966">
        <ele>56.5</ele>
        <time>2025-04-20T14:13:34.325Z</time>
      </trkpt>
      <trkpt lat="47.90021" lon="-4.01943">
        <ele>56.4</ele>
        <time>2025-04-20T14:13:38.612Z</time>
      </trkpt>
      <trkpt lat="47.89997" lon="-4.01926">
        <ele>56.9</ele>
        <time>2025-04-20T14:13:43.923Z</time>
      </trkpt>
      <trkpt lat="47.89988" lon="-4.01916">
        <ele>56.8</ele>
        <time>2025-04-20T14:13:45.631Z</time>
      </trkpt>
      <trkpt lat="47.89981" lon="-4.01907">
        <ele>56.9</ele>
        <time>2025-04-20T14:13:47.330Z</time>
      </trkpt>
      <trkpt lat="47.89977" lon="-4.01912">
        <ele>57.5</ele>
        <time>2025-04-20T14:13:50.725Z</time>
      </trkpt>
      <trkpt lat="47.89974" lon="-4.01913">
        <ele>57.7</ele>
        <time>2025-04-20T14:13:51.805Z</time>
      </trkpt>
      <trkpt lat="47.89966" lon="-4.01921">
        <ele>58.3</ele>
        <time>2025-04-20T14:13:55.066Z</time>
      </trkpt>
      <trkpt lat="47.8996" lon="-4.01935">
        <ele>58.8</ele>
        <time>2025-04-20T14:13:58.077Z</time>
      </trkpt>
      <trkpt lat="47.8996" lon="-4.01942">
        <ele>59</ele>
        <time>2025-04-20T14:13:59.311Z</time>
      </trkpt>
      <trkpt lat="47.89954" lon="-4.0195">
        <ele>59.1</ele>
        <time>2025-04-20T14:14:00.815Z</time>
      </trkpt>
      <trkpt lat="47.8995" lon="-4.0195">
        <ele>59.2</ele>
        <time>2025-04-20T14:14:01.670Z</time>
      </trkpt>
      <trkpt lat="47.89946" lon="-4.01947">
        <ele>59.1</ele>
        <time>2025-04-20T14:14:02.277Z</time>
      </trkpt>
      <trkpt lat="47.89943" lon="-4.01939">
        <ele>59.1</ele>
        <time>2025-04-20T14:14:03.293Z</time>
      </trkpt>
      <trkpt lat="47.89944" lon="-4.01935">
        <ele>59</ele>
        <time>2025-04-20T14:14:03.645Z</time>
      </trkpt>
      <trkpt lat="47.89936" lon="-4.01922">
        <ele>59.7</ele>
        <time>2025-04-20T14:14:07.486Z</time>
      </trkpt>
      <trkpt lat="47.89926" lon="-4.01909">
        <ele>60</ele>
        <time>2025-04-20T14:14:10.249Z</time>
      </trkpt>
      <trkpt lat="47.89878" lon="-4.01857">
        <ele>62.1</ele>
        <time>2025-04-20T14:14:24.543Z</time>
      </trkpt>
      <trkpt lat="47.89869" lon="-4.01849">
        <ele>62.5</ele>
        <time>2025-04-20T14:14:27.153Z</time>
        <extensions>
          <visugpx:TrkExtension xmlns:visugpx="https://www.visugpx.com/editgpx/">
            <visugpx:node>6</visugpx:node>
            </visugpx:TrkExtension>
        </extensions>
      </trkpt>
      <trkpt lat="47.89869" lon="-4.01849">
        <ele>62.5</ele>
        <time>2025-04-20T14:14:27.153Z</time>
      </trkpt>
      <trkpt lat="47.89828" lon="-4.01813">
        <ele>63.4</ele>
        <time>2025-04-20T14:14:36.673Z</time>
      </trkpt>
      <trkpt lat="47.89806" lon="-4.01797">
        <ele>63</ele>
        <time>2025-04-20T14:14:40.164Z</time>
      </trkpt>
      <trkpt lat="47.89786" lon="-4.01786">
        <ele>63.4</ele>
        <time>2025-04-20T14:14:44.422Z</time>
      </trkpt>
      <trkpt lat="47.89724" lon="-4.01758">
        <ele>64</ele>
        <time>2025-04-20T14:14:56.145Z</time>
      </trkpt>
      <trkpt lat="47.89686" lon="-4.01739">
        <ele>63.6</ele>
        <time>2025-04-20T14:15:02.187Z</time>
      </trkpt>
      <trkpt lat="47.89659" lon="-4.0173">
        <ele>63.5</ele>
        <time>2025-04-20T14:15:06.606Z</time>
      </trkpt>
      <trkpt lat="47.89648" lon="-4.01729">
        <ele>63.8</ele>
        <time>2025-04-20T14:15:09.022Z</time>
      </trkpt>
      <trkpt lat="47.89639" lon="-4.01736">
        <ele>64</ele>
        <time>2025-04-20T14:15:11.071Z</time>
      </trkpt>
      <trkpt lat="47.89628" lon="-4.01734">
        <ele>63.6</ele>
        <time>2025-04-20T14:15:12.420Z</time>
      </trkpt>
      <trkpt lat="47.8962" lon="-4.01722">
        <ele>63.3</ele>
        <time>2025-04-20T14:15:13.909Z</time>
      </trkpt>
      <trkpt lat="47.89618" lon="-4.01711">
        <ele>62.8</ele>
        <time>2025-04-20T14:15:14.673Z</time>
      </trkpt>
      <trkpt lat="47.8961" lon="-4.01707">
        <ele>62.4</ele>
        <time>2025-04-20T14:15:15.620Z</time>
      </trkpt>
      <trkpt lat="47.89433" lon="-4.01622">
        <ele>60.3</ele>
        <time>2025-04-20T14:15:43.329Z</time>
      </trkpt>
      <trkpt lat="47.89403" lon="-4.01609">
        <ele>61.6</ele>
        <time>2025-04-20T14:15:51.441Z</time>
      </trkpt>
      <trkpt lat="47.89378" lon="-4.01596">
        <ele>62.7</ele>
        <time>2025-04-20T14:15:58.309Z</time>
      </trkpt>
      <trkpt lat="47.8936" lon="-4.01587">
        <ele>63</ele>
        <time>2025-04-20T14:16:01.984Z</time>
      </trkpt>
      <trkpt lat="47.89354" lon="-4.01584">
        <ele>63.3</ele>
        <time>2025-04-20T14:16:03.750Z</time>
      </trkpt>
      <trkpt lat="47.89211" lon="-4.01516">
        <ele>67.2</ele>
        <time>2025-04-20T14:16:36.201Z</time>
      </trkpt>
      <trkpt lat="47.89197" lon="-4.01511">
        <ele>67.4</ele>
        <time>2025-04-20T14:16:38.933Z</time>
      </trkpt>
      <trkpt lat="47.89183" lon="-4.01509">
        <ele>67.6</ele>
        <time>2025-04-20T14:16:41.611Z</time>
      </trkpt>
      <trkpt lat="47.89172" lon="-4.01514">
        <ele>67.9</ele>
        <time>2025-04-20T14:16:44.100Z</time>
      </trkpt>
      <trkpt lat="47.89159" lon="-4.01509">
        <ele>67.8</ele>
        <time>2025-04-20T14:16:46.170Z</time>
      </trkpt>
      <trkpt lat="47.89154" lon="-4.01503">
        <ele>67.6</ele>
        <time>2025-04-20T14:16:46.982Z</time>
      </trkpt>
      <trkpt lat="47.89133" lon="-4.01534">
        <ele>67.8</ele>
        <time>2025-04-20T14:16:52.197Z</time>
      </trkpt>
      <trkpt lat="47.89096" lon="-4.01585">
        <ele>67.5</ele>
        <time>2025-04-20T14:17:00.074Z</time>
      </trkpt>
      <trkpt lat="47.89082" lon="-4.01606">
        <ele>67.7</ele>
        <time>2025-04-20T14:17:03.697Z</time>
      </trkpt>
      <trkpt lat="47.89074" lon="-4.01621">
        <ele>67.6</ele>
        <time>2025-04-20T14:17:05.673Z</time>
      </trkpt>
      <trkpt lat="47.8906" lon="-4.01651">
        <ele>68</ele>
        <time>2025-04-20T14:17:10.443Z</time>
      </trkpt>
      <trkpt lat="47.89045" lon="-4.01689">
        <ele>67.5</ele>
        <time>2025-04-20T14:17:14.640Z</time>
      </trkpt>
      <trkpt lat="47.89032" lon="-4.0173">
        <ele>67.2</ele>
        <time>2025-04-20T14:17:19.229Z</time>
      </trkpt>
      <trkpt lat="47.8903" lon="-4.01738">
        <ele>67.1</ele>
        <time>2025-04-20T14:17:20.038Z</time>
      </trkpt>
      <trkpt lat="47.89009" lon="-4.01875">
        <ele>67.3</ele>
        <time>2025-04-20T14:17:35.932Z</time>
      </trkpt>
      <trkpt lat="47.88996" lon="-4.01934">
        <ele>66.8</ele>
        <time>2025-04-20T14:17:42.098Z</time>
      </trkpt>
      <trkpt lat="47.88988" lon="-4.01956">
        <ele>66.6</ele>
        <time>2025-04-20T14:17:44.585Z</time>
        <extensions>
          <visugpx:TrkExtension xmlns:visugpx="https://www.visugpx.com/editgpx/">
            <visugpx:node>7</visugpx:node>
            </visugpx:TrkExtension>
        </extensions>
      </trkpt>
      <trkpt lat="47.88981" lon="-4.01977">
        <ele>66.3</ele>
        <time>2025-04-20T14:17:46.777Z</time>
      </trkpt>
      <trkpt lat="47.88963" lon="-4.02016">
        <ele>65.7</ele>
        <time>2025-04-20T14:17:51.208Z</time>
      </trkpt>
      <trkpt lat="47.88923" lon="-4.02084">
        <ele>64</ele>
        <time>2025-04-20T14:17:59.068Z</time>
      </trkpt>
      <trkpt lat="47.8892" lon="-4.02094">
        <ele>64</ele>
        <time>2025-04-20T14:18:00.282Z</time>
      </trkpt>
      <trkpt lat="47.88908" lon="-4.02112">
        <ele>64</ele>
        <time>2025-04-20T14:18:03.095Z</time>
      </trkpt>
      <trkpt lat="47.88907" lon="-4.02118">
        <ele>64.2</ele>
        <time>2025-04-20T14:18:04.264Z</time>
      </trkpt>
      <trkpt lat="47.88904" lon="-4.02122">
        <ele>64.2</ele>
        <time>2025-04-20T14:18:04.929Z</time>
      </trkpt>
      <trkpt lat="47.88898" lon="-4.02121">
        <ele>64.1</ele>
        <time>2025-04-20T14:18:05.788Z</time>
      </trkpt>
      <trkpt lat="47.88877" lon="-4.02163">
        <ele>64.5</ele>
        <time>2025-04-20T14:18:12.284Z</time>
      </trkpt>
      <trkpt lat="47.8887" lon="-4.02185">
        <ele>64.3</ele>
        <time>2025-04-20T14:18:14.697Z</time>
      </trkpt>
      <trkpt lat="47.88868" lon="-4.02198">
        <ele>64.2</ele>
        <time>2025-04-20T14:18:16.031Z</time>
      </trkpt>
      <trkpt lat="47.88869" lon="-4.02222">
        <ele>64.3</ele>
        <time>2025-04-20T14:18:18.861Z</time>
      </trkpt>
      <trkpt lat="47.88872" lon="-4.02231">
        <ele>64.4</ele>
        <time>2025-04-20T14:18:20.153Z</time>
      </trkpt>
      <trkpt lat="47.88872" lon="-4.02236">
        <ele>64.4</ele>
        <time>2025-04-20T14:18:20.707Z</time>
      </trkpt>
      <trkpt lat="47.88869" lon="-4.02245">
        <ele>64.3</ele>
        <time>2025-04-20T14:18:21.681Z</time>
      </trkpt>
      <trkpt lat="47.88863" lon="-4.02249">
        <ele>64.1</ele>
        <time>2025-04-20T14:18:22.517Z</time>
      </trkpt>
      <trkpt lat="47.88859" lon="-4.0225">
        <ele>64</ele>
        <time>2025-04-20T14:18:23.057Z</time>
      </trkpt>
      <trkpt lat="47.88845" lon="-4.02258">
        <ele>64.3</ele>
        <time>2025-04-20T14:18:26.092Z</time>
      </trkpt>
      <trkpt lat="47.88841" lon="-4.02266">
        <ele>64.6</ele>
        <time>2025-04-20T14:18:27.900Z</time>
      </trkpt>
      <trkpt lat="47.88796" lon="-4.02396">
        <ele>63.9</ele>
        <time>2025-04-20T14:18:43.073Z</time>
      </trkpt>
      <trkpt lat="47.88757" lon="-4.02534">
        <ele>61</ele>
        <time>2025-04-20T14:18:55.999Z</time>
      </trkpt>
      <trkpt lat="47.88737" lon="-4.02611">
        <ele>60.5</ele>
        <time>2025-04-20T14:19:04.418Z</time>
      </trkpt>
      <trkpt lat="47.88722" lon="-4.02666">
        <ele>61</ele>
        <time>2025-04-20T14:19:11.870Z</time>
      </trkpt>
      <trkpt lat="47.8867" lon="-4.02866">
        <ele>56.9</ele>
        <time>2025-04-20T14:19:30.440Z</time>
      </trkpt>
      <trkpt lat="47.88676" lon="-4.02875">
        <ele>56.8</ele>
        <time>2025-04-20T14:19:31.703Z</time>
      </trkpt>
      <trkpt lat="47.88675" lon="-4.02885">
        <ele>56.4</ele>
        <time>2025-04-20T14:19:32.408Z</time>
      </trkpt>
      <trkpt lat="47.8867" lon="-4.02892">
        <ele>56.1</ele>
        <time>2025-04-20T14:19:33.198Z</time>
      </trkpt>
      <trkpt lat="47.88664" lon="-4.02892">
        <ele>55.9</ele>
        <time>2025-04-20T14:19:33.945Z</time>
      </trkpt>
      <trkpt lat="47.88653" lon="-4.02932">
        <ele>54.7</ele>
        <time>2025-04-20T14:19:37.341Z</time>
      </trkpt>
      <trkpt lat="47.88634" lon="-4.03008">
        <ele>51.6</ele>
        <time>2025-04-20T14:19:43.071Z</time>
      </trkpt>
      <trkpt lat="47.88625" lon="-4.03052">
        <ele>51</ele>
        <time>2025-04-20T14:19:47.357Z</time>
      </trkpt>
      <trkpt lat="47.88618" lon="-4.03105">
        <ele>50.7</ele>
        <time>2025-04-20T14:19:52.902Z</time>
      </trkpt>
      <trkpt lat="47.88613" lon="-4.03219">
        <ele>50.1</ele>
        <time>2025-04-20T14:20:04.677Z</time>
      </trkpt>
      <trkpt lat="47.88605" lon="-4.03285">
        <ele>48.8</ele>
        <time>2025-04-20T14:20:10.465Z</time>
      </trkpt>
      <trkpt lat="47.88595" lon="-4.03327">
        <ele>48.4</ele>
        <time>2025-04-20T14:20:14.838Z</time>
      </trkpt>
      <trkpt lat="47.8858" lon="-4.03374">
        <ele>48</ele>
        <time>2025-04-20T14:20:20.032Z</time>
      </trkpt>
      <trkpt lat="47.88566" lon="-4.03409">
        <ele>48</ele>
        <time>2025-04-20T14:20:24.548Z</time>
      </trkpt>
      <trkpt lat="47.88554" lon="-4.03433">
        <ele>48</ele>
        <time>2025-04-20T14:20:27.866Z</time>
      </trkpt>
      <trkpt lat="47.88533" lon="-4.03462">
        <ele>47.9</ele>
        <time>2025-04-20T14:20:32.443Z</time>
      </trkpt>
      <trkpt lat="47.88497" lon="-4.03501">
        <ele>47.9</ele>
        <time>2025-04-20T14:20:39.797Z</time>
      </trkpt>
      <trkpt lat="47.88501" lon="-4.03514">
        <ele>47.5</ele>
        <time>2025-04-20T14:20:40.918Z</time>
      </trkpt>
      <trkpt lat="47.88499" lon="-4.03528">
        <ele>47</ele>
        <time>2025-04-20T14:20:41.963Z</time>
      </trkpt>
      <trkpt lat="47.88493" lon="-4.03537">
        <ele>47</ele>
        <time>2025-04-20T14:20:43.369Z</time>
      </trkpt>
      <trkpt lat="47.88489" lon="-4.03539">
        <ele>47</ele>
        <time>2025-04-20T14:20:44.066Z</time>
      </trkpt>
      <trkpt lat="47.88482" lon="-4.03538">
        <ele>47</ele>
        <time>2025-04-20T14:20:45.229Z</time>
      </trkpt>
      <trkpt lat="47.88475" lon="-4.03563">
        <ele>46.7</ele>
        <time>2025-04-20T14:20:47.816Z</time>
      </trkpt>
      <trkpt lat="47.88454" lon="-4.03629">
        <ele>45.1</ele>
        <time>2025-04-20T14:20:53.940Z</time>
      </trkpt>
      <trkpt lat="47.88436" lon="-4.037">
        <ele>43.6</ele>
        <time>2025-04-20T14:21:00.462Z</time>
      </trkpt>
      <trkpt lat="47.88436" lon="-4.037">
        <ele>43.6</ele>
        <time>2025-04-20T14:21:00.462Z</time>
        <extensions>
          <visugpx:TrkExtension xmlns:visugpx="https://www.visugpx.com/editgpx/">
            <visugpx:node>8</visugpx:node>
            </visugpx:TrkExtension>
        </extensions>
      </trkpt>
      <trkpt lat="47.88416" lon="-4.03781">
        <ele>41.9</ele>
        <time>2025-04-20T14:21:07.884Z</time>
      </trkpt>
      <trkpt lat="47.88409" lon="-4.03804">
        <ele>41</ele>
        <time>2025-04-20T14:21:09.714Z</time>
      </trkpt>
      <trkpt lat="47.88393" lon="-4.03844">
        <ele>40.5</ele>
        <time>2025-04-20T14:21:14.182Z</time>
      </trkpt>
      <trkpt lat="47.88368" lon="-4.03892">
        <ele>39.8</ele>
        <time>2025-04-20T14:21:19.954Z</time>
      </trkpt>
      <trkpt lat="47.88345" lon="-4.03925">
        <ele>39.9</ele>
        <time>2025-04-20T14:21:25.390Z</time>
      </trkpt>
      <trkpt lat="47.88314" lon="-4.03962">
        <ele>39.4</ele>
        <time>2025-04-20T14:21:31.240Z</time>
      </trkpt>
      <trkpt lat="47.8828" lon="-4.03998">
        <ele>39</ele>
        <time>2025-04-20T14:21:37.548Z</time>
      </trkpt>
      <trkpt lat="47.8827" lon="-4.04011">
        <ele>38.6</ele>
        <time>2025-04-20T14:21:39.239Z</time>
      </trkpt>
      <trkpt lat="47.88248" lon="-4.04048">
        <ele>38</ele>
        <time>2025-04-20T14:21:43.899Z</time>
      </trkpt>
      <trkpt lat="47.88225" lon="-4.04092">
        <ele>38</ele>
        <time>2025-04-20T14:21:50.082Z</time>
      </trkpt>
      <trkpt lat="47.88158" lon="-4.04222">
        <ele>35.7</ele>
        <time>2025-04-20T14:22:05.173Z</time>
      </trkpt>
      <trkpt lat="47.88058" lon="-4.04417">
        <ele>33</ele>
        <time>2025-04-20T14:22:28.642Z</time>
      </trkpt>
      <trkpt lat="47.88031" lon="-4.04463">
        <ele>32.1</ele>
        <time>2025-04-20T14:22:34.221Z</time>
      </trkpt>
      <trkpt lat="47.87996" lon="-4.04517">
        <ele>30.9</ele>
        <time>2025-04-20T14:22:40.970Z</time>
      </trkpt>
      <trkpt lat="47.87961" lon="-4.0456">
        <ele>29.5</ele>
        <time>2025-04-20T14:22:46.718Z</time>
      </trkpt>
      <trkpt lat="47.87933" lon="-4.04588">
        <ele>28.8</ele>
        <time>2025-04-20T14:22:51.351Z</time>
      </trkpt>
      <trkpt lat="47.87881" lon="-4.04631">
        <ele>28</ele>
        <time>2025-04-20T14:23:00.045Z</time>
      </trkpt>
      <trkpt lat="47.8785" lon="-4.04649">
        <ele>27.6</ele>
        <time>2025-04-20T14:23:04.971Z</time>
      </trkpt>
      <trkpt lat="47.87781" lon="-4.04679">
        <ele>27.9</ele>
        <time>2025-04-20T14:23:17.336Z</time>
      </trkpt>
      <trkpt lat="47.8777" lon="-4.04686">
        <ele>28</ele>
        <time>2025-04-20T14:23:19.481Z</time>
      </trkpt>
      <trkpt lat="47.87749" lon="-4.04704">
        <ele>28</ele>
        <time>2025-04-20T14:23:23.484Z</time>
      </trkpt>
      <trkpt lat="47.87739" lon="-4.04716">
        <ele>28.3</ele>
        <time>2025-04-20T14:23:26.180Z</time>
      </trkpt>
      <trkpt lat="47.87719" lon="-4.04746">
        <ele>28.2</ele>
        <time>2025-04-20T14:23:30.716Z</time>
      </trkpt>
      <trkpt lat="47.87702" lon="-4.04782">
        <ele>27.6</ele>
        <time>2025-04-20T14:23:34.789Z</time>
      </trkpt>
      <trkpt lat="47.87693" lon="-4.04807">
        <ele>26.9</ele>
        <time>2025-04-20T14:23:37.095Z</time>
      </trkpt>
      <trkpt lat="47.87684" lon="-4.04846">
        <ele>26.3</ele>
        <time>2025-04-20T14:23:40.868Z</time>
      </trkpt>
      <trkpt lat="47.87681" lon="-4.04891">
        <ele>25.9</ele>
        <time>2025-04-20T14:23:45.313Z</time>
      </trkpt>
      <trkpt lat="47.87677" lon="-4.05006">
        <ele>23.9</ele>
        <time>2025-04-20T14:23:55.493Z</time>
      </trkpt>
      <trkpt lat="47.87674" lon="-4.0504">
        <ele>23.3</ele>
        <time>2025-04-20T14:23:58.519Z</time>
      </trkpt>
      <trkpt lat="47.87666" lon="-4.05086">
        <ele>23</ele>
        <time>2025-04-20T14:24:03.349Z</time>
      </trkpt>
      <trkpt lat="47.87553" lon="-4.05621">
        <ele>15.2</ele>
        <time>2025-04-20T14:24:55.061Z</time>
      </trkpt>
      <trkpt lat="47.87524" lon="-4.05727">
        <ele>14.1</ele>
        <time>2025-04-20T14:25:06.204Z</time>
      </trkpt>
      <trkpt lat="47.87523" lon="-4.05747">
        <ele>14</ele>
        <time>2025-04-20T14:25:08.279Z</time>
      </trkpt>
      <trkpt lat="47.87525" lon="-4.0576">
        <ele>14</ele>
        <time>2025-04-20T14:25:09.758Z</time>
      </trkpt>
      <trkpt lat="47.8753" lon="-4.05769">
        <ele>14.1</ele>
        <time>2025-04-20T14:25:11.228Z</time>
      </trkpt>
      <trkpt lat="47.87531" lon="-4.05778">
        <ele>14.1</ele>
        <time>2025-04-20T14:25:12.239Z</time>
      </trkpt>
      <trkpt lat="47.87544" lon="-4.05795">
        <ele>14.8</ele>
        <time>2025-04-20T14:25:16.667Z</time>
      </trkpt>
      <trkpt lat="47.87547" lon="-4.05796">
        <ele>14.9</ele>
        <time>2025-04-20T14:25:17.383Z</time>
      </trkpt>
      <trkpt lat="47.87537" lon="-4.05803">
        <ele>14.9</ele>
        <time>2025-04-20T14:25:19.209Z</time>
      </trkpt>
      <trkpt lat="47.87528" lon="-4.05824">
        <ele>15</ele>
        <time>2025-04-20T14:25:22.136Z</time>
      </trkpt>
      <trkpt lat="47.87583" lon="-4.06014">
        <ele>16</ele>
        <time>2025-04-20T14:25:46.742Z</time>
      </trkpt>
      <trkpt lat="47.87599" lon="-4.0607">
        <ele>14.7</ele>
        <time>2025-04-20T14:25:51.877Z</time>
      </trkpt>
      <trkpt lat="47.87611" lon="-4.06119">
        <ele>13.7</ele>
        <time>2025-04-20T14:25:56.391Z</time>
      </trkpt>
      <trkpt lat="47.87618" lon="-4.06157">
        <ele>13.1</ele>
        <time>2025-04-20T14:25:59.966Z</time>
      </trkpt>
      <trkpt lat="47.87624" lon="-4.06204">
        <ele>11.8</ele>
        <time>2025-04-20T14:26:03.750Z</time>
      </trkpt>
      <trkpt lat="47.8763" lon="-4.06282">
        <ele>12.2</ele>
        <time>2025-04-20T14:26:13.122Z</time>
      </trkpt>
      <trkpt lat="47.87631" lon="-4.06327">
        <ele>13.8</ele>
        <time>2025-04-20T14:26:22.167Z</time>
      </trkpt>
      <trkpt lat="47.8763" lon="-4.06498">
        <ele>19</ele>
        <time>2025-04-20T14:26:53.348Z</time>
      </trkpt>
      <trkpt lat="47.87627" lon="-4.06769">
        <ele>20.6</ele>
        <time>2025-04-20T14:27:26.093Z</time>
      </trkpt>
      <trkpt lat="47.87627" lon="-4.06845">
        <ele>19.2</ele>
        <time>2025-04-20T14:27:32.728Z</time>
      </trkpt>
      <trkpt lat="47.8763" lon="-4.06886">
        <ele>18.7</ele>
        <time>2025-04-20T14:27:36.616Z</time>
      </trkpt>
      <trkpt lat="47.87639" lon="-4.06945">
        <ele>18</ele>
        <time>2025-04-20T14:27:42.360Z</time>
      </trkpt>
      <trkpt lat="47.87659" lon="-4.07018">
        <ele>18.9</ele>
        <time>2025-04-20T14:27:52.731Z</time>
      </trkpt>
      <trkpt lat="47.87689" lon="-4.07114">
        <ele>19.8</ele>
        <time>2025-04-20T14:28:06.040Z</time>
      </trkpt>
      <trkpt lat="47.87695" lon="-4.07114">
        <ele>20</ele>
        <time>2025-04-20T14:28:07.452Z</time>
      </trkpt>
      <trkpt lat="47.877" lon="-4.07118">
        <ele>20</ele>
        <time>2025-04-20T14:28:08.389Z</time>
      </trkpt>
      <trkpt lat="47.87702" lon="-4.07122">
        <ele>20</ele>
        <time>2025-04-20T14:28:08.942Z</time>
      </trkpt>
      <trkpt lat="47.87703" lon="-4.07127">
        <ele>20</ele>
        <time>2025-04-20T14:28:09.521Z</time>
      </trkpt>
      <trkpt lat="47.87701" lon="-4.07136">
        <ele>20</ele>
        <time>2025-04-20T14:28:10.572Z</time>
      </trkpt>
      <trkpt lat="47.87697" lon="-4.07142">
        <ele>20</ele>
        <time>2025-04-20T14:28:11.509Z</time>
      </trkpt>
      <trkpt lat="47.87712" lon="-4.07196">
        <ele>20</ele>
        <time>2025-04-20T14:28:17.988Z</time>
      </trkpt>
      <trkpt lat="47.87721" lon="-4.07243">
        <ele>20</ele>
        <time>2025-04-20T14:28:23.406Z</time>
      </trkpt>
      <trkpt lat="47.87729" lon="-4.07303">
        <ele>19</ele>
        <time>2025-04-20T14:28:28.880Z</time>
      </trkpt>
      <trkpt lat="47.87732" lon="-4.07357">
        <ele>18</ele>
        <time>2025-04-20T14:28:33.609Z</time>
      </trkpt>
      <trkpt lat="47.87734" lon="-4.07465">
        <ele>15</ele>
        <time>2025-04-20T14:28:42.098Z</time>
      </trkpt>
      <trkpt lat="47.87743" lon="-4.0758">
        <ele>11.6</ele>
        <time>2025-04-20T14:28:51.043Z</time>
      </trkpt>
      <trkpt lat="47.87746" lon="-4.07606">
        <ele>11</ele>
        <time>2025-04-20T14:28:53.234Z</time>
      </trkpt>
      <trkpt lat="47.87754" lon="-4.07654">
        <ele>8.5</ele>
        <time>2025-04-20T14:28:56.523Z</time>
      </trkpt>
      <trkpt lat="47.87759" lon="-4.07679">
        <ele>7.7</ele>
        <time>2025-04-20T14:28:58.511Z</time>
      </trkpt>
      <trkpt lat="47.87769" lon="-4.07721">
        <ele>7</ele>
        <time>2025-04-20T14:29:02.531Z</time>
      </trkpt>
      <trkpt lat="47.87785" lon="-4.07784">
        <ele>4.5</ele>
        <time>2025-04-20T14:29:07.342Z</time>
      </trkpt>
      <trkpt lat="47.87788" lon="-4.07793">
        <ele>4.1</ele>
        <time>2025-04-20T14:29:08.042Z</time>
      </trkpt>
      <trkpt lat="47.87795" lon="-4.07829">
        <ele>3.9</ele>
        <time>2025-04-20T14:29:11.901Z</time>
      </trkpt>
      <trkpt lat="47.87796" lon="-4.07833">
        <ele>4</ele>
        <time>2025-04-20T14:29:12.587Z</time>
      </trkpt>
      <trkpt lat="47.87802" lon="-4.07883">
        <ele>5</ele>
        <time>2025-04-20T14:29:20.239Z</time>
      </trkpt>
      <trkpt lat="47.87804" lon="-4.07946">
        <ele>6</ele>
        <time>2025-04-20T14:29:29.150Z</time>
      </trkpt>
      <trkpt lat="47.87799" lon="-4.08009">
        <ele>5.9</ele>
        <time>2025-04-20T14:29:36.027Z</time>
      </trkpt>
      <trkpt lat="47.87784" lon="-4.08139">
        <ele>7</ele>
        <time>2025-04-20T14:29:52.564Z</time>
      </trkpt>
      <trkpt lat="47.87773" lon="-4.08276">
        <ele>9.8</ele>
        <time>2025-04-20T14:30:13.565Z</time>
      </trkpt>
      <trkpt lat="47.87768" lon="-4.08385">
        <ele>11.6</ele>
        <time>2025-04-20T14:30:29.160Z</time>
      </trkpt>
      <trkpt lat="47.87768" lon="-4.08453">
        <ele>13</ele>
        <time>2025-04-20T14:30:39.563Z</time>
      </trkpt>
      <trkpt lat="47.87772" lon="-4.08516">
        <ele>14.8</ele>
        <time>2025-04-20T14:30:50.691Z</time>
      </trkpt>
      <trkpt lat="47.87776" lon="-4.0855">
        <ele>15.7</ele>
        <time>2025-04-20T14:30:56.505Z</time>
      </trkpt>
      <trkpt lat="47.8778" lon="-4.08624">
        <ele>16.1</ele>
        <time>2025-04-20T14:31:05.406Z</time>
      </trkpt>
      <trkpt lat="47.87779" lon="-4.08679">
        <ele>17</ele>
        <time>2025-04-20T14:31:13.244Z</time>
      </trkpt>
      <trkpt lat="47.87774" lon="-4.08739">
        <ele>17.9</ele>
        <time>2025-04-20T14:31:21.651Z</time>
      </trkpt>
      <trkpt lat="47.87766" lon="-4.08781">
        <ele>18.5</ele>
        <time>2025-04-20T14:31:27.611Z</time>
      </trkpt>
      <trkpt lat="47.8777" lon="-4.08785">
        <ele>18.5</ele>
        <time>2025-04-20T14:31:28.407Z</time>
      </trkpt>
      <trkpt lat="47.87771" lon="-4.08795">
        <ele>18.3</ele>
        <time>2025-04-20T14:31:29.275Z</time>
      </trkpt>
      <trkpt lat="47.87767" lon="-4.08802">
        <ele>18.1</ele>
        <time>2025-04-20T14:31:30.048Z</time>
      </trkpt>
      <trkpt lat="47.87761" lon="-4.08803">
        <ele>18</ele>
        <time>2025-04-20T14:31:30.907Z</time>
      </trkpt>
      <trkpt lat="47.87719" lon="-4.08959">
        <ele>17</ele>
        <time>2025-04-20T14:31:48.074Z</time>
      </trkpt>
      <trkpt lat="47.87711" lon="-4.09021">
        <ele>16.1</ele>
        <time>2025-04-20T14:31:53.870Z</time>
      </trkpt>
      <trkpt lat="47.87708" lon="-4.09084">
        <ele>16</ele>
        <time>2025-04-20T14:32:00.717Z</time>
      </trkpt>
      <trkpt lat="47.87715" lon="-4.09246">
        <ele>17.6</ele>
        <time>2025-04-20T14:32:21.551Z</time>
      </trkpt>
      <trkpt lat="47.87721" lon="-4.09372">
        <ele>19</ele>
        <time>2025-04-20T14:32:38.078Z</time>
      </trkpt>
      <trkpt lat="47.87723" lon="-4.09414">
        <ele>19</ele>
        <time>2025-04-20T14:32:42.745Z</time>
      </trkpt>
      <trkpt lat="47.87725" lon="-4.0945">
        <ele>20</ele>
        <time>2025-04-20T14:32:49.010Z</time>
      </trkpt>
      <trkpt lat="47.87729" lon="-4.0947">
        <ele>20</ele>
        <time>2025-04-20T14:32:51.323Z</time>
      </trkpt>
      <trkpt lat="47.87733" lon="-4.09471">
        <ele>20</ele>
        <time>2025-04-20T14:32:51.993Z</time>
      </trkpt>
      <trkpt lat="47.87737" lon="-4.09478">
        <ele>20</ele>
        <time>2025-04-20T14:32:53.013Z</time>
      </trkpt>
      <trkpt lat="47.87736" lon="-4.09485">
        <ele>20</ele>
        <time>2025-04-20T14:32:53.806Z</time>
      </trkpt>
      <trkpt lat="47.8773" lon="-4.09489">
        <ele>20</ele>
        <time>2025-04-20T14:32:54.892Z</time>
      </trkpt>
      <trkpt lat="47.87727" lon="-4.09516">
        <ele>20.6</ele>
        <time>2025-04-20T14:32:59.176Z</time>
      </trkpt>
      <trkpt lat="47.87726" lon="-4.09574">
        <ele>21.1</ele>
        <time>2025-04-20T14:33:06.481Z</time>
      </trkpt>
      <trkpt lat="47.87723" lon="-4.09644">
        <ele>22</ele>
        <time>2025-04-20T14:33:15.917Z</time>
      </trkpt>
      <trkpt lat="47.87722" lon="-4.09664">
        <ele>22</ele>
        <time>2025-04-20T14:33:18.140Z</time>
      </trkpt>
      <trkpt lat="47.87718" lon="-4.09828">
        <ele>24.7</ele>
        <time>2025-04-20T14:33:41.555Z</time>
      </trkpt>
      <trkpt lat="47.87719" lon="-4.0988">
        <ele>24.9</ele>
        <time>2025-04-20T14:33:47.651Z</time>
      </trkpt>
      <trkpt lat="47.87723" lon="-4.09931">
        <ele>25</ele>
        <time>2025-04-20T14:33:53.503Z</time>
      </trkpt>
      <trkpt lat="47.8773" lon="-4.10005">
        <ele>24</ele>
        <time>2025-04-20T14:34:00.438Z</time>
      </trkpt>
      <trkpt lat="47.87734" lon="-4.10034">
        <ele>24</ele>
        <time>2025-04-20T14:34:03.720Z</time>
      </trkpt>
      <trkpt lat="47.87737" lon="-4.10036">
        <ele>24</ele>
        <time>2025-04-20T14:34:04.263Z</time>
      </trkpt>
      <trkpt lat="47.87741" lon="-4.10045">
        <ele>24</ele>
        <time>2025-04-20T14:34:05.460Z</time>
      </trkpt>
      <trkpt lat="47.87748" lon="-4.10061">
        <ele>24</ele>
        <time>2025-04-20T14:34:07.577Z</time>
      </trkpt>
      <trkpt lat="47.87749" lon="-4.10067">
        <ele>24</ele>
        <time>2025-04-20T14:34:08.262Z</time>
      </trkpt>
      <trkpt lat="47.87774" lon="-4.10127">
        <ele>24</ele>
        <time>2025-04-20T14:34:16.092Z</time>
      </trkpt>
      <trkpt lat="47.87812" lon="-4.1022">
        <ele>23.8</ele>
        <time>2025-04-20T14:34:27.855Z</time>
      </trkpt>
      <trkpt lat="47.87826" lon="-4.10248">
        <ele>23.3</ele>
        <time>2025-04-20T14:34:31.059Z</time>
      </trkpt>
      <trkpt lat="47.87835" lon="-4.10268">
        <ele>22.8</ele>
        <time>2025-04-20T14:34:33.104Z</time>
      </trkpt>
      <trkpt lat="47.87864" lon="-4.10395">
        <ele>18.7</ele>
        <time>2025-04-20T14:34:43.339Z</time>
      </trkpt>
      <trkpt lat="47.87896" lon="-4.10526">
        <ele>15.5</ele>
        <time>2025-04-20T14:34:54.890Z</time>
      </trkpt>
      <trkpt lat="47.8791" lon="-4.10573">
        <ele>14</ele>
        <time>2025-04-20T14:34:58.871Z</time>
      </trkpt>
      <trkpt lat="47.87917" lon="-4.10583">
        <ele>14</ele>
        <time>2025-04-20T14:35:00.473Z</time>
      </trkpt>
      <trkpt lat="47.87928" lon="-4.1061">
        <ele>12.6</ele>
        <time>2025-04-20T14:35:02.583Z</time>
      </trkpt>
      <trkpt lat="47.87936" lon="-4.10618">
        <ele>12.3</ele>
        <time>2025-04-20T14:35:03.801Z</time>
      </trkpt>
      <trkpt lat="47.87943" lon="-4.10616">
        <ele>12.1</ele>
        <time>2025-04-20T14:35:04.724Z</time>
      </trkpt>
      <trkpt lat="47.87951" lon="-4.1062">
        <ele>11.6</ele>
        <time>2025-04-20T14:35:05.600Z</time>
      </trkpt>
      <trkpt lat="47.87963" lon="-4.10617">
        <ele>10.8</ele>
        <time>2025-04-20T14:35:06.814Z</time>
      </trkpt>
      <trkpt lat="47.87971" lon="-4.10613">
        <ele>10.2</ele>
        <time>2025-04-20T14:35:07.650Z</time>
      </trkpt>
      <trkpt lat="47.87983" lon="-4.10599">
        <ele>9.2</ele>
        <time>2025-04-20T14:35:09.171Z</time>
      </trkpt>
      <trkpt lat="47.87996" lon="-4.10592">
        <ele>8.3</ele>
        <time>2025-04-20T14:35:10.555Z</time>
      </trkpt>
      <trkpt lat="47.88014" lon="-4.10573">
        <ele>7.5</ele>
        <time>2025-04-20T14:35:13.238Z</time>
      </trkpt>
      <trkpt lat="47.88036" lon="-4.10552">
        <ele>6.8</ele>
        <time>2025-04-20T14:35:16.656Z</time>
      </trkpt>
      <trkpt lat="47.88057" lon="-4.10536">
        <ele>6.8</ele>
        <time>2025-04-20T14:35:20.553Z</time>
      </trkpt>
      <trkpt lat="47.88069" lon="-4.1053">
        <ele>7.4</ele>
        <time>2025-04-20T14:35:24.084Z</time>
      </trkpt>
      <trkpt lat="47.88085" lon="-4.10518">
        <ele>8</ele>
        <time>2025-04-20T14:35:28.304Z</time>
      </trkpt>
      <trkpt lat="47.88095" lon="-4.10507">
        <ele>8.6</ele>
        <time>2025-04-20T14:35:31.810Z</time>
      </trkpt>
      <trkpt lat="47.88098" lon="-4.10495">
        <ele>9.1</ele>
        <time>2025-04-20T14:35:34.564Z</time>
      </trkpt>
      <trkpt lat="47.88105" lon="-4.10488">
        <ele>9.7</ele>
        <time>2025-04-20T14:35:37.781Z</time>
      </trkpt>
      <trkpt lat="47.88113" lon="-4.10487">
        <ele>10.1</ele>
        <time>2025-04-20T14:35:40.090Z</time>
      </trkpt>
      <trkpt lat="47.88119" lon="-4.1049">
        <ele>10.6</ele>
        <time>2025-04-20T14:35:42.777Z</time>
      </trkpt>
      <trkpt lat="47.88123" lon="-4.10495">
        <ele>10.9</ele>
        <time>2025-04-20T14:35:44.435Z</time>
      </trkpt>
      <trkpt lat="47.88125" lon="-4.105">
        <ele>11</ele>
        <time>2025-04-20T14:35:45.276Z</time>
      </trkpt>
      <trkpt lat="47.88126" lon="-4.10505">
        <ele>10.5</ele>
        <time>2025-04-20T14:35:45.622Z</time>
      </trkpt>
      <trkpt lat="47.8813" lon="-4.10517">
        <ele>9.3</ele>
        <time>2025-04-20T14:35:46.514Z</time>
      </trkpt>
      <trkpt lat="47.88134" lon="-4.10524">
        <ele>8.5</ele>
        <time>2025-04-20T14:35:47.125Z</time>
      </trkpt>
      <trkpt lat="47.88145" lon="-4.10538">
        <ele>8.6</ele>
        <time>2025-04-20T14:35:49.682Z</time>
      </trkpt>
      <trkpt lat="47.88154" lon="-4.10556">
        <ele>8.5</ele>
        <time>2025-04-20T14:35:52.021Z</time>
      </trkpt>
      <trkpt lat="47.88163" lon="-4.10573">
        <ele>7.8</ele>
        <time>2025-04-20T14:35:53.643Z</time>
      </trkpt>
      <trkpt lat="47.88545" lon="-4.11287">
        <ele>11.4</ele>
        <time>2025-04-20T14:37:40.808Z</time>
      </trkpt>
      <trkpt lat="47.88649" lon="-4.11482">
        <ele>15.5</ele>
        <time>2025-04-20T14:38:16.355Z</time>
      </trkpt>
      <trkpt lat="47.88667" lon="-4.11524">
        <ele>17</ele>
        <time>2025-04-20T14:38:25.390Z</time>
      </trkpt>
      <trkpt lat="47.88659" lon="-4.11529">
        <ele>16.5</ele>
        <time>2025-04-20T14:38:26.300Z</time>
        <extensions>
          <visugpx:TrkExtension xmlns:visugpx="https://www.visugpx.com/editgpx/">
            <visugpx:node>9</visugpx:node>
            </visugpx:TrkExtension>
        </extensions>
      </trkpt>
      <trkpt lat="47.88667" lon="-4.11524">
        <ele>17</ele>
        <time>2025-04-20T14:38:29.061Z</time>
      </trkpt>
      <trkpt lat="47.8868" lon="-4.11565">
        <ele>18.5</ele>
        <time>2025-04-20T14:38:37.753Z</time>
      </trkpt>
      <trkpt lat="47.88687" lon="-4.11597">
        <ele>18.5</ele>
        <time>2025-04-20T14:38:41.483Z</time>
      </trkpt>
      <trkpt lat="47.88693" lon="-4.11631">
        <ele>18.7</ele>
        <time>2025-04-20T14:38:45.717Z</time>
      </trkpt>
      <trkpt lat="47.88698" lon="-4.1168">
        <ele>19.1</ele>
        <time>2025-04-20T14:38:51.904Z</time>
      </trkpt>
      <trkpt lat="47.88699" lon="-4.11707">
        <ele>19.2</ele>
        <time>2025-04-20T14:38:55.065Z</time>
      </trkpt>
      <trkpt lat="47.88697" lon="-4.11765">
        <ele>20.3</ele>
        <time>2025-04-20T14:39:03.702Z</time>
      </trkpt>
      <trkpt lat="47.88691" lon="-4.11818">
        <ele>18.7</ele>
        <time>2025-04-20T14:39:07.836Z</time>
      </trkpt>
      <trkpt lat="47.8869" lon="-4.1182">
        <ele>18.1</ele>
        <time>2025-04-20T14:39:08.002Z</time>
      </trkpt>
      <trkpt lat="47.88681" lon="-4.11865">
        <ele>15.2</ele>
        <time>2025-04-20T14:39:11.125Z</time>
      </trkpt>
      <trkpt lat="47.88666" lon="-4.11909">
        <ele>15</ele>
        <time>2025-04-20T14:39:16.295Z</time>
      </trkpt>
      <trkpt lat="47.88656" lon="-4.11933">
        <ele>15.6</ele>
        <time>2025-04-20T14:39:20.666Z</time>
      </trkpt>
      <trkpt lat="47.88629" lon="-4.11983">
        <ele>12.9</ele>
        <time>2025-04-20T14:39:25.040Z</time>
      </trkpt>
      <trkpt lat="47.88332" lon="-4.12426">
        <ele>22.2</ele>
        <time>2025-04-20T14:40:52.081Z</time>
      </trkpt>
      <trkpt lat="47.88322" lon="-4.1244">
        <ele>22.6</ele>
        <time>2025-04-20T14:40:55.155Z</time>
      </trkpt>
      <trkpt lat="47.88291" lon="-4.12485">
        <ele>21.9</ele>
        <time>2025-04-20T14:41:01.334Z</time>
      </trkpt>
      <trkpt lat="47.88279" lon="-4.12502">
        <ele>22</ele>
        <time>2025-04-20T14:41:04.234Z</time>
      </trkpt>
      <trkpt lat="47.88258" lon="-4.12534">
        <ele>21.4</ele>
        <time>2025-04-20T14:41:08.387Z</time>
      </trkpt>
      <trkpt lat="47.88184" lon="-4.12642">
        <ele>19.7</ele>
        <time>2025-04-20T14:41:23.146Z</time>
      </trkpt>
      <trkpt lat="47.88132" lon="-4.1272">
        <ele>19</ele>
        <time>2025-04-20T14:41:34.315Z</time>
      </trkpt>
      <trkpt lat="47.88108" lon="-4.12755">
        <ele>19.2</ele>
        <time>2025-04-20T14:41:40.193Z</time>
      </trkpt>
      <trkpt lat="47.88024" lon="-4.12876">
        <ele>20.1</ele>
        <time>2025-04-20T14:42:01.001Z</time>
      </trkpt>
      <trkpt lat="47.8797" lon="-4.12959">
        <ele>21.6</ele>
        <time>2025-04-20T14:42:16.590Z</time>
      </trkpt>
      <trkpt lat="47.87927" lon="-4.13025">
        <ele>22.3</ele>
        <time>2025-04-20T14:42:27.997Z</time>
      </trkpt>
      <trkpt lat="47.87914" lon="-4.13047">
        <ele>21.9</ele>
        <time>2025-04-20T14:42:30.709Z</time>
      </trkpt>
      <trkpt lat="47.87893" lon="-4.13088">
        <ele>22.9</ele>
        <time>2025-04-20T14:42:38.440Z</time>
      </trkpt>
      <trkpt lat="47.87875" lon="-4.1313">
        <ele>23.2</ele>
        <time>2025-04-20T14:42:44.472Z</time>
      </trkpt>
      <trkpt lat="47.87858" lon="-4.13178">
        <ele>24.9</ele>
        <time>2025-04-20T14:42:54.538Z</time>
      </trkpt>
      <trkpt lat="47.8785" lon="-4.13204">
        <ele>25.3</ele>
        <time>2025-04-20T14:42:58.458Z</time>
      </trkpt>
      <trkpt lat="47.87842" lon="-4.13234">
        <ele>26.3</ele>
        <time>2025-04-20T14:43:04.407Z</time>
      </trkpt>
      <trkpt lat="47.87827" lon="-4.13304">
        <ele>26.2</ele>
        <time>2025-04-20T14:43:12.398Z</time>
      </trkpt>
      <trkpt lat="47.87808" lon="-4.1341">
        <ele>28.1</ele>
        <time>2025-04-20T14:43:28.279Z</time>
      </trkpt>
      <trkpt lat="47.87809" lon="-4.13426">
        <ele>28.2</ele>
        <time>2025-04-20T14:43:30.230Z</time>
      </trkpt>
      <trkpt lat="47.8781" lon="-4.13441">
        <ele>28.3</ele>
        <time>2025-04-20T14:43:32.071Z</time>
      </trkpt>
      <trkpt lat="47.87812" lon="-4.13447">
        <ele>28.5</ele>
        <time>2025-04-20T14:43:33.280Z</time>
      </trkpt>
      <trkpt lat="47.87812" lon="-4.13456">
        <ele>28.5</ele>
        <time>2025-04-20T14:43:34.278Z</time>
      </trkpt>
      <trkpt lat="47.87808" lon="-4.13467">
        <ele>28.2</ele>
        <time>2025-04-20T14:43:35.303Z</time>
      </trkpt>
      <trkpt lat="47.87804" lon="-4.1347">
        <ele>27.9</ele>
        <time>2025-04-20T14:43:35.747Z</time>
      </trkpt>
      <trkpt lat="47.87801" lon="-4.13481">
        <ele>28.2</ele>
        <time>2025-04-20T14:43:37.718Z</time>
      </trkpt>
      <trkpt lat="47.87802" lon="-4.13515">
        <ele>28.9</ele>
        <time>2025-04-20T14:43:42.923Z</time>
      </trkpt>
      <trkpt lat="47.87823" lon="-4.1362">
        <ele>29.6</ele>
        <time>2025-04-20T14:43:56.257Z</time>
      </trkpt>
      <trkpt lat="47.8786" lon="-4.13784">
        <ele>30.9</ele>
        <time>2025-04-20T14:44:17.676Z</time>
      </trkpt>
      <trkpt lat="47.87876" lon="-4.13859">
        <ele>31.4</ele>
        <time>2025-04-20T14:44:27.249Z</time>
      </trkpt>
      <trkpt lat="47.87885" lon="-4.13922">
        <ele>32</ele>
        <time>2025-04-20T14:44:35.446Z</time>
      </trkpt>
      <trkpt lat="47.87889" lon="-4.13961">
        <ele>32</ele>
        <time>2025-04-20T14:44:39.820Z</time>
      </trkpt>
      <trkpt lat="47.87895" lon="-4.14042">
        <ele>32.2</ele>
        <time>2025-04-20T14:44:49.176Z</time>
      </trkpt>
      <trkpt lat="47.87896" lon="-4.14097">
        <ele>33</ele>
        <time>2025-04-20T14:44:56.784Z</time>
      </trkpt>
      <trkpt lat="47.87893" lon="-4.14173">
        <ele>33</ele>
        <time>2025-04-20T14:45:05.222Z</time>
      </trkpt>
      <trkpt lat="47.87887" lon="-4.143">
        <ele>31.2</ele>
        <time>2025-04-20T14:45:16.926Z</time>
      </trkpt>
      <trkpt lat="47.87888" lon="-4.1435">
        <ele>29.4</ele>
        <time>2025-04-20T14:45:20.538Z</time>
      </trkpt>
      <trkpt lat="47.8789" lon="-4.14385">
        <ele>29</ele>
        <time>2025-04-20T14:45:23.880Z</time>
      </trkpt>
      <trkpt lat="47.87896" lon="-4.14422">
        <ele>28.2</ele>
        <time>2025-04-20T14:45:27.104Z</time>
      </trkpt>
      <trkpt lat="47.87902" lon="-4.14453">
        <ele>26.7</ele>
        <time>2025-04-20T14:45:29.250Z</time>
      </trkpt>
      <trkpt lat="47.87914" lon="-4.14492">
        <ele>24.3</ele>
        <time>2025-04-20T14:45:32.104Z</time>
      </trkpt>
      <trkpt lat="47.87928" lon="-4.14528">
        <ele>22.2</ele>
        <time>2025-04-20T14:45:34.871Z</time>
      </trkpt>
      <trkpt lat="47.87952" lon="-4.14573">
        <ele>21.4</ele>
        <time>2025-04-20T14:45:40.171Z</time>
      </trkpt>
      <trkpt lat="47.87975" lon="-4.14607">
        <ele>22.1</ele>
        <time>2025-04-20T14:45:46.843Z</time>
      </trkpt>
      <trkpt lat="47.8803" lon="-4.14676">
        <ele>24.5</ele>
        <time>2025-04-20T14:46:03.758Z</time>
      </trkpt>
      <trkpt lat="47.88261" lon="-4.14952">
        <ele>32.3</ele>
        <time>2025-04-20T14:47:08.021Z</time>
      </trkpt>
      <trkpt lat="47.88293" lon="-4.14996">
        <ele>32</ele>
        <time>2025-04-20T14:47:14.769Z</time>
      </trkpt>
      <trkpt lat="47.88319" lon="-4.15037">
        <ele>30.8</ele>
        <time>2025-04-20T14:47:19.534Z</time>
      </trkpt>
      <trkpt lat="47.88331" lon="-4.15061">
        <ele>30.9</ele>
        <time>2025-04-20T14:47:23.015Z</time>
      </trkpt>
      <trkpt lat="47.8836" lon="-4.15077">
        <ele>31.7</ele>
        <time>2025-04-20T14:47:29.692Z</time>
      </trkpt>
      <trkpt lat="47.88376" lon="-4.15094">
        <ele>31.8</ele>
        <time>2025-04-20T14:47:33.103Z</time>
      </trkpt>
      <trkpt lat="47.884" lon="-4.15121">
        <ele>32.4</ele>
        <time>2025-04-20T14:47:39.186Z</time>
      </trkpt>
      <trkpt lat="47.88431" lon="-4.15157">
        <ele>33.5</ele>
        <time>2025-04-20T14:47:47.876Z</time>
      </trkpt>
      <trkpt lat="47.88502" lon="-4.15226">
        <ele>35.9</ele>
        <time>2025-04-20T14:48:06.688Z</time>
      </trkpt>
      <trkpt lat="47.8853" lon="-4.15249">
        <ele>35</ele>
        <time>2025-04-20T14:48:10.826Z</time>
      </trkpt>
      <trkpt lat="47.88574" lon="-4.1528">
        <ele>35</ele>
        <time>2025-04-20T14:48:18.868Z</time>
      </trkpt>
      <trkpt lat="47.88644" lon="-4.15312">
        <ele>35.8</ele>
        <time>2025-04-20T14:48:32.343Z</time>
      </trkpt>
      <trkpt lat="47.8865" lon="-4.15316">
        <ele>35.8</ele>
        <time>2025-04-20T14:48:33.430Z</time>
      </trkpt>
      <trkpt lat="47.88658" lon="-4.15326">
        <ele>35.8</ele>
        <time>2025-04-20T14:48:35.155Z</time>
      </trkpt>
      <trkpt lat="47.88666" lon="-4.15341">
        <ele>36</ele>
        <time>2025-04-20T14:48:37.636Z</time>
      </trkpt>
      <trkpt lat="47.88671" lon="-4.15363">
        <ele>36.2</ele>
        <time>2025-04-20T14:48:40.560Z</time>
      </trkpt>
      <trkpt lat="47.88682" lon="-4.15419">
        <ele>36.5</ele>
        <time>2025-04-20T14:48:47.529Z</time>
      </trkpt>
      <trkpt lat="47.88691" lon="-4.15434">
        <ele>36.3</ele>
        <time>2025-04-20T14:48:49.480Z</time>
      </trkpt>
      <trkpt lat="47.88696" lon="-4.15436">
        <ele>36.3</ele>
        <time>2025-04-20T14:48:50.335Z</time>
      </trkpt>
      <trkpt lat="47.88698" lon="-4.15442">
        <ele>36.1</ele>
        <time>2025-04-20T14:48:50.850Z</time>
      </trkpt>
      <trkpt lat="47.88698" lon="-4.15444">
        <ele>36</ele>
        <time>2025-04-20T14:48:50.983Z</time>
      </trkpt>
      <trkpt lat="47.88696" lon="-4.1545">
        <ele>36</ele>
        <time>2025-04-20T14:48:51.725Z</time>
      </trkpt>
      <trkpt lat="47.88691" lon="-4.15452">
        <ele>36</ele>
        <time>2025-04-20T14:48:52.581Z</time>
      </trkpt>
      <trkpt lat="47.887" lon="-4.15545">
        <ele>35.2</ele>
        <time>2025-04-20T14:49:01.856Z</time>
      </trkpt>
      <trkpt lat="47.88702" lon="-4.15585">
        <ele>35.2</ele>
        <time>2025-04-20T14:49:06.301Z</time>
      </trkpt>
      <trkpt lat="47.88705" lon="-4.15605">
        <ele>34.9</ele>
        <time>2025-04-20T14:49:08.173Z</time>
      </trkpt>
      <trkpt lat="47.88722" lon="-4.15653">
        <ele>34</ele>
        <time>2025-04-20T14:49:13.016Z</time>
      </trkpt>
      <trkpt lat="47.88723" lon="-4.15661">
        <ele>34</ele>
        <time>2025-04-20T14:49:13.918Z</time>
      </trkpt>
      <trkpt lat="47.88725" lon="-4.15696">
        <ele>32.9</ele>
        <time>2025-04-20T14:49:16.576Z</time>
      </trkpt>
      <trkpt lat="47.88729" lon="-4.15734">
        <ele>32.1</ele>
        <time>2025-04-20T14:49:19.841Z</time>
      </trkpt>
      <trkpt lat="47.88731" lon="-4.15766">
        <ele>31.6</ele>
        <time>2025-04-20T14:49:22.744Z</time>
      </trkpt>
      <trkpt lat="47.88734" lon="-4.1581">
        <ele>31</ele>
        <time>2025-04-20T14:49:26.838Z</time>
      </trkpt>
      <trkpt lat="47.88733" lon="-4.15841">
        <ele>30.8</ele>
        <time>2025-04-20T14:49:29.986Z</time>
      </trkpt>
      <trkpt lat="47.88731" lon="-4.15863">
        <ele>30.3</ele>
        <time>2025-04-20T14:49:31.834Z</time>
      </trkpt>
      <trkpt lat="47.88722" lon="-4.15917">
        <ele>30</ele>
        <time>2025-04-20T14:49:37.558Z</time>
      </trkpt>
      <trkpt lat="47.88712" lon="-4.15946">
        <ele>29</ele>
        <time>2025-04-20T14:49:40.043Z</time>
      </trkpt>
      <trkpt lat="47.88693" lon="-4.15985">
        <ele>29</ele>
        <time>2025-04-20T14:49:45.385Z</time>
      </trkpt>
      <trkpt lat="47.88673" lon="-4.16022">
        <ele>29</ele>
        <time>2025-04-20T14:49:50.652Z</time>
      </trkpt>
      <trkpt lat="47.88655" lon="-4.16057">
        <ele>29</ele>
        <time>2025-04-20T14:49:55.540Z</time>
      </trkpt>
      <trkpt lat="47.88632" lon="-4.16102">
        <ele>29</ele>
        <time>2025-04-20T14:50:01.811Z</time>
      </trkpt>
      <trkpt lat="47.88595" lon="-4.16171">
        <ele>30</ele>
        <time>2025-04-20T14:50:13.411Z</time>
      </trkpt>
      <trkpt lat="47.88572" lon="-4.16219">
        <ele>30</ele>
        <time>2025-04-20T14:50:19.949Z</time>
      </trkpt>
      <trkpt lat="47.88505" lon="-4.16341">
        <ele>28.8</ele>
        <time>2025-04-20T14:50:35.699Z</time>
      </trkpt>
      <trkpt lat="47.88463" lon="-4.16419">
        <ele>27.7</ele>
        <time>2025-04-20T14:50:45.262Z</time>
      </trkpt>
      <trkpt lat="47.88458" lon="-4.16435">
        <ele>27.5</ele>
        <time>2025-04-20T14:50:46.943Z</time>
      </trkpt>
      <trkpt lat="47.88449" lon="-4.16486">
        <ele>27.6</ele>
        <time>2025-04-20T14:50:52.948Z</time>
      </trkpt>
      <trkpt lat="47.88441" lon="-4.16543">
        <ele>27.9</ele>
        <time>2025-04-20T14:50:59.904Z</time>
      </trkpt>
      <trkpt lat="47.88439" lon="-4.1657">
        <ele>27.8</ele>
        <time>2025-04-20T14:51:02.765Z</time>
      </trkpt>
      <trkpt lat="47.88452" lon="-4.16663">
        <ele>28.3</ele>
        <time>2025-04-20T14:51:14.131Z</time>
      </trkpt>
      <trkpt lat="47.8847" lon="-4.1681">
        <ele>28</ele>
        <time>2025-04-20T14:51:30.232Z</time>
      </trkpt>
      <trkpt lat="47.88472" lon="-4.16828">
        <ele>28</ele>
        <time>2025-04-20T14:51:32.254Z</time>
      </trkpt>
      <trkpt lat="47.8847" lon="-4.16849">
        <ele>27.4</ele>
        <time>2025-04-20T14:51:33.911Z</time>
      </trkpt>
      <trkpt lat="47.88466" lon="-4.16869">
        <ele>27</ele>
        <time>2025-04-20T14:51:35.717Z</time>
      </trkpt>
      <trkpt lat="47.88458" lon="-4.16886">
        <ele>27</ele>
        <time>2025-04-20T14:51:38.019Z</time>
      </trkpt>
      <trkpt lat="47.88459" lon="-4.16889">
        <ele>27</ele>
        <time>2025-04-20T14:51:38.390Z</time>
      </trkpt>
      <trkpt lat="47.88453" lon="-4.16918">
        <ele>26</ele>
        <time>2025-04-20T14:51:40.649Z</time>
      </trkpt>
      <trkpt lat="47.88451" lon="-4.1692">
        <ele>26</ele>
        <time>2025-04-20T14:51:41.047Z</time>
      </trkpt>
      <trkpt lat="47.88451" lon="-4.1699">
        <ele>24.5</ele>
        <time>2025-04-20T14:51:46.947Z</time>
      </trkpt>
      <trkpt lat="47.88473" lon="-4.17205">
        <ele>20.6</ele>
        <time>2025-04-20T14:52:06.040Z</time>
      </trkpt>
      <trkpt lat="47.88495" lon="-4.1741">
        <ele>18.6</ele>
        <time>2025-04-20T14:52:26.238Z</time>
      </trkpt>
      <trkpt lat="47.88499" lon="-4.17444">
        <ele>18</ele>
        <time>2025-04-20T14:52:29.288Z</time>
      </trkpt>
      <trkpt lat="47.88507" lon="-4.17482">
        <ele>17.4</ele>
        <time>2025-04-20T14:52:32.907Z</time>
      </trkpt>
      <trkpt lat="47.88555" lon="-4.17687">
        <ele>16</ele>
        <time>2025-04-20T14:52:54.932Z</time>
      </trkpt>
      <trkpt lat="47.88564" lon="-4.1775">
        <ele>18</ele>
        <time>2025-04-20T14:53:06.817Z</time>
      </trkpt>
      <trkpt lat="47.88567" lon="-4.17795">
        <ele>19.6</ele>
        <time>2025-04-20T14:53:15.874Z</time>
      </trkpt>
      <trkpt lat="47.88566" lon="-4.17934">
        <ele>21.8</ele>
        <time>2025-04-20T14:53:35.502Z</time>
      </trkpt>
      <trkpt lat="47.88562" lon="-4.18111">
        <ele>21.8</ele>
        <time>2025-04-20T14:53:55.130Z</time>
      </trkpt>
      <trkpt lat="47.88561" lon="-4.18224">
        <ele>20.8</ele>
        <time>2025-04-20T14:54:06.236Z</time>
      </trkpt>
      <trkpt lat="47.88557" lon="-4.18278">
        <ele>20</ele>
        <time>2025-04-20T14:54:11.194Z</time>
      </trkpt>
      <trkpt lat="47.8855" lon="-4.1834">
        <ele>17.8</ele>
        <time>2025-04-20T14:54:15.778Z</time>
      </trkpt>
      <trkpt lat="47.8852" lon="-4.18497">
        <ele>12.9</ele>
        <time>2025-04-20T14:54:28.301Z</time>
      </trkpt>
      <trkpt lat="47.88507" lon="-4.18573">
        <ele>11</ele>
        <time>2025-04-20T14:54:34.706Z</time>
      </trkpt>
      <trkpt lat="47.88498" lon="-4.18639">
        <ele>8.8</ele>
        <time>2025-04-20T14:54:39.734Z</time>
      </trkpt>
      <trkpt lat="47.884" lon="-4.19323">
        <ele>5.8</ele>
        <time>2025-04-20T14:55:52.770Z</time>
      </trkpt>
      <trkpt lat="47.88371" lon="-4.19566">
        <ele>6.4</ele>
        <time>2025-04-20T14:56:21.096Z</time>
      </trkpt>
      <trkpt lat="47.88366" lon="-4.1962">
        <ele>6.9</ele>
        <time>2025-04-20T14:56:28.018Z</time>
      </trkpt>
      <trkpt lat="47.88361" lon="-4.19688">
        <ele>8</ele>
        <time>2025-04-20T14:56:37.717Z</time>
      </trkpt>
      <trkpt lat="47.88358" lon="-4.19761">
        <ele>8.8</ele>
        <time>2025-04-20T14:56:47.263Z</time>
      </trkpt>
      <trkpt lat="47.8836" lon="-4.19824">
        <ele>9.8</ele>
        <time>2025-04-20T14:56:56.173Z</time>
      </trkpt>
      <trkpt lat="47.88378" lon="-4.2018">
        <ele>19.2</ele>
        <time>2025-04-20T14:57:56.586Z</time>
      </trkpt>
      <trkpt lat="47.88379" lon="-4.20264">
        <ele>22.9</ele>
        <time>2025-04-20T14:58:16.542Z</time>
      </trkpt>
      <trkpt lat="47.88377" lon="-4.20366">
        <ele>25.8</ele>
        <time>2025-04-20T14:58:34.477Z</time>
      </trkpt>
      <trkpt lat="47.88373" lon="-4.20496">
        <ele>29.4</ele>
        <time>2025-04-20T14:58:57.036Z</time>
      </trkpt>
      <trkpt lat="47.88372" lon="-4.20533">
        <ele>30.8</ele>
        <time>2025-04-20T14:59:04.810Z</time>
      </trkpt>
      <trkpt lat="47.88378" lon="-4.2069">
        <ele>32.3</ele>
        <time>2025-04-20T14:59:24.890Z</time>
      </trkpt>
      <trkpt lat="47.88378" lon="-4.20744">
        <ele>33.2</ele>
        <time>2025-04-20T14:59:32.622Z</time>
      </trkpt>
      <trkpt lat="47.88375" lon="-4.20792">
        <ele>32.5</ele>
        <time>2025-04-20T14:59:37.032Z</time>
      </trkpt>
      <trkpt lat="47.88365" lon="-4.20849">
        <ele>31.9</ele>
        <time>2025-04-20T14:59:42.724Z</time>
      </trkpt>
      <trkpt lat="47.88356" lon="-4.20886">
        <ele>32.2</ele>
        <time>2025-04-20T14:59:47.604Z</time>
      </trkpt>
      <trkpt lat="47.88348" lon="-4.20909">
        <ele>32.1</ele>
        <time>2025-04-20T14:59:50.325Z</time>
      </trkpt>
      <trkpt lat="47.88317" lon="-4.20981">
        <ele>32.9</ele>
        <time>2025-04-20T15:00:01.219Z</time>
      </trkpt>
      <trkpt lat="47.88224" lon="-4.21177">
        <ele>34</ele>
        <time>2025-04-20T15:00:29.657Z</time>
        <extensions>
          <visugpx:TrkExtension xmlns:visugpx="https://www.visugpx.com/editgpx/">
            <visugpx:node>10</visugpx:node>
            </visugpx:TrkExtension>
        </extensions>
      </trkpt>
      <trkpt lat="47.88224" lon="-4.21177">
        <ele>34</ele>
        <time>2025-04-20T15:00:29.657Z</time>
      </trkpt>
      <trkpt lat="47.88209" lon="-4.21209">
        <ele>33.8</ele>
        <time>2025-04-20T15:00:33.688Z</time>
      </trkpt>
      <trkpt lat="47.88204" lon="-4.2122">
        <ele>33.9</ele>
        <time>2025-04-20T15:00:35.334Z</time>
      </trkpt>
      <trkpt lat="47.88196" lon="-4.21238">
        <ele>34</ele>
        <time>2025-04-20T15:00:37.893Z</time>
      </trkpt>
      <trkpt lat="47.88155" lon="-4.21323">
        <ele>33.7</ele>
        <time>2025-04-20T15:00:49.042Z</time>
      </trkpt>
      <trkpt lat="47.88099" lon="-4.21444">
        <ele>30.6</ele>
        <time>2025-04-20T15:01:01.483Z</time>
      </trkpt>
      <trkpt lat="47.88092" lon="-4.21471">
        <ele>29.4</ele>
        <time>2025-04-20T15:01:03.467Z</time>
      </trkpt>
      <trkpt lat="47.88079" lon="-4.2152">
        <ele>28.1</ele>
        <time>2025-04-20T15:01:07.749Z</time>
      </trkpt>
      <trkpt lat="47.88074" lon="-4.21551">
        <ele>27.1</ele>
        <time>2025-04-20T15:01:10.161Z</time>
      </trkpt>
      <trkpt lat="47.88065" lon="-4.21626">
        <ele>27.3</ele>
        <time>2025-04-20T15:01:18.930Z</time>
      </trkpt>
      <trkpt lat="47.88066" lon="-4.2164">
        <ele>27.4</ele>
        <time>2025-04-20T15:01:20.662Z</time>
      </trkpt>
      <trkpt lat="47.88071" lon="-4.21657">
        <ele>27.6</ele>
        <time>2025-04-20T15:01:23.079Z</time>
      </trkpt>
      <trkpt lat="47.88081" lon="-4.21668">
        <ele>27.9</ele>
        <time>2025-04-20T15:01:25.711Z</time>
      </trkpt>
      <trkpt lat="47.88086" lon="-4.21679">
        <ele>28</ele>
        <time>2025-04-20T15:01:27.356Z</time>
      </trkpt>
      <trkpt lat="47.88088" lon="-4.21698">
        <ele>28</ele>
        <time>2025-04-20T15:01:29.488Z</time>
      </trkpt>
      <trkpt lat="47.88088" lon="-4.21712">
        <ele>28</ele>
        <time>2025-04-20T15:01:31.040Z</time>
      </trkpt>
      <trkpt lat="47.8808" lon="-4.21733">
        <ele>28</ele>
        <time>2025-04-20T15:01:33.717Z</time>
      </trkpt>
      <trkpt lat="47.88069" lon="-4.21742">
        <ele>27.6</ele>
        <time>2025-04-20T15:01:35.295Z</time>
      </trkpt>
      <trkpt lat="47.8806" lon="-4.21767">
        <ele>27.2</ele>
        <time>2025-04-20T15:01:37.904Z</time>
      </trkpt>
      <trkpt lat="47.88056" lon="-4.2181">
        <ele>27</ele>
        <time>2025-04-20T15:01:42.418Z</time>
      </trkpt>
      <trkpt lat="47.88053" lon="-4.21822">
        <ele>27.1</ele>
        <time>2025-04-20T15:01:44.011Z</time>
      </trkpt>
      <trkpt lat="47.88046" lon="-4.22006">
        <ele>29.3</ele>
        <time>2025-04-20T15:02:08.449Z</time>
      </trkpt>
      <trkpt lat="47.88039" lon="-4.22144">
        <ele>31.7</ele>
        <time>2025-04-20T15:02:28.488Z</time>
      </trkpt>
      <trkpt lat="47.88031" lon="-4.22254">
        <ele>26.8</ele>
        <time>2025-04-20T15:02:35.877Z</time>
      </trkpt>
      <trkpt lat="47.88018" lon="-4.22375">
        <ele>27.6</ele>
        <time>2025-04-20T15:02:50.821Z</time>
      </trkpt>
      <trkpt lat="47.88001" lon="-4.22502">
        <ele>19.1</ele>
        <time>2025-04-20T15:02:59.434Z</time>
      </trkpt>
      <trkpt lat="47.87996" lon="-4.22534">
        <ele>17.5</ele>
        <time>2025-04-20T15:03:01.619Z</time>
      </trkpt>
      <trkpt lat="47.87965" lon="-4.22707">
        <ele>15.2</ele>
        <time>2025-04-20T15:03:18.346Z</time>
      </trkpt>
      <trkpt lat="47.87935" lon="-4.22852">
        <ele>10.2</ele>
        <time>2025-04-20T15:03:29.641Z</time>
      </trkpt>
      <trkpt lat="47.87922" lon="-4.22912">
        <ele>12.5</ele>
        <time>2025-04-20T15:03:42.540Z</time>
      </trkpt>
      <trkpt lat="47.87853" lon="-4.23238">
        <ele>18.9</ele>
        <time>2025-04-20T15:04:33.200Z</time>
      </trkpt>
      <trkpt lat="47.87831" lon="-4.23331">
        <ele>19.3</ele>
        <time>2025-04-20T15:04:44.791Z</time>
      </trkpt>
      <trkpt lat="47.87809" lon="-4.23414">
        <ele>19.8</ele>
        <time>2025-04-20T15:04:55.525Z</time>
      </trkpt>
      <trkpt lat="47.8779" lon="-4.23466">
        <ele>24.2</ele>
        <time>2025-04-20T15:05:20.423Z</time>
      </trkpt>
      <trkpt lat="47.87772" lon="-4.23511">
        <ele>22</ele>
        <time>2025-04-20T15:05:23.996Z</time>
      </trkpt>
      <trkpt lat="47.87735" lon="-4.23585">
        <ele>23.9</ele>
        <time>2025-04-20T15:05:38.115Z</time>
      </trkpt>
      <trkpt lat="47.87715" lon="-4.23615">
        <ele>23.1</ele>
        <time>2025-04-20T15:05:41.787Z</time>
      </trkpt>
      <trkpt lat="47.87696" lon="-4.23641">
        <ele>21.7</ele>
        <time>2025-04-20T15:05:44.552Z</time>
      </trkpt>
      <trkpt lat="47.87677" lon="-4.23666">
        <ele>23.2</ele>
        <time>2025-04-20T15:05:52.784Z</time>
      </trkpt>
      <trkpt lat="47.87642" lon="-4.23704">
        <ele>23.1</ele>
        <time>2025-04-20T15:05:59.785Z</time>
      </trkpt>
      <trkpt lat="47.87623" lon="-4.23721">
        <ele>22.9</ele>
        <time>2025-04-20T15:06:03.154Z</time>
      </trkpt>
      <trkpt lat="47.87585" lon="-4.23752">
        <ele>22.3</ele>
        <time>2025-04-20T15:06:09.466Z</time>
      </trkpt>
      <trkpt lat="47.87545" lon="-4.23778">
        <ele>21.4</ele>
        <time>2025-04-20T15:06:15.469Z</time>
      </trkpt>
      <trkpt lat="47.87464" lon="-4.23825">
        <ele>20</ele>
        <time>2025-04-20T15:06:27.891Z</time>
      </trkpt>
      <trkpt lat="47.87331" lon="-4.23894">
        <ele>18.3</ele>
        <time>2025-04-20T15:06:48.732Z</time>
      </trkpt>
      <trkpt lat="47.87276" lon="-4.23914">
        <ele>16.9</ele>
        <time>2025-04-20T15:06:56.264Z</time>
      </trkpt>
      <trkpt lat="47.87227" lon="-4.23922">
        <ele>15</ele>
        <time>2025-04-20T15:07:02.160Z</time>
      </trkpt>
      <trkpt lat="47.87188" lon="-4.2393">
        <ele>13.5</ele>
        <time>2025-04-20T15:07:06.884Z</time>
      </trkpt>
      <trkpt lat="47.8718" lon="-4.23936">
        <ele>13.5</ele>
        <time>2025-04-20T15:07:08.364Z</time>
      </trkpt>
      <trkpt lat="47.87174" lon="-4.23945">
        <ele>13.7</ele>
        <time>2025-04-20T15:07:10.154Z</time>
      </trkpt>
      <trkpt lat="47.87174" lon="-4.23958">
        <ele>13.7</ele>
        <time>2025-04-20T15:07:11.595Z</time>
      </trkpt>
      <trkpt lat="47.87173" lon="-4.23965">
        <ele>13.8</ele>
        <time>2025-04-20T15:07:12.576Z</time>
      </trkpt>
      <trkpt lat="47.87166" lon="-4.23978">
        <ele>13.8</ele>
        <time>2025-04-20T15:07:14.424Z</time>
      </trkpt>
      <trkpt lat="47.8716" lon="-4.23982">
        <ele>13.6</ele>
        <time>2025-04-20T15:07:15.259Z</time>
      </trkpt>
      <trkpt lat="47.87149" lon="-4.23983">
        <ele>13.6</ele>
        <time>2025-04-20T15:07:17.081Z</time>
      </trkpt>
      <trkpt lat="47.87142" lon="-4.23977">
        <ele>13.8</ele>
        <time>2025-04-20T15:07:18.803Z</time>
      </trkpt>
      <trkpt lat="47.87121" lon="-4.23979">
        <ele>13.3</ele>
        <time>2025-04-20T15:07:21.624Z</time>
      </trkpt>
      <trkpt lat="47.87093" lon="-4.23991">
        <ele>12.8</ele>
        <time>2025-04-20T15:07:25.751Z</time>
      </trkpt>
      <trkpt lat="47.87024" lon="-4.24036">
        <ele>12.4</ele>
        <time>2025-04-20T15:07:37.595Z</time>
      </trkpt>
      <trkpt lat="47.86959" lon="-4.24081">
        <ele>11.8</ele>
        <time>2025-04-20T15:07:48.556Z</time>
        <extensions>
          <visugpx:TrkExtension xmlns:visugpx="https://www.visugpx.com/editgpx/">
            <visugpx:node>11</visugpx:node>
            </visugpx:TrkExtension>
        </extensions>
      </trkpt>
      <trkpt lat="47.86959" lon="-4.24081">
        <ele>11.8</ele>
        <time>2025-04-20T15:07:48.556Z</time>
      </trkpt>
      <trkpt lat="47.86404" lon="-4.24469">
        <ele>14.8</ele>
        <time>2025-04-20T15:09:34.769Z</time>
      </trkpt>
      <trkpt lat="47.86368" lon="-4.24493">
        <ele>15.5</ele>
        <time>2025-04-20T15:09:42.562Z</time>
      </trkpt>
      <trkpt lat="47.86346" lon="-4.24512">
        <ele>15.9</ele>
        <time>2025-04-20T15:09:47.480Z</time>
      </trkpt>
      <trkpt lat="47.86291" lon="-4.24553">
        <ele>15.9</ele>
        <time>2025-04-20T15:09:57.643Z</time>
      </trkpt>
      <trkpt lat="47.8628" lon="-4.24565">
        <ele>15.7</ele>
        <time>2025-04-20T15:09:59.615Z</time>
      </trkpt>
      <trkpt lat="47.86278" lon="-4.24577">
        <ele>15.2</ele>
        <time>2025-04-20T15:10:00.471Z</time>
      </trkpt>
      <trkpt lat="47.86274" lon="-4.24583">
        <ele>15</ele>
        <time>2025-04-20T15:10:01.167Z</time>
      </trkpt>
      <trkpt lat="47.86264" lon="-4.24588">
        <ele>15</ele>
        <time>2025-04-20T15:10:02.910Z</time>
      </trkpt>
      <trkpt lat="47.86257" lon="-4.24585">
        <ele>15</ele>
        <time>2025-04-20T15:10:04.114Z</time>
      </trkpt>
      <trkpt lat="47.86253" lon="-4.2458">
        <ele>15</ele>
        <time>2025-04-20T15:10:04.976Z</time>
      </trkpt>
      <trkpt lat="47.86182" lon="-4.24616">
        <ele>14.6</ele>
        <time>2025-04-20T15:10:16.768Z</time>
      </trkpt>
      <trkpt lat="47.86177" lon="-4.24619">
        <ele>14.5</ele>
        <time>2025-04-20T15:10:17.522Z</time>
      </trkpt>
      <trkpt lat="47.86161" lon="-4.24625">
        <ele>14.3</ele>
        <time>2025-04-20T15:10:19.963Z</time>
      </trkpt>
      <trkpt lat="47.86147" lon="-4.24628">
        <ele>14</ele>
        <time>2025-04-20T15:10:21.900Z</time>
      </trkpt>
      <trkpt lat="47.86112" lon="-4.24641">
        <ele>14.8</ele>
        <time>2025-04-20T15:10:29.377Z</time>
      </trkpt>
      <trkpt lat="47.86061" lon="-4.24653">
        <ele>13.1</ele>
        <time>2025-04-20T15:10:35.818Z</time>
      </trkpt>
      <trkpt lat="47.8598" lon="-4.24655">
        <ele>12.5</ele>
        <time>2025-04-20T15:10:48.316Z</time>
      </trkpt>
      <trkpt lat="47.85927" lon="-4.24646">
        <ele>12.7</ele>
        <time>2025-04-20T15:10:57.456Z</time>
      </trkpt>
      <trkpt lat="47.85886" lon="-4.24633">
        <ele>13</ele>
        <time>2025-04-20T15:11:04.883Z</time>
      </trkpt>
      <trkpt lat="47.85859" lon="-4.24622">
        <ele>13</ele>
        <time>2025-04-20T15:11:09.509Z</time>
      </trkpt>
      <trkpt lat="47.85818" lon="-4.246">
        <ele>13</ele>
        <time>2025-04-20T15:11:16.710Z</time>
      </trkpt>
      <trkpt lat="47.85791" lon="-4.24581">
        <ele>13</ele>
        <time>2025-04-20T15:11:21.645Z</time>
      </trkpt>
      <trkpt lat="47.85752" lon="-4.24549">
        <ele>13</ele>
        <time>2025-04-20T15:11:29.002Z</time>
      </trkpt>
      <trkpt lat="47.85721" lon="-4.24519">
        <ele>14</ele>
        <time>2025-04-20T15:11:37.091Z</time>
      </trkpt>
      <trkpt lat="47.85668" lon="-4.24452">
        <ele>15</ele>
        <time>2025-04-20T15:11:50.347Z</time>
      </trkpt>
      <trkpt lat="47.85639" lon="-4.24409">
        <ele>16</ele>
        <time>2025-04-20T15:11:59.041Z</time>
      </trkpt>
      <trkpt lat="47.85594" lon="-4.24335">
        <ele>16.9</ele>
        <time>2025-04-20T15:12:11.696Z</time>
      </trkpt>
      <trkpt lat="47.85586" lon="-4.24327">
        <ele>17</ele>
        <time>2025-04-20T15:12:13.459Z</time>
      </trkpt>
      <trkpt lat="47.85574" lon="-4.24309">
        <ele>17</ele>
        <time>2025-04-20T15:12:16.273Z</time>
      </trkpt>
      <trkpt lat="47.85568" lon="-4.24303">
        <ele>17</ele>
        <time>2025-04-20T15:12:17.467Z</time>
      </trkpt>
      <trkpt lat="47.85557" lon="-4.24296">
        <ele>17</ele>
        <time>2025-04-20T15:12:19.443Z</time>
      </trkpt>
      <trkpt lat="47.85547" lon="-4.24295">
        <ele>17</ele>
        <time>2025-04-20T15:12:21.100Z</time>
      </trkpt>
      <trkpt lat="47.85542" lon="-4.24292">
        <ele>17</ele>
        <time>2025-04-20T15:12:21.991Z</time>
      </trkpt>
      <trkpt lat="47.85535" lon="-4.24282">
        <ele>17</ele>
        <time>2025-04-20T15:12:23.593Z</time>
      </trkpt>
      <trkpt lat="47.85518" lon="-4.24281">
        <ele>17</ele>
        <time>2025-04-20T15:12:26.405Z</time>
      </trkpt>
      <trkpt lat="47.85513" lon="-4.24283">
        <ele>17</ele>
        <time>2025-04-20T15:12:27.260Z</time>
      </trkpt>
      <trkpt lat="47.85491" lon="-4.24297">
        <ele>17</ele>
        <time>2025-04-20T15:12:31.214Z</time>
      </trkpt>
      <trkpt lat="47.85484" lon="-4.24303">
        <ele>17</ele>
        <time>2025-04-20T15:12:32.548Z</time>
      </trkpt>
      <trkpt lat="47.85463" lon="-4.24319">
        <ele>17</ele>
        <time>2025-04-20T15:12:36.446Z</time>
      </trkpt>
      <trkpt lat="47.85419" lon="-4.24355">
        <ele>16.2</ele>
        <time>2025-04-20T15:12:43.630Z</time>
      </trkpt>
      <trkpt lat="47.8538" lon="-4.24392">
        <ele>16.4</ele>
        <time>2025-04-20T15:12:51.596Z</time>
      </trkpt>
      <trkpt lat="47.85333" lon="-4.24438">
        <ele>17</ele>
        <time>2025-04-20T15:13:01.918Z</time>
      </trkpt>
      <trkpt lat="47.85258" lon="-4.2452">
        <ele>18</ele>
        <time>2025-04-20T15:13:19.007Z</time>
      </trkpt>
      <trkpt lat="47.85187" lon="-4.24586">
        <ele>18.9</ele>
        <time>2025-04-20T15:13:34.382Z</time>
      </trkpt>
      <trkpt lat="47.85148" lon="-4.24632">
        <ele>19.5</ele>
        <time>2025-04-20T15:13:43.643Z</time>
      </trkpt>
      <trkpt lat="47.85116" lon="-4.24675">
        <ele>20.8</ele>
        <time>2025-04-20T15:13:53.412Z</time>
      </trkpt>
      <trkpt lat="47.85098" lon="-4.24704">
        <ele>20.8</ele>
        <time>2025-04-20T15:13:57.793Z</time>
      </trkpt>
      <trkpt lat="47.85088" lon="-4.24721">
        <ele>20.8</ele>
        <time>2025-04-20T15:14:00.300Z</time>
      </trkpt>
      <trkpt lat="47.85072" lon="-4.24746">
        <ele>21.4</ele>
        <time>2025-04-20T15:14:05.306Z</time>
      </trkpt>
      <trkpt lat="47.85055" lon="-4.24774">
        <ele>22</ele>
        <time>2025-04-20T15:14:10.646Z</time>
      </trkpt>
      <trkpt lat="47.85013" lon="-4.24846">
        <ele>22.5</ele>
        <time>2025-04-20T15:14:22.064Z</time>
      </trkpt>
      <trkpt lat="47.84996" lon="-4.24875">
        <ele>23</ele>
        <time>2025-04-20T15:14:27.258Z</time>
      </trkpt>
      <trkpt lat="47.84963" lon="-4.24932">
        <ele>23</ele>
        <time>2025-04-20T15:14:35.607Z</time>
      </trkpt>
      <trkpt lat="47.84938" lon="-4.24974">
        <ele>22</ele>
        <time>2025-04-20T15:14:40.547Z</time>
      </trkpt>
      <trkpt lat="47.8492" lon="-4.25005">
        <ele>22</ele>
        <time>2025-04-20T15:14:45.093Z</time>
      </trkpt>
      <trkpt lat="47.84919" lon="-4.25004">
        <ele>22</ele>
        <time>2025-04-20T15:14:45.292Z</time>
        <extensions>
          <visugpx:TrkExtension xmlns:visugpx="https://www.visugpx.com/editgpx/">
            <visugpx:node>12</visugpx:node>
            </visugpx:TrkExtension>
        </extensions>
      </trkpt>
      <trkpt lat="47.8492" lon="-4.25005">
        <ele>22</ele>
        <time>2025-04-20T15:14:45.491Z</time>
      </trkpt>
      <trkpt lat="47.84885" lon="-4.25069">
        <ele>23</ele>
        <time>2025-04-20T15:14:56.475Z</time>
      </trkpt>
      <trkpt lat="47.84866" lon="-4.25111">
        <ele>23</ele>
        <time>2025-04-20T15:15:02.093Z</time>
      </trkpt>
      <trkpt lat="47.84842" lon="-4.25179">
        <ele>23.7</ele>
        <time>2025-04-20T15:15:11.844Z</time>
      </trkpt>
      <trkpt lat="47.84831" lon="-4.25224">
        <ele>23.9</ele>
        <time>2025-04-20T15:15:17.487Z</time>
      </trkpt>
      <trkpt lat="47.84823" lon="-4.25278">
        <ele>23</ele>
        <time>2025-04-20T15:15:22.443Z</time>
      </trkpt>
      <trkpt lat="47.84817" lon="-4.25368">
        <ele>23</ele>
        <time>2025-04-20T15:15:32.474Z</time>
      </trkpt>
      <trkpt lat="47.84816" lon="-4.25476">
        <ele>22.6</ele>
        <time>2025-04-20T15:15:43.851Z</time>
      </trkpt>
      <trkpt lat="47.84816" lon="-4.25542">
        <ele>22.6</ele>
        <time>2025-04-20T15:15:51.171Z</time>
      </trkpt>
      <trkpt lat="47.84814" lon="-4.25653">
        <ele>23.4</ele>
        <time>2025-04-20T15:16:04.859Z</time>
      </trkpt>
      <trkpt lat="47.84814" lon="-4.25664">
        <ele>23.6</ele>
        <time>2025-04-20T15:16:06.475Z</time>
      </trkpt>
      <trkpt lat="47.8481" lon="-4.25707">
        <ele>23.4</ele>
        <time>2025-04-20T15:16:10.992Z</time>
      </trkpt>
      <trkpt lat="47.84804" lon="-4.25766">
        <ele>23.1</ele>
        <time>2025-04-20T15:16:17.166Z</time>
      </trkpt>
      <trkpt lat="47.84796" lon="-4.25809">
        <ele>23.3</ele>
        <time>2025-04-20T15:16:22.447Z</time>
      </trkpt>
      <trkpt lat="47.84785" lon="-4.25855">
        <ele>23.2</ele>
        <time>2025-04-20T15:16:27.710Z</time>
      </trkpt>
      <trkpt lat="47.84757" lon="-4.25958">
        <ele>23.7</ele>
        <time>2025-04-20T15:16:40.865Z</time>
      </trkpt>
      <trkpt lat="47.84751" lon="-4.25979">
        <ele>24</ele>
        <time>2025-04-20T15:16:43.952Z</time>
      </trkpt>
      <trkpt lat="47.84645" lon="-4.26346">
        <ele>27.4</ele>
        <time>2025-04-20T15:17:34.198Z</time>
      </trkpt>
      <trkpt lat="47.84625" lon="-4.26422">
        <ele>28</ele>
        <time>2025-04-20T15:17:44.284Z</time>
      </trkpt>
      <trkpt lat="47.84614" lon="-4.26469">
        <ele>28</ele>
        <time>2025-04-20T15:17:49.804Z</time>
      </trkpt>
      <trkpt lat="47.84608" lon="-4.26497">
        <ele>28</ele>
        <time>2025-04-20T15:17:53.064Z</time>
      </trkpt>
      <trkpt lat="47.84605" lon="-4.26512">
        <ele>28.1</ele>
        <time>2025-04-20T15:17:54.970Z</time>
      </trkpt>
      <trkpt lat="47.84597" lon="-4.26566">
        <ele>29</ele>
        <time>2025-04-20T15:18:02.841Z</time>
      </trkpt>
      <trkpt lat="47.84595" lon="-4.26589">
        <ele>28.9</ele>
        <time>2025-04-20T15:18:05.264Z</time>
      </trkpt>
      <trkpt lat="47.84592" lon="-4.26612">
        <ele>28.7</ele>
        <time>2025-04-20T15:18:07.578Z</time>
      </trkpt>
      <trkpt lat="47.84588" lon="-4.26685">
        <ele>29.5</ele>
        <time>2025-04-20T15:18:17.141Z</time>
      </trkpt>
      <trkpt lat="47.84589" lon="-4.26765">
        <ele>29.9</ele>
        <time>2025-04-20T15:18:26.683Z</time>
      </trkpt>
      <trkpt lat="47.84594" lon="-4.26899">
        <ele>30</ele>
        <time>2025-04-20T15:18:41.727Z</time>
      </trkpt>
      <trkpt lat="47.84609" lon="-4.27156">
        <ele>31.9</ele>
        <time>2025-04-20T15:19:13.607Z</time>
      </trkpt>
      <trkpt lat="47.84611" lon="-4.2723">
        <ele>32</ele>
        <time>2025-04-20T15:19:21.981Z</time>
      </trkpt>
      <trkpt lat="47.84609" lon="-4.27272">
        <ele>32</ele>
        <time>2025-04-20T15:19:26.651Z</time>
      </trkpt>
      <trkpt lat="47.846" lon="-4.27343">
        <ele>32.6</ele>
        <time>2025-04-20T15:19:35.709Z</time>
      </trkpt>
      <trkpt lat="47.84588" lon="-4.27405">
        <ele>32.7</ele>
        <time>2025-04-20T15:19:43.026Z</time>
      </trkpt>
      <trkpt lat="47.8457" lon="-4.27466">
        <ele>33</ele>
        <time>2025-04-20T15:19:50.915Z</time>
      </trkpt>
      <trkpt lat="47.84547" lon="-4.27536">
        <ele>32.2</ele>
        <time>2025-04-20T15:19:58.442Z</time>
      </trkpt>
      <trkpt lat="47.84504" lon="-4.27654">
        <ele>32</ele>
        <time>2025-04-20T15:20:13.026Z</time>
      </trkpt>
      <trkpt lat="47.84489" lon="-4.27692">
        <ele>32.6</ele>
        <time>2025-04-20T15:20:19.034Z</time>
      </trkpt>
      <trkpt lat="47.84479" lon="-4.27714">
        <ele>32.2</ele>
        <time>2025-04-20T15:20:21.451Z</time>
      </trkpt>
      <trkpt lat="47.8447" lon="-4.27734">
        <ele>32</ele>
        <time>2025-04-20T15:20:23.836Z</time>
      </trkpt>
      <trkpt lat="47.84454" lon="-4.27766">
        <ele>31.6</ele>
        <time>2025-04-20T15:20:27.702Z</time>
      </trkpt>
      <trkpt lat="47.84446" lon="-4.27784">
        <ele>31.1</ele>
        <time>2025-04-20T15:20:29.488Z</time>
      </trkpt>
      <trkpt lat="47.84443" lon="-4.2779">
        <ele>31</ele>
        <time>2025-04-20T15:20:30.183Z</time>
      </trkpt>
      <trkpt lat="47.84443" lon="-4.2779">
        <ele>31</ele>
        <time>2025-04-20T15:20:30.183Z</time>
        <extensions>
          <visugpx:TrkExtension xmlns:visugpx="https://www.visugpx.com/editgpx/">
            <visugpx:node>13</visugpx:node>
            </visugpx:TrkExtension>
        </extensions>
      </trkpt>
      <trkpt lat="47.84443" lon="-4.2779">
        <ele>31</ele>
      </trkpt>
      <trkpt lat="47.84414" lon="-4.27849">
        <ele>30.9</ele>
      </trkpt>
      <trkpt lat="47.84392" lon="-4.2789">
        <ele>30.1</ele>
      </trkpt>
      <trkpt lat="47.84394" lon="-4.27893">
        <ele>30.3</ele>
      </trkpt>
      <trkpt lat="47.84395" lon="-4.279">
        <ele>30.5</ele>
      </trkpt>
      <trkpt lat="47.84392" lon="-4.27907">
        <ele>30.7</ele>
      </trkpt>
      <trkpt lat="47.84386" lon="-4.27908">
        <ele>30.6</ele>
      </trkpt>
      <trkpt lat="47.84362" lon="-4.27958">
        <ele>31</ele>
      </trkpt>
      <trkpt lat="47.84341" lon="-4.28005">
        <ele>31.3</ele>
      </trkpt>
      <trkpt lat="47.84335" lon="-4.28013">
        <ele>31.1</ele>
      </trkpt>
      <trkpt lat="47.84309" lon="-4.28064">
        <ele>31</ele>
      </trkpt>
      <trkpt lat="47.84276" lon="-4.28136">
        <ele>31</ele>
      </trkpt>
      <trkpt lat="47.84266" lon="-4.28162">
        <ele>31</ele>
      </trkpt>
      <trkpt lat="47.84248" lon="-4.28198">
        <ele>31.1</ele>
      </trkpt>
      <trkpt lat="47.84236" lon="-4.28219">
        <ele>31.4</ele>
      </trkpt>
      <trkpt lat="47.84238" lon="-4.28223">
        <ele>31.6</ele>
      </trkpt>
      <trkpt lat="47.84247" lon="-4.28234">
        <ele>31.9</ele>
      </trkpt>
      <trkpt lat="47.84283" lon="-4.28227">
        <ele>32</ele>
      </trkpt>
      <trkpt lat="47.8436" lon="-4.28214">
        <ele>32</ele>
      </trkpt>
      <trkpt lat="47.84397" lon="-4.28212">
        <ele>32.3</ele>
      </trkpt>
      <trkpt lat="47.84481" lon="-4.2821">
        <ele>33.1</ele>
      </trkpt>
      <trkpt lat="47.84534" lon="-4.28216">
        <ele>33.4</ele>
      </trkpt>
      <trkpt lat="47.84567" lon="-4.28225">
        <ele>34</ele>
      </trkpt>
      <trkpt lat="47.84614" lon="-4.28246">
        <ele>34.1</ele>
      </trkpt>
      <trkpt lat="47.84632" lon="-4.28255">
        <ele>34</ele>
      </trkpt>
      <trkpt lat="47.84674" lon="-4.28283">
        <ele>34.3</ele>
      </trkpt>
      <trkpt lat="47.84688" lon="-4.28294">
        <ele>34.8</ele>
      </trkpt>
      <trkpt lat="47.84782" lon="-4.28379">
        <ele>35</ele>
      </trkpt>
      <trkpt lat="47.84828" lon="-4.28414">
        <ele>35</ele>
      </trkpt>
      <trkpt lat="47.84862" lon="-4.28434">
        <ele>35</ele>
      </trkpt>
      <trkpt lat="47.84898" lon="-4.28447">
        <ele>35</ele>
      </trkpt>
      <trkpt lat="47.85096" lon="-4.285">
        <ele>34</ele>
      </trkpt>
      <trkpt lat="47.85144" lon="-4.28513">
        <ele>34.4</ele>
      </trkpt>
      <trkpt lat="47.85182" lon="-4.2852">
        <ele>34</ele>
      </trkpt>
      <trkpt lat="47.85221" lon="-4.28523">
        <ele>34</ele>
      </trkpt>
      <trkpt lat="47.85269" lon="-4.2852">
        <ele>33.2</ele>
      </trkpt>
      <trkpt lat="47.85317" lon="-4.2851">
        <ele>33</ele>
      </trkpt>
      <trkpt lat="47.85364" lon="-4.28491">
        <ele>32.6</ele>
      </trkpt>
      <trkpt lat="47.85567" lon="-4.28393">
        <ele>31.9</ele>
      </trkpt>
      <trkpt lat="47.85696" lon="-4.2833">
        <ele>32</ele>
      </trkpt>
      <trkpt lat="47.85732" lon="-4.28313">
        <ele>32</ele>
      </trkpt>
      <trkpt lat="47.85801" lon="-4.28279">
        <ele>31</ele>
      </trkpt>
      <trkpt lat="47.85831" lon="-4.28265">
        <ele>31.5</ele>
      </trkpt>
      <trkpt lat="47.85916" lon="-4.28223">
        <ele>30.9</ele>
      </trkpt>
      <trkpt lat="47.85925" lon="-4.28219">
        <ele>30.7</ele>
      </trkpt>
      <trkpt lat="47.85969" lon="-4.28196">
        <ele>30.9</ele>
      </trkpt>
      <trkpt lat="47.86001" lon="-4.28174">
        <ele>30.3</ele>
      </trkpt>
      <trkpt lat="47.86085" lon="-4.28096">
        <ele>30</ele>
      </trkpt>
      <trkpt lat="47.86104" lon="-4.2808">
        <ele>29.9</ele>
      </trkpt>
      <trkpt lat="47.86148" lon="-4.28056">
        <ele>28.7</ele>
      </trkpt>
      <trkpt lat="47.86158" lon="-4.28051">
        <ele>28.3</ele>
      </trkpt>
      <trkpt lat="47.86163" lon="-4.2805">
        <ele>28.1</ele>
      </trkpt>
      <trkpt lat="47.86195" lon="-4.28042">
        <ele>27</ele>
      </trkpt>
      <trkpt lat="47.86204" lon="-4.28035">
        <ele>26.7</ele>
      </trkpt>
      <trkpt lat="47.86204" lon="-4.28033">
        <ele>26.7</ele>
      </trkpt>
      <trkpt lat="47.86208" lon="-4.28026">
        <ele>26.5</ele>
      </trkpt>
      <trkpt lat="47.86211" lon="-4.28024">
        <ele>26.3</ele>
      </trkpt>
      <trkpt lat="47.86219" lon="-4.28027">
        <ele>26.1</ele>
      </trkpt>
      <trkpt lat="47.86222" lon="-4.28032">
        <ele>26</ele>
      </trkpt>
      <trkpt lat="47.86236" lon="-4.28041">
        <ele>25.5</ele>
      </trkpt>
      <trkpt lat="47.86284" lon="-4.2804">
        <ele>23.8</ele>
      </trkpt>
      <trkpt lat="47.86324" lon="-4.28039">
        <ele>22.3</ele>
      </trkpt>
      <trkpt lat="47.86329" lon="-4.28039">
        <ele>22.2</ele>
      </trkpt>
      <trkpt lat="47.86332" lon="-4.28039">
        <ele>22</ele>
      </trkpt>
      <trkpt lat="47.86474" lon="-4.28037">
        <ele>16</ele>
      </trkpt>
      <trkpt lat="47.86498" lon="-4.28036">
        <ele>15.3</ele>
      </trkpt>
      <trkpt lat="47.86505" lon="-4.28036">
        <ele>15.2</ele>
      </trkpt>
      <trkpt lat="47.8653" lon="-4.28034">
        <ele>15.1</ele>
      </trkpt>
      <trkpt lat="47.86548" lon="-4.28033">
        <ele>15.9</ele>
      </trkpt>
      <trkpt lat="47.86559" lon="-4.28035">
        <ele>16.5</ele>
      </trkpt>
      <trkpt lat="47.86575" lon="-4.28039">
        <ele>17.8</ele>
      </trkpt>
      <trkpt lat="47.86591" lon="-4.28046">
        <ele>18.8</ele>
      </trkpt>
      <trkpt lat="47.86593" lon="-4.28047">
        <ele>18.8</ele>
      </trkpt>
      <trkpt lat="47.86608" lon="-4.28058">
        <ele>19.1</ele>
      </trkpt>
      <trkpt lat="47.86616" lon="-4.28065">
        <ele>19.5</ele>
      </trkpt>
      <trkpt lat="47.86636" lon="-4.28075">
        <ele>20</ele>
      </trkpt>
      <trkpt lat="47.86651" lon="-4.28077">
        <ele>20.4</ele>
      </trkpt>
      <trkpt lat="47.86666" lon="-4.2808">
        <ele>21</ele>
      </trkpt>
      <trkpt lat="47.86679" lon="-4.28086">
        <ele>21.1</ele>
      </trkpt>
      <trkpt lat="47.86724" lon="-4.2811">
        <ele>20</ele>
      </trkpt>
      <trkpt lat="47.86729" lon="-4.28113">
        <ele>20</ele>
      </trkpt>
      <trkpt lat="47.86738" lon="-4.28119">
        <ele>20</ele>
      </trkpt>
      <trkpt lat="47.86769" lon="-4.28138">
        <ele>19.3</ele>
      </trkpt>
      <trkpt lat="47.86826" lon="-4.28171">
        <ele>17.7</ele>
      </trkpt>
      <trkpt lat="47.86833" lon="-4.28175">
        <ele>17.4</ele>
      </trkpt>
      <trkpt lat="47.8684" lon="-4.28179">
        <ele>17.2</ele>
      </trkpt>
      <trkpt lat="47.86847" lon="-4.28183">
        <ele>17.3</ele>
      </trkpt>
      <trkpt lat="47.87051" lon="-4.28293">
        <ele>23.8</ele>
      </trkpt>
      <trkpt lat="47.87129" lon="-4.28342">
        <ele>26.6</ele>
      </trkpt>
      <trkpt lat="47.87168" lon="-4.28371">
        <ele>28</ele>
      </trkpt>
      <trkpt lat="47.87202" lon="-4.28401">
        <ele>29</ele>
      </trkpt>
      <trkpt lat="47.87266" lon="-4.28464">
        <ele>30</ele>
      </trkpt>
      <trkpt lat="47.87518" lon="-4.28729">
        <ele>30.4</ele>
      </trkpt>
      <trkpt lat="47.87528" lon="-4.28739">
        <ele>30</ele>
      </trkpt>
      <trkpt lat="47.87554" lon="-4.28767">
        <ele>30</ele>
      </trkpt>
      <trkpt lat="47.87582" lon="-4.28793">
        <ele>29.6</ele>
      </trkpt>
      <trkpt lat="47.87636" lon="-4.28835">
        <ele>28.1</ele>
      </trkpt>
      <trkpt lat="47.87638" lon="-4.28836">
        <ele>28</ele>
      </trkpt>
      <trkpt lat="47.87693" lon="-4.28865">
        <ele>27</ele>
      </trkpt>
      <trkpt lat="47.87891" lon="-4.28939">
        <ele>25.8</ele>
      </trkpt>
      <trkpt lat="47.87944" lon="-4.28959">
        <ele>26</ele>
      </trkpt>
      <trkpt lat="47.88012" lon="-4.28993">
        <ele>27.3</ele>
      </trkpt>
      <trkpt lat="47.88041" lon="-4.2901">
        <ele>27.7</ele>
      </trkpt>
      <trkpt lat="47.88103" lon="-4.29056">
        <ele>28.7</ele>
      </trkpt>
      <trkpt lat="47.88148" lon="-4.29094">
        <ele>28.5</ele>
      </trkpt>
      <trkpt lat="47.88198" lon="-4.29143">
        <ele>29.9</ele>
      </trkpt>
      <trkpt lat="47.88209" lon="-4.2915">
        <ele>29.7</ele>
      </trkpt>
      <trkpt lat="47.88229" lon="-4.29174">
        <ele>30.1</ele>
      </trkpt>
      <trkpt lat="47.88262" lon="-4.29208">
        <ele>31</ele>
      </trkpt>
      <trkpt lat="47.88315" lon="-4.29255">
        <ele>31.3</ele>
      </trkpt>
      <trkpt lat="47.88354" lon="-4.2928">
        <ele>32</ele>
      </trkpt>
      <trkpt lat="47.88387" lon="-4.29295">
        <ele>32.6</ele>
      </trkpt>
      <trkpt lat="47.8842" lon="-4.29305">
        <ele>33</ele>
      </trkpt>
      <trkpt lat="47.88455" lon="-4.29311">
        <ele>33.1</ele>
      </trkpt>
      <trkpt lat="47.88466" lon="-4.29312">
        <ele>33.2</ele>
      </trkpt>
      <trkpt lat="47.8849" lon="-4.29312">
        <ele>33.7</ele>
      </trkpt>
      <trkpt lat="47.88527" lon="-4.29307">
        <ele>34</ele>
      </trkpt>
      <trkpt lat="47.88853" lon="-4.29199">
        <ele>39.9</ele>
      </trkpt>
      <trkpt lat="47.889" lon="-4.29187">
        <ele>41</ele>
      </trkpt>
      <trkpt lat="47.8893" lon="-4.29184">
        <ele>41.2</ele>
      </trkpt>
      <trkpt lat="47.88973" lon="-4.29185">
        <ele>42</ele>
      </trkpt>
      <trkpt lat="47.89048" lon="-4.29195">
        <ele>43</ele>
      </trkpt>
      <trkpt lat="47.89086" lon="-4.29199">
        <ele>44.2</ele>
      </trkpt>
      <trkpt lat="47.89114" lon="-4.29199">
        <ele>45</ele>
      </trkpt>
      <trkpt lat="47.89141" lon="-4.29196">
        <ele>45</ele>
      </trkpt>
      <trkpt lat="47.89264" lon="-4.2917">
        <ele>46.5</ele>
      </trkpt>
      <trkpt lat="47.89288" lon="-4.29166">
        <ele>47</ele>
      </trkpt>
      <trkpt lat="47.89292" lon="-4.29165">
        <ele>47</ele>
      </trkpt>
      <trkpt lat="47.89323" lon="-4.29162">
        <ele>47</ele>
      </trkpt>
      <trkpt lat="47.89392" lon="-4.29159">
        <ele>48</ele>
      </trkpt>
      <trkpt lat="47.89461" lon="-4.29155">
        <ele>48.3</ele>
      </trkpt>
      <trkpt lat="47.8947" lon="-4.29154">
        <ele>48.5</ele>
      </trkpt>
      <trkpt lat="47.89493" lon="-4.29147">
        <ele>48.3</ele>
      </trkpt>
      <trkpt lat="47.89507" lon="-4.29142">
        <ele>48.1</ele>
      </trkpt>
      <trkpt lat="47.89537" lon="-4.2913">
        <ele>48.2</ele>
      </trkpt>
      <trkpt lat="47.89574" lon="-4.29107">
        <ele>48</ele>
      </trkpt>
      <trkpt lat="47.89609" lon="-4.2908">
        <ele>47.9</ele>
      </trkpt>
      <trkpt lat="47.8964" lon="-4.29049">
        <ele>48.1</ele>
      </trkpt>
      <trkpt lat="47.89665" lon="-4.29018">
        <ele>48.3</ele>
      </trkpt>
      <trkpt lat="47.89683" lon="-4.28991">
        <ele>47.3</ele>
      </trkpt>
      <trkpt lat="47.89686" lon="-4.28988">
        <ele>47.3</ele>
      </trkpt>
      <trkpt lat="47.89714" lon="-4.28941">
        <ele>47</ele>
      </trkpt>
      <trkpt lat="47.89748" lon="-4.2887">
        <ele>47.9</ele>
      </trkpt>
      <trkpt lat="47.8979" lon="-4.28789">
        <ele>49.1</ele>
      </trkpt>
      <trkpt lat="47.89797" lon="-4.28777">
        <ele>49</ele>
      </trkpt>
      <trkpt lat="47.89818" lon="-4.28736">
        <ele>49.7</ele>
      </trkpt>
      <trkpt lat="47.89846" lon="-4.28684">
        <ele>50.1</ele>
      </trkpt>
      <trkpt lat="47.89863" lon="-4.28661">
        <ele>49.9</ele>
      </trkpt>
      <trkpt lat="47.89879" lon="-4.28638">
        <ele>49.7</ele>
      </trkpt>
      <trkpt lat="47.89905" lon="-4.28602">
        <ele>50.4</ele>
      </trkpt>
      <trkpt lat="47.89946" lon="-4.28545">
        <ele>51</ele>
      </trkpt>
      <trkpt lat="47.89952" lon="-4.28537">
        <ele>51.2</ele>
      </trkpt>
      <trkpt lat="47.90022" lon="-4.28439">
        <ele>53.2</ele>
      </trkpt>
      <trkpt lat="47.90026" lon="-4.28434">
        <ele>53.4</ele>
      </trkpt>
      <trkpt lat="47.9007" lon="-4.28376">
        <ele>56.7</ele>
      </trkpt>
      <trkpt lat="47.9007" lon="-4.28376">
        <ele>56.7</ele>
        <time>2025-04-20T16:19:46.687Z</time>
        <extensions>
          <visugpx:TrkExtension xmlns:visugpx="https://www.visugpx.com/editgpx/">
            <visugpx:node>14</visugpx:node>
            </visugpx:TrkExtension>
        </extensions>
      </trkpt>
      <trkpt lat="47.9007" lon="-4.28376">
        <ele>56.7</ele>
      </trkpt>
      <trkpt lat="47.90072" lon="-4.28373">
        <ele>56.9</ele>
      </trkpt>
      <trkpt lat="47.90103" lon="-4.28334">
        <ele>58</ele>
      </trkpt>
      <trkpt lat="47.90117" lon="-4.28317">
        <ele>59</ele>
      </trkpt>
      <trkpt lat="47.90153" lon="-4.28282">
        <ele>61.5</ele>
      </trkpt>
      <trkpt lat="47.9018" lon="-4.28262">
        <ele>63.2</ele>
      </trkpt>
      <trkpt lat="47.90232" lon="-4.28222">
        <ele>65.7</ele>
      </trkpt>
      <trkpt lat="47.90241" lon="-4.28219">
        <ele>66.4</ele>
      </trkpt>
      <trkpt lat="47.90268" lon="-4.28219">
        <ele>67.6</ele>
      </trkpt>
      <trkpt lat="47.90276" lon="-4.28233">
        <ele>68.7</ele>
      </trkpt>
      <trkpt lat="47.90292" lon="-4.28252">
        <ele>70.6</ele>
      </trkpt>
      <trkpt lat="47.903" lon="-4.28265">
        <ele>71.3</ele>
      </trkpt>
      <trkpt lat="47.90305" lon="-4.28276">
        <ele>71.9</ele>
      </trkpt>
      <trkpt lat="47.90307" lon="-4.28283">
        <ele>72.1</ele>
      </trkpt>
      <trkpt lat="47.90312" lon="-4.28281">
        <ele>72.2</ele>
      </trkpt>
      <trkpt lat="47.9032" lon="-4.28282">
        <ele>72.5</ele>
      </trkpt>
      <trkpt lat="47.90327" lon="-4.28283">
        <ele>72.8</ele>
      </trkpt>
      <trkpt lat="47.90348" lon="-4.28285">
        <ele>73.1</ele>
      </trkpt>
      <trkpt lat="47.90352" lon="-4.28288">
        <ele>73.2</ele>
      </trkpt>
      <trkpt lat="47.90352" lon="-4.28288">
        <ele>73.2</ele>
      </trkpt>
      <trkpt lat="47.90362" lon="-4.2828">
        <ele>73.1</ele>
      </trkpt>
      <trkpt lat="47.90404" lon="-4.28264">
        <ele>72.2</ele>
      </trkpt>
      <trkpt lat="47.90463" lon="-4.28244">
        <ele>71.9</ele>
      </trkpt>
      <trkpt lat="47.90475" lon="-4.28241">
        <ele>72</ele>
      </trkpt>
      <trkpt lat="47.90513" lon="-4.28227">
        <ele>72.5</ele>
      </trkpt>
      <trkpt lat="47.90531" lon="-4.28221">
        <ele>73</ele>
      </trkpt>
      <trkpt lat="47.90592" lon="-4.28197">
        <ele>72.7</ele>
      </trkpt>
      <trkpt lat="47.90617" lon="-4.28184">
        <ele>72</ele>
      </trkpt>
      <trkpt lat="47.90638" lon="-4.28168">
        <ele>72</ele>
      </trkpt>
      <trkpt lat="47.90645" lon="-4.2816">
        <ele>72</ele>
      </trkpt>
      <trkpt lat="47.90659" lon="-4.28137">
        <ele>72</ele>
      </trkpt>
      <trkpt lat="47.90678" lon="-4.28102">
        <ele>72</ele>
      </trkpt>
      <trkpt lat="47.90696" lon="-4.28072">
        <ele>72</ele>
      </trkpt>
      <trkpt lat="47.90704" lon="-4.28063">
        <ele>72</ele>
      </trkpt>
      <trkpt lat="47.90716" lon="-4.28056">
        <ele>72</ele>
      </trkpt>
      <trkpt lat="47.90741" lon="-4.2805">
        <ele>72</ele>
      </trkpt>
      <trkpt lat="47.90786" lon="-4.28042">
        <ele>70.9</ele>
      </trkpt>
      <trkpt lat="47.90809" lon="-4.28041">
        <ele>69.5</ele>
      </trkpt>
      <trkpt lat="47.90842" lon="-4.28042">
        <ele>67.9</ele>
      </trkpt>
      <trkpt lat="47.90875" lon="-4.28052">
        <ele>64.1</ele>
      </trkpt>
      <trkpt lat="47.90882" lon="-4.28054">
        <ele>63.6</ele>
      </trkpt>
      <trkpt lat="47.9092" lon="-4.28071">
        <ele>61.9</ele>
      </trkpt>
      <trkpt lat="47.90951" lon="-4.28089">
        <ele>60.8</ele>
      </trkpt>
      <trkpt lat="47.90975" lon="-4.28099">
        <ele>59.9</ele>
      </trkpt>
      <trkpt lat="47.90984" lon="-4.281">
        <ele>59.7</ele>
      </trkpt>
      <trkpt lat="47.9101" lon="-4.28096">
        <ele>59.4</ele>
      </trkpt>
      <trkpt lat="47.91068" lon="-4.28068">
        <ele>59.3</ele>
      </trkpt>
      <trkpt lat="47.91087" lon="-4.28065">
        <ele>59.1</ele>
      </trkpt>
      <trkpt lat="47.91105" lon="-4.28069">
        <ele>59.4</ele>
      </trkpt>
      <trkpt lat="47.91122" lon="-4.2808">
        <ele>58.7</ele>
      </trkpt>
      <trkpt lat="47.91279" lon="-4.28204">
        <ele>51.3</ele>
      </trkpt>
      <trkpt lat="47.91339" lon="-4.28261">
        <ele>50.7</ele>
      </trkpt>
      <trkpt lat="47.9141" lon="-4.28337">
        <ele>53.9</ele>
      </trkpt>
      <trkpt lat="47.91426" lon="-4.28349">
        <ele>54.7</ele>
      </trkpt>
      <trkpt lat="47.9148" lon="-4.28371">
        <ele>56</ele>
      </trkpt>
      <trkpt lat="47.91515" lon="-4.28378">
        <ele>55.1</ele>
      </trkpt>
      <trkpt lat="47.91521" lon="-4.28378">
        <ele>54.8</ele>
      </trkpt>
      <trkpt lat="47.91569" lon="-4.28371">
        <ele>52.8</ele>
      </trkpt>
      <trkpt lat="47.91775" lon="-4.28328">
        <ele>45.1</ele>
      </trkpt>
      <trkpt lat="47.918" lon="-4.28325">
        <ele>44.2</ele>
      </trkpt>
      <trkpt lat="47.91826" lon="-4.28331">
        <ele>44</ele>
      </trkpt>
      <trkpt lat="47.91847" lon="-4.28342">
        <ele>44</ele>
      </trkpt>
      <trkpt lat="47.91869" lon="-4.28357">
        <ele>44.2</ele>
      </trkpt>
      <trkpt lat="47.91926" lon="-4.28403">
        <ele>46.5</ele>
      </trkpt>
      <trkpt lat="47.91943" lon="-4.28411">
        <ele>47.7</ele>
      </trkpt>
      <trkpt lat="47.91961" lon="-4.28412">
        <ele>49.6</ele>
      </trkpt>
      <trkpt lat="47.91979" lon="-4.28402">
        <ele>51.8</ele>
      </trkpt>
      <trkpt lat="47.9199" lon="-4.2839">
        <ele>53.3</ele>
      </trkpt>
      <trkpt lat="47.92004" lon="-4.28362">
        <ele>53.9</ele>
      </trkpt>
      <trkpt lat="47.9202" lon="-4.28319">
        <ele>56.2</ele>
      </trkpt>
      <trkpt lat="47.92035" lon="-4.28292">
        <ele>57.4</ele>
      </trkpt>
      <trkpt lat="47.92049" lon="-4.28275">
        <ele>58.3</ele>
      </trkpt>
      <trkpt lat="47.92065" lon="-4.28264">
        <ele>59.9</ele>
      </trkpt>
      <trkpt lat="47.92089" lon="-4.28253">
        <ele>61.3</ele>
      </trkpt>
      <trkpt lat="47.92149" lon="-4.28246">
        <ele>62.5</ele>
      </trkpt>
      <trkpt lat="47.9216" lon="-4.28242">
        <ele>62.1</ele>
      </trkpt>
      <trkpt lat="47.92169" lon="-4.28236">
        <ele>61.9</ele>
      </trkpt>
      <trkpt lat="47.92186" lon="-4.28217">
        <ele>61.2</ele>
      </trkpt>
      <trkpt lat="47.92241" lon="-4.28137">
        <ele>57</ele>
      </trkpt>
      <trkpt lat="47.92326" lon="-4.28015">
        <ele>50.6</ele>
      </trkpt>
      <trkpt lat="47.92346" lon="-4.27989">
        <ele>49.5</ele>
      </trkpt>
      <trkpt lat="47.9236" lon="-4.27976">
        <ele>49</ele>
      </trkpt>
      <trkpt lat="47.92369" lon="-4.2797">
        <ele>49.1</ele>
      </trkpt>
      <trkpt lat="47.9239" lon="-4.27962">
        <ele>49</ele>
      </trkpt>
      <trkpt lat="47.92563" lon="-4.27932">
        <ele>48</ele>
      </trkpt>
      <trkpt lat="47.92631" lon="-4.27921">
        <ele>47.9</ele>
      </trkpt>
      <trkpt lat="47.92646" lon="-4.27917">
        <ele>47.7</ele>
      </trkpt>
      <trkpt lat="47.92661" lon="-4.27911">
        <ele>47.2</ele>
      </trkpt>
      <trkpt lat="47.92716" lon="-4.27879">
        <ele>46.6</ele>
      </trkpt>
      <trkpt lat="47.92748" lon="-4.27866">
        <ele>46.7</ele>
      </trkpt>
      <trkpt lat="47.9278" lon="-4.27861">
        <ele>47.1</ele>
      </trkpt>
      <trkpt lat="47.92818" lon="-4.27867">
        <ele>47.9</ele>
      </trkpt>
      <trkpt lat="47.92905" lon="-4.27915">
        <ele>51.2</ele>
      </trkpt>
      <trkpt lat="47.9293" lon="-4.27929">
        <ele>53</ele>
      </trkpt>
      <trkpt lat="47.92974" lon="-4.27943">
        <ele>54.1</ele>
      </trkpt>
      <trkpt lat="47.9318" lon="-4.27987">
        <ele>56.3</ele>
      </trkpt>
      <trkpt lat="47.93357" lon="-4.2802">
        <ele>63.7</ele>
      </trkpt>
      <trkpt lat="47.9337" lon="-4.2802">
        <ele>64.6</ele>
      </trkpt>
      <trkpt lat="47.93391" lon="-4.28017">
        <ele>66.2</ele>
      </trkpt>
      <trkpt lat="47.93426" lon="-4.28005">
        <ele>69.6</ele>
      </trkpt>
      <trkpt lat="47.93459" lon="-4.27993">
        <ele>72.3</ele>
      </trkpt>
      <trkpt lat="47.93495" lon="-4.27976">
        <ele>74.8</ele>
      </trkpt>
      <trkpt lat="47.9354" lon="-4.27954">
        <ele>76.8</ele>
      </trkpt>
      <trkpt lat="47.93576" lon="-4.27944">
        <ele>77</ele>
      </trkpt>
      <trkpt lat="47.93663" lon="-4.27923">
        <ele>75.1</ele>
      </trkpt>
      <trkpt lat="47.93686" lon="-4.27914">
        <ele>75.1</ele>
      </trkpt>
      <trkpt lat="47.93706" lon="-4.27903">
        <ele>75.7</ele>
      </trkpt>
      <trkpt lat="47.93753" lon="-4.27876">
        <ele>76</ele>
      </trkpt>
      <trkpt lat="47.9377" lon="-4.27872">
        <ele>76</ele>
      </trkpt>
      <trkpt lat="47.9379" lon="-4.27871">
        <ele>76</ele>
      </trkpt>
      <trkpt lat="47.93806" lon="-4.27874">
        <ele>76</ele>
      </trkpt>
      <trkpt lat="47.93818" lon="-4.27879">
        <ele>76</ele>
      </trkpt>
      <trkpt lat="47.93887" lon="-4.27938">
        <ele>76.8</ele>
      </trkpt>
      <trkpt lat="47.93952" lon="-4.28007">
        <ele>76.6</ele>
      </trkpt>
      <trkpt lat="47.93961" lon="-4.28016">
        <ele>76</ele>
      </trkpt>
      <trkpt lat="47.93989" lon="-4.28053">
        <ele>73.8</ele>
      </trkpt>
      <trkpt lat="47.94009" lon="-4.28088">
        <ele>72</ele>
      </trkpt>
      <trkpt lat="47.94023" lon="-4.28106">
        <ele>72</ele>
      </trkpt>
      <trkpt lat="47.94118" lon="-4.28196">
        <ele>77.2</ele>
      </trkpt>
      <trkpt lat="47.94171" lon="-4.28249">
        <ele>80.2</ele>
      </trkpt>
      <trkpt lat="47.94306" lon="-4.28377">
        <ele>82</ele>
      </trkpt>
      <trkpt lat="47.94325" lon="-4.28391">
        <ele>81.9</ele>
      </trkpt>
      <trkpt lat="47.94334" lon="-4.28401">
        <ele>81.5</ele>
      </trkpt>
      <trkpt lat="47.94348" lon="-4.28418">
        <ele>80.4</ele>
      </trkpt>
      <trkpt lat="47.94389" lon="-4.2849">
        <ele>78</ele>
      </trkpt>
      <trkpt lat="47.94413" lon="-4.28522">
        <ele>77.1</ele>
      </trkpt>
      <trkpt lat="47.94424" lon="-4.28533">
        <ele>76.8</ele>
      </trkpt>
      <trkpt lat="47.94437" lon="-4.28543">
        <ele>76.7</ele>
      </trkpt>
      <trkpt lat="47.94457" lon="-4.28555">
        <ele>77</ele>
      </trkpt>
      <trkpt lat="47.94515" lon="-4.28586">
        <ele>77</ele>
      </trkpt>
      <trkpt lat="47.94546" lon="-4.28608">
        <ele>77</ele>
      </trkpt>
      <trkpt lat="47.94567" lon="-4.28625">
        <ele>77.2</ele>
      </trkpt>
      <trkpt lat="47.94735" lon="-4.28784">
        <ele>76.6</ele>
      </trkpt>
      <trkpt lat="47.94761" lon="-4.28805">
        <ele>76.8</ele>
      </trkpt>
      <trkpt lat="47.94809" lon="-4.28829">
        <ele>79.1</ele>
      </trkpt>
      <trkpt lat="47.94888" lon="-4.28851">
        <ele>80.4</ele>
      </trkpt>
      <trkpt lat="47.94909" lon="-4.28861">
        <ele>80.7</ele>
      </trkpt>
      <trkpt lat="47.94928" lon="-4.28876">
        <ele>81.4</ele>
      </trkpt>
      <trkpt lat="47.94955" lon="-4.28909">
        <ele>82</ele>
      </trkpt>
      <trkpt lat="47.94974" lon="-4.28946">
        <ele>83.1</ele>
      </trkpt>
      <trkpt lat="47.94997" lon="-4.28997">
        <ele>84.1</ele>
      </trkpt>
      <trkpt lat="47.95054" lon="-4.2913">
        <ele>88.9</ele>
      </trkpt>
      <trkpt lat="47.95072" lon="-4.29166">
        <ele>89.6</ele>
      </trkpt>
      <trkpt lat="47.95093" lon="-4.29197">
        <ele>90</ele>
      </trkpt>
      <trkpt lat="47.95113" lon="-4.29223">
        <ele>90</ele>
      </trkpt>
      <trkpt lat="47.9516" lon="-4.29274">
        <ele>90</ele>
      </trkpt>
      <trkpt lat="47.95181" lon="-4.29295">
        <ele>89.5</ele>
      </trkpt>
      <trkpt lat="47.95317" lon="-4.29425">
        <ele>87.5</ele>
      </trkpt>
      <trkpt lat="47.95344" lon="-4.29437">
        <ele>86.3</ele>
      </trkpt>
      <trkpt lat="47.95382" lon="-4.29439">
        <ele>86.6</ele>
      </trkpt>
      <trkpt lat="47.95408" lon="-4.29443">
        <ele>86.3</ele>
      </trkpt>
      <trkpt lat="47.95434" lon="-4.2945">
        <ele>86.3</ele>
      </trkpt>
      <trkpt lat="47.95481" lon="-4.29458">
        <ele>85.6</ele>
      </trkpt>
      <trkpt lat="47.95505" lon="-4.29466">
        <ele>86.2</ele>
      </trkpt>
      <trkpt lat="47.95533" lon="-4.29481">
        <ele>87.2</ele>
      </trkpt>
      <trkpt lat="47.95577" lon="-4.29511">
        <ele>88.6</ele>
      </trkpt>
      <trkpt lat="47.95598" lon="-4.29529">
        <ele>88.5</ele>
      </trkpt>
      <trkpt lat="47.95637" lon="-4.29558">
        <ele>89.1</ele>
      </trkpt>
      <trkpt lat="47.95661" lon="-4.2957">
        <ele>89.9</ele>
      </trkpt>
      <trkpt lat="47.95741" lon="-4.29589">
        <ele>92.3</ele>
      </trkpt>
      <trkpt lat="47.95752" lon="-4.29592">
        <ele>92.3</ele>
      </trkpt>
      <trkpt lat="47.95793" lon="-4.29597">
        <ele>93.5</ele>
      </trkpt>
      <trkpt lat="47.95838" lon="-4.29596">
        <ele>95.8</ele>
      </trkpt>
      <trkpt lat="47.95838" lon="-4.29596">
        <ele>95.8</ele>
        <time>2025-04-20T16:49:10.890Z</time>
        <extensions>
          <visugpx:TrkExtension xmlns:visugpx="https://www.visugpx.com/editgpx/">
            <visugpx:node>15</visugpx:node>
            </visugpx:TrkExtension>
        </extensions>
      </trkpt>
      <trkpt lat="47.95864" lon="-4.29595">
        <ele>97.1</ele>
        <time>2025-04-20T16:49:18.386Z</time>
      </trkpt>
      <trkpt lat="47.95986" lon="-4.29599">
        <ele>99.6</ele>
        <time>2025-04-20T16:49:43.220Z</time>
      </trkpt>
      <trkpt lat="47.96112" lon="-4.29593">
        <ele>105.3</ele>
        <time>2025-04-20T16:50:17.438Z</time>
      </trkpt>
      <trkpt lat="47.96173" lon="-4.29597">
        <ele>104.8</ele>
        <time>2025-04-20T16:50:26.792Z</time>
      </trkpt>
      <trkpt lat="47.96221" lon="-4.29605">
        <ele>103.6</ele>
        <time>2025-04-20T16:50:33.212Z</time>
      </trkpt>
      <trkpt lat="47.9625" lon="-4.29615">
        <ele>104.9</ele>
        <time>2025-04-20T16:50:41.138Z</time>
      </trkpt>
      <trkpt lat="47.96281" lon="-4.29633">
        <ele>106.6</ele>
        <time>2025-04-20T16:50:50.864Z</time>
      </trkpt>
      <trkpt lat="47.96308" lon="-4.29657">
        <ele>108.7</ele>
        <time>2025-04-20T16:51:02.169Z</time>
      </trkpt>
      <trkpt lat="47.96355" lon="-4.29709">
        <ele>112.7</ele>
        <time>2025-04-20T16:51:23.660Z</time>
      </trkpt>
      <trkpt lat="47.96432" lon="-4.29802">
        <ele>117</ele>
        <time>2025-04-20T16:51:49.949Z</time>
      </trkpt>
      <trkpt lat="47.96455" lon="-4.29818">
        <ele>116.8</ele>
        <time>2025-04-20T16:51:53.847Z</time>
      </trkpt>
      <trkpt lat="47.96464" lon="-4.29806">
        <ele>117</ele>
        <time>2025-04-20T16:51:56.202Z</time>
      </trkpt>
      <trkpt lat="47.96474" lon="-4.29795">
        <ele>117.3</ele>
        <time>2025-04-20T16:51:58.833Z</time>
      </trkpt>
      <trkpt lat="47.96541" lon="-4.29749">
        <ele>116.7</ele>
        <time>2025-04-20T16:52:10.135Z</time>
      </trkpt>
      <trkpt lat="47.96579" lon="-4.29719">
        <ele>116.6</ele>
        <time>2025-04-20T16:52:17.084Z</time>
      </trkpt>
      <trkpt lat="47.96651" lon="-4.29633">
        <ele>116.9</ele>
        <time>2025-04-20T16:52:32.804Z</time>
      </trkpt>
      <trkpt lat="47.96674" lon="-4.29601">
        <ele>117.1</ele>
        <time>2025-04-20T16:52:38.330Z</time>
      </trkpt>
      <trkpt lat="47.96725" lon="-4.29479">
        <ele>116.1</ele>
        <time>2025-04-20T16:52:52.796Z</time>
      </trkpt>
      <trkpt lat="47.96732" lon="-4.29449">
        <ele>116.2</ele>
        <time>2025-04-20T16:52:56.475Z</time>
      </trkpt>
      <trkpt lat="47.96774" lon="-4.29244">
        <ele>113.3</ele>
        <time>2025-04-20T16:53:16.292Z</time>
      </trkpt>
      <trkpt lat="47.96792" lon="-4.29154">
        <ele>112</ele>
        <time>2025-04-20T16:53:24.941Z</time>
      </trkpt>
      <trkpt lat="47.96808" lon="-4.29071">
        <ele>110.9</ele>
        <time>2025-04-20T16:53:33.004Z</time>
      </trkpt>
      <trkpt lat="47.96817" lon="-4.29014">
        <ele>110.1</ele>
        <time>2025-04-20T16:53:38.408Z</time>
      </trkpt>
      <trkpt lat="47.96856" lon="-4.28635">
        <ele>98</ele>
        <time>2025-04-20T16:54:07.295Z</time>
      </trkpt>
      <trkpt lat="47.9687" lon="-4.285">
        <ele>92</ele>
        <time>2025-04-20T16:54:16.426Z</time>
      </trkpt>
      <trkpt lat="47.96874" lon="-4.28474">
        <ele>91.1</ele>
        <time>2025-04-20T16:54:18.391Z</time>
      </trkpt>
      <trkpt lat="47.96889" lon="-4.28423">
        <ele>92.8</ele>
        <time>2025-04-20T16:54:28.561Z</time>
      </trkpt>
      <trkpt lat="47.96919" lon="-4.28335">
        <ele>92.9</ele>
        <time>2025-04-20T16:54:39.647Z</time>
      </trkpt>
      <trkpt lat="47.96925" lon="-4.28311">
        <ele>92.7</ele>
        <time>2025-04-20T16:54:42.195Z</time>
      </trkpt>
      <trkpt lat="47.96928" lon="-4.28285">
        <ele>92.3</ele>
        <time>2025-04-20T16:54:44.585Z</time>
      </trkpt>
      <trkpt lat="47.9693" lon="-4.28248">
        <ele>91</ele>
        <time>2025-04-20T16:54:47.285Z</time>
      </trkpt>
      <trkpt lat="47.96929" lon="-4.28213">
        <ele>90.5</ele>
        <time>2025-04-20T16:54:50.493Z</time>
      </trkpt>
      <trkpt lat="47.96925" lon="-4.2813">
        <ele>87.3</ele>
        <time>2025-04-20T16:54:56.346Z</time>
      </trkpt>
      <trkpt lat="47.96912" lon="-4.28006">
        <ele>85.6</ele>
        <time>2025-04-20T16:55:07.945Z</time>
      </trkpt>
      <trkpt lat="47.96898" lon="-4.27884">
        <ele>84.6</ele>
        <time>2025-04-20T16:55:20.210Z</time>
      </trkpt>
      <trkpt lat="47.96896" lon="-4.27844">
        <ele>84</ele>
        <time>2025-04-20T16:55:23.853Z</time>
      </trkpt>
      <trkpt lat="47.96898" lon="-4.27803">
        <ele>83.7</ele>
        <time>2025-04-20T16:55:27.969Z</time>
      </trkpt>
      <trkpt lat="47.96909" lon="-4.27746">
        <ele>82.5</ele>
        <time>2025-04-20T16:55:33.028Z</time>
      </trkpt>
      <trkpt lat="47.9701" lon="-4.27435">
        <ele>83.1</ele>
        <time>2025-04-20T16:56:12.237Z</time>
      </trkpt>
      <trkpt lat="47.97017" lon="-4.27402">
        <ele>83.8</ele>
        <time>2025-04-20T16:56:17.493Z</time>
      </trkpt>
      <trkpt lat="47.97021" lon="-4.2737">
        <ele>84.3</ele>
        <time>2025-04-20T16:56:22.049Z</time>
      </trkpt>
      <trkpt lat="47.97021" lon="-4.27323">
        <ele>84</ele>
        <time>2025-04-20T16:56:26.812Z</time>
      </trkpt>
      <trkpt lat="47.97008" lon="-4.27093">
        <ele>79.6</ele>
        <time>2025-04-20T16:56:46.767Z</time>
        <extensions>
          <visugpx:TrkExtension xmlns:visugpx="https://www.visugpx.com/editgpx/">
            <visugpx:node>16</visugpx:node>
            </visugpx:TrkExtension>
        </extensions>
      </trkpt>
      <trkpt lat="47.96994" lon="-4.26844">
        <ele>76.2</ele>
        <time>2025-04-20T16:57:09.840Z</time>
      </trkpt>
      <trkpt lat="47.96994" lon="-4.26832">
        <ele>76</ele>
        <time>2025-04-20T16:57:10.908Z</time>
      </trkpt>
      <trkpt lat="47.96984" lon="-4.26682">
        <ele>74.3</ele>
        <time>2025-04-20T16:57:25.241Z</time>
      </trkpt>
      <trkpt lat="47.96971" lon="-4.26431">
        <ele>71.4</ele>
        <time>2025-04-20T16:57:49.104Z</time>
      </trkpt>
      <trkpt lat="47.96969" lon="-4.26389">
        <ele>70.9</ele>
        <time>2025-04-20T16:57:53.078Z</time>
      </trkpt>
      <trkpt lat="47.96969" lon="-4.26351">
        <ele>70.6</ele>
        <time>2025-04-20T16:57:56.852Z</time>
      </trkpt>
      <trkpt lat="47.96976" lon="-4.26256">
        <ele>69.1</ele>
        <time>2025-04-20T16:58:05.454Z</time>
      </trkpt>
      <trkpt lat="47.96982" lon="-4.26212">
        <ele>67.9</ele>
        <time>2025-04-20T16:58:09.015Z</time>
      </trkpt>
      <trkpt lat="47.96994" lon="-4.26173">
        <ele>65.7</ele>
        <time>2025-04-20T16:58:11.864Z</time>
      </trkpt>
      <trkpt lat="47.97011" lon="-4.26135">
        <ele>63.2</ele>
        <time>2025-04-20T16:58:14.898Z</time>
      </trkpt>
      <trkpt lat="47.97022" lon="-4.2611">
        <ele>61.7</ele>
        <time>2025-04-20T16:58:16.884Z</time>
      </trkpt>
      <trkpt lat="47.97048" lon="-4.26051">
        <ele>60</ele>
        <time>2025-04-20T16:58:22.650Z</time>
      </trkpt>
      <trkpt lat="47.97059" lon="-4.26017">
        <ele>59.1</ele>
        <time>2025-04-20T16:58:25.741Z</time>
      </trkpt>
      <trkpt lat="47.97091" lon="-4.25894">
        <ele>54.6</ele>
        <time>2025-04-20T16:58:35.427Z</time>
      </trkpt>
      <trkpt lat="47.97102" lon="-4.25831">
        <ele>50.8</ele>
        <time>2025-04-20T16:58:39.750Z</time>
      </trkpt>
      <trkpt lat="47.97116" lon="-4.25726">
        <ele>54.3</ele>
        <time>2025-04-20T16:59:00.109Z</time>
      </trkpt>
      <trkpt lat="47.97141" lon="-4.25562">
        <ele>58.9</ele>
        <time>2025-04-20T16:59:29.076Z</time>
      </trkpt>
      <trkpt lat="47.97142" lon="-4.25552">
        <ele>59.3</ele>
        <time>2025-04-20T16:59:31.272Z</time>
      </trkpt>
      <trkpt lat="47.97184" lon="-4.25246">
        <ele>71.1</ele>
        <time>2025-04-20T17:00:36.777Z</time>
      </trkpt>
      <trkpt lat="47.97185" lon="-4.25199">
        <ele>73.3</ele>
        <time>2025-04-20T17:00:48.581Z</time>
      </trkpt>
      <trkpt lat="47.97184" lon="-4.25181">
        <ele>74.4</ele>
        <time>2025-04-20T17:00:54.607Z</time>
      </trkpt>
      <trkpt lat="47.97181" lon="-4.25158">
        <ele>76.2</ele>
        <time>2025-04-20T17:01:04.794Z</time>
      </trkpt>
      <trkpt lat="47.97171" lon="-4.25113">
        <ele>78.7</ele>
        <time>2025-04-20T17:01:18.226Z</time>
      </trkpt>
      <trkpt lat="47.97133" lon="-4.24968">
        <ele>80.3</ele>
        <time>2025-04-20T17:01:38.311Z</time>
      </trkpt>
      <trkpt lat="47.97131" lon="-4.24958">
        <ele>80.7</ele>
        <time>2025-04-20T17:01:40.523Z</time>
      </trkpt>
      <trkpt lat="47.97074" lon="-4.24739">
        <ele>90</ele>
        <time>2025-04-20T17:02:31.575Z</time>
      </trkpt>
      <trkpt lat="47.97069" lon="-4.24715">
        <ele>91</ele>
        <time>2025-04-20T17:02:37.058Z</time>
      </trkpt>
      <trkpt lat="47.97064" lon="-4.24676">
        <ele>91.5</ele>
        <time>2025-04-20T17:02:42.371Z</time>
      </trkpt>
      <trkpt lat="47.97064" lon="-4.24641">
        <ele>92</ele>
        <time>2025-04-20T17:02:47.184Z</time>
      </trkpt>
      <trkpt lat="47.97067" lon="-4.24624">
        <ele>92</ele>
        <time>2025-04-20T17:02:49.130Z</time>
      </trkpt>
      <trkpt lat="47.97075" lon="-4.2459">
        <ele>92</ele>
        <time>2025-04-20T17:02:53.117Z</time>
      </trkpt>
      <trkpt lat="47.97108" lon="-4.24507">
        <ele>92</ele>
        <time>2025-04-20T17:03:03.798Z</time>
      </trkpt>
      <trkpt lat="47.97139" lon="-4.24381">
        <ele>91</ele>
        <time>2025-04-20T17:03:17.210Z</time>
      </trkpt>
      <trkpt lat="47.97162" lon="-4.24278">
        <ele>91.7</ele>
        <time>2025-04-20T17:03:30.414Z</time>
      </trkpt>
      <trkpt lat="47.97174" lon="-4.24235">
        <ele>92.1</ele>
        <time>2025-04-20T17:03:36.267Z</time>
      </trkpt>
      <trkpt lat="47.97184" lon="-4.24214">
        <ele>92.6</ele>
        <time>2025-04-20T17:03:40.126Z</time>
      </trkpt>
      <trkpt lat="47.97198" lon="-4.24195">
        <ele>93.1</ele>
        <time>2025-04-20T17:03:44.236Z</time>
      </trkpt>
      <trkpt lat="47.97356" lon="-4.24017">
        <ele>93.8</ele>
        <time>2025-04-20T17:04:18.074Z</time>
      </trkpt>
      <trkpt lat="47.97472" lon="-4.23881">
        <ele>93.4</ele>
        <time>2025-04-20T17:04:41.829Z</time>
      </trkpt>
      <trkpt lat="47.97482" lon="-4.23868">
        <ele>93.5</ele>
        <time>2025-04-20T17:04:44.187Z</time>
      </trkpt>
      <trkpt lat="47.97495" lon="-4.23853">
        <ele>94.2</ele>
        <time>2025-04-20T17:04:48.505Z</time>
      </trkpt>
      <trkpt lat="47.97507" lon="-4.23832">
        <ele>94.7</ele>
        <time>2025-04-20T17:04:52.549Z</time>
      </trkpt>
      <trkpt lat="47.97516" lon="-4.23814">
        <ele>95</ele>
        <time>2025-04-20T17:04:55.592Z</time>
      </trkpt>
      <trkpt lat="47.97548" lon="-4.23705">
        <ele>94.7</ele>
        <time>2025-04-20T17:05:08.303Z</time>
      </trkpt>
      <trkpt lat="47.97631" lon="-4.23422">
        <ele>98.2</ele>
        <time>2025-04-20T17:05:48.818Z</time>
      </trkpt>
      <trkpt lat="47.97636" lon="-4.23398">
        <ele>98.9</ele>
        <time>2025-04-20T17:05:53.186Z</time>
      </trkpt>
      <trkpt lat="47.9764" lon="-4.23377">
        <ele>99.8</ele>
        <time>2025-04-20T17:05:58.087Z</time>
      </trkpt>
      <trkpt lat="47.97642" lon="-4.23336">
        <ele>101.6</ele>
        <time>2025-04-20T17:06:07.800Z</time>
      </trkpt>
      <trkpt lat="47.97639" lon="-4.23292">
        <ele>102</ele>
        <time>2025-04-20T17:06:13.395Z</time>
      </trkpt>
      <trkpt lat="47.97635" lon="-4.23269">
        <ele>102.4</ele>
        <time>2025-04-20T17:06:16.803Z</time>
      </trkpt>
      <trkpt lat="47.97621" lon="-4.23221">
        <ele>103</ele>
        <time>2025-04-20T17:06:23.683Z</time>
      </trkpt>
      <trkpt lat="47.97615" lon="-4.23206">
        <ele>103.2</ele>
        <time>2025-04-20T17:06:25.979Z</time>
      </trkpt>
      <trkpt lat="47.97591" lon="-4.23147">
        <ele>104.7</ele>
        <time>2025-04-20T17:06:36.737Z</time>
      </trkpt>
      <trkpt lat="47.97584" lon="-4.2312">
        <ele>105</ele>
        <time>2025-04-20T17:06:40.476Z</time>
      </trkpt>
      <trkpt lat="47.97579" lon="-4.23093">
        <ele>106</ele>
        <time>2025-04-20T17:06:46.118Z</time>
      </trkpt>
      <trkpt lat="47.97577" lon="-4.23068">
        <ele>106.6</ele>
        <time>2025-04-20T17:06:50.189Z</time>
      </trkpt>
      <trkpt lat="47.97577" lon="-4.23036">
        <ele>107.2</ele>
        <time>2025-04-20T17:06:54.927Z</time>
      </trkpt>
      <trkpt lat="47.97581" lon="-4.22968">
        <ele>107.9</ele>
        <time>2025-04-20T17:07:03.729Z</time>
      </trkpt>
      <trkpt lat="47.9758" lon="-4.22923">
        <ele>106.4</ele>
        <time>2025-04-20T17:07:07.060Z</time>
      </trkpt>
      <trkpt lat="47.97573" lon="-4.22813">
        <ele>104.4</ele>
        <time>2025-04-20T17:07:16.720Z</time>
      </trkpt>
      <trkpt lat="47.97572" lon="-4.22774">
        <ele>103.5</ele>
        <time>2025-04-20T17:07:19.942Z</time>
      </trkpt>
      <trkpt lat="47.97575" lon="-4.22749">
        <ele>102.7</ele>
        <time>2025-04-20T17:07:21.856Z</time>
      </trkpt>
      <trkpt lat="47.97577" lon="-4.22731">
        <ele>102.4</ele>
        <time>2025-04-20T17:07:23.483Z</time>
      </trkpt>
      <trkpt lat="47.97586" lon="-4.22698">
        <ele>101.3</ele>
        <time>2025-04-20T17:07:26.187Z</time>
      </trkpt>
      <trkpt lat="47.97602" lon="-4.22648">
        <ele>101.4</ele>
        <time>2025-04-20T17:07:32.478Z</time>
      </trkpt>
      <trkpt lat="47.97613" lon="-4.2261">
        <ele>101</ele>
        <time>2025-04-20T17:07:36.497Z</time>
      </trkpt>
      <trkpt lat="47.97636" lon="-4.22517">
        <ele>100.3</ele>
        <time>2025-04-20T17:07:46.452Z</time>
      </trkpt>
      <trkpt lat="47.97648" lon="-4.22479">
        <ele>100.3</ele>
        <time>2025-04-20T17:07:51.101Z</time>
      </trkpt>
      <trkpt lat="47.97655" lon="-4.22464">
        <ele>100.1</ele>
        <time>2025-04-20T17:07:52.846Z</time>
      </trkpt>
      <trkpt lat="47.97836" lon="-4.22148">
        <ele>87.9</ele>
        <time>2025-04-20T17:08:24.905Z</time>
      </trkpt>
      <trkpt lat="47.97853" lon="-4.22119">
        <ele>88</ele>
        <time>2025-04-20T17:08:29.331Z</time>
      </trkpt>
      <trkpt lat="47.97876" lon="-4.22071">
        <ele>87.7</ele>
        <time>2025-04-20T17:08:35.418Z</time>
      </trkpt>
      <trkpt lat="47.97883" lon="-4.22051">
        <ele>87.7</ele>
        <time>2025-04-20T17:08:37.914Z</time>
      </trkpt>
      <trkpt lat="47.97903" lon="-4.21987">
        <ele>89.5</ele>
        <time>2025-04-20T17:08:49.675Z</time>
      </trkpt>
      <trkpt lat="47.97914" lon="-4.21948">
        <ele>89.3</ele>
        <time>2025-04-20T17:08:54.059Z</time>
      </trkpt>
      <trkpt lat="47.97919" lon="-4.2192">
        <ele>89</ele>
        <time>2025-04-20T17:08:56.847Z</time>
      </trkpt>
      <trkpt lat="47.97979" lon="-4.21591">
        <ele>87.3</ele>
        <time>2025-04-20T17:09:32.050Z</time>
      </trkpt>
      <trkpt lat="47.97988" lon="-4.21561">
        <ele>87</ele>
        <time>2025-04-20T17:09:35.263Z</time>
      </trkpt>
      <trkpt lat="47.97997" lon="-4.2154">
        <ele>85.5</ele>
        <time>2025-04-20T17:09:36.918Z</time>
      </trkpt>
      <trkpt lat="47.9801" lon="-4.21513">
        <ele>84.8</ele>
        <time>2025-04-20T17:09:39.727Z</time>
      </trkpt>
      <trkpt lat="47.98085" lon="-4.21396">
        <ele>85.1</ele>
        <time>2025-04-20T17:09:58.130Z</time>
      </trkpt>
      <trkpt lat="47.98162" lon="-4.21255">
        <ele>91.8</ele>
        <time>2025-04-20T17:10:35.584Z</time>
      </trkpt>
      <trkpt lat="47.98173" lon="-4.21231">
        <ele>92.1</ele>
        <time>2025-04-20T17:10:39.337Z</time>
      </trkpt>
      <trkpt lat="47.9818" lon="-4.21211">
        <ele>92</ele>
        <time>2025-04-20T17:10:41.685Z</time>
      </trkpt>
      <trkpt lat="47.98187" lon="-4.21184">
        <ele>91.7</ele>
        <time>2025-04-20T17:10:44.470Z</time>
      </trkpt>
      <trkpt lat="47.98191" lon="-4.21154">
        <ele>91.1</ele>
        <time>2025-04-20T17:10:47.096Z</time>
      </trkpt>
      <trkpt lat="47.98191" lon="-4.21137">
        <ele>91.1</ele>
        <time>2025-04-20T17:10:48.977Z</time>
      </trkpt>
      <trkpt lat="47.98188" lon="-4.21106">
        <ele>90.8</ele>
        <time>2025-04-20T17:10:52.020Z</time>
      </trkpt>
      <trkpt lat="47.98176" lon="-4.21046">
        <ele>88</ele>
        <time>2025-04-20T17:10:56.176Z</time>
      </trkpt>
      <trkpt lat="47.98158" lon="-4.20994">
        <ele>89.1</ele>
        <time>2025-04-20T17:11:04.850Z</time>
      </trkpt>
      <trkpt lat="47.98125" lon="-4.20909">
        <ele>92.8</ele>
        <time>2025-04-20T17:11:25.406Z</time>
      </trkpt>
      <trkpt lat="47.98115" lon="-4.2087">
        <ele>93.8</ele>
        <time>2025-04-20T17:11:32.172Z</time>
      </trkpt>
      <trkpt lat="47.98112" lon="-4.20843">
        <ele>94.7</ele>
        <time>2025-04-20T17:11:37.395Z</time>
      </trkpt>
      <trkpt lat="47.98112" lon="-4.20826">
        <ele>95</ele>
        <time>2025-04-20T17:11:39.866Z</time>
      </trkpt>
      <trkpt lat="47.98119" lon="-4.20743">
        <ele>97.3</ele>
        <time>2025-04-20T17:11:54.310Z</time>
      </trkpt>
      <trkpt lat="47.9812" lon="-4.20712">
        <ele>97.3</ele>
        <time>2025-04-20T17:11:57.743Z</time>
      </trkpt>
      <trkpt lat="47.98116" lon="-4.20671">
        <ele>97</ele>
        <time>2025-04-20T17:12:01.893Z</time>
      </trkpt>
      <trkpt lat="47.98111" lon="-4.20653">
        <ele>96.5</ele>
        <time>2025-04-20T17:12:03.456Z</time>
      </trkpt>
      <trkpt lat="47.98094" lon="-4.20619">
        <ele>95.4</ele>
        <time>2025-04-20T17:12:06.849Z</time>
      </trkpt>
      <trkpt lat="47.98072" lon="-4.2059">
        <ele>94.6</ele>
        <time>2025-04-20T17:12:10.674Z</time>
      </trkpt>
      <trkpt lat="47.98048" lon="-4.20565">
        <ele>93.7</ele>
        <time>2025-04-20T17:12:14.385Z</time>
      </trkpt>
      <trkpt lat="47.97986" lon="-4.205">
        <ele>91</ele>
        <time>2025-04-20T17:12:23.642Z</time>
      </trkpt>
      <trkpt lat="47.97961" lon="-4.2047">
        <ele>91</ele>
        <time>2025-04-20T17:12:28.942Z</time>
      </trkpt>
      <trkpt lat="47.97942" lon="-4.20445">
        <ele>90.1</ele>
        <time>2025-04-20T17:12:32.038Z</time>
      </trkpt>
      <trkpt lat="47.97905" lon="-4.20387">
        <ele>90</ele>
        <time>2025-04-20T17:12:40.747Z</time>
      </trkpt>
      <trkpt lat="47.97896" lon="-4.20365">
        <ele>90</ele>
        <time>2025-04-20T17:12:43.599Z</time>
      </trkpt>
      <trkpt lat="47.97892" lon="-4.20346">
        <ele>89.5</ele>
        <time>2025-04-20T17:12:45.206Z</time>
      </trkpt>
      <trkpt lat="47.9789" lon="-4.20328">
        <ele>88.8</ele>
        <time>2025-04-20T17:12:46.490Z</time>
      </trkpt>
      <trkpt lat="47.97892" lon="-4.20302">
        <ele>88.1</ele>
        <time>2025-04-20T17:12:48.564Z</time>
      </trkpt>
      <trkpt lat="47.97898" lon="-4.20272">
        <ele>88.3</ele>
        <time>2025-04-20T17:12:52.368Z</time>
      </trkpt>
      <trkpt lat="47.97908" lon="-4.20232">
        <ele>88.7</ele>
        <time>2025-04-20T17:12:57.797Z</time>
      </trkpt>
      <trkpt lat="47.9792" lon="-4.20189">
        <ele>90.1</ele>
        <time>2025-04-20T17:13:06.228Z</time>
      </trkpt>
      <trkpt lat="47.97926" lon="-4.20155">
        <ele>90.3</ele>
        <time>2025-04-20T17:13:10.455Z</time>
      </trkpt>
      <trkpt lat="47.97928" lon="-4.20116">
        <ele>90.4</ele>
        <time>2025-04-20T17:13:14.944Z</time>
      </trkpt>
      <trkpt lat="47.97926" lon="-4.20077">
        <ele>90</ele>
        <time>2025-04-20T17:13:18.713Z</time>
      </trkpt>
      <trkpt lat="47.97924" lon="-4.19996">
        <ele>88.8</ele>
        <time>2025-04-20T17:13:26.086Z</time>
      </trkpt>
      <trkpt lat="47.97921" lon="-4.19977">
        <ele>87.5</ele>
        <time>2025-04-20T17:13:27.382Z</time>
      </trkpt>
      <trkpt lat="47.97917" lon="-4.1996">
        <ele>86.6</ele>
        <time>2025-04-20T17:13:28.578Z</time>
      </trkpt>
      <trkpt lat="47.9791" lon="-4.19943">
        <ele>86.1</ele>
        <time>2025-04-20T17:13:30.189Z</time>
      </trkpt>
      <trkpt lat="47.979" lon="-4.19925">
        <ele>85.2</ele>
        <time>2025-04-20T17:13:31.834Z</time>
      </trkpt>
      <trkpt lat="47.97876" lon="-4.19895">
        <ele>83.1</ele>
        <time>2025-04-20T17:13:34.937Z</time>
      </trkpt>
      <trkpt lat="47.97851" lon="-4.19858">
        <ele>80.5</ele>
        <time>2025-04-20T17:13:38.426Z</time>
      </trkpt>
      <trkpt lat="47.97843" lon="-4.19839">
        <ele>79.8</ele>
        <time>2025-04-20T17:13:40.123Z</time>
      </trkpt>
      <trkpt lat="47.97837" lon="-4.19823">
        <ele>80.6</ele>
        <time>2025-04-20T17:13:44.442Z</time>
      </trkpt>
      <trkpt lat="47.9783" lon="-4.19798">
        <ele>82.4</ele>
        <time>2025-04-20T17:13:54.471Z</time>
      </trkpt>
      <trkpt lat="47.97828" lon="-4.19755">
        <ele>86.5</ele>
        <time>2025-04-20T17:14:14.908Z</time>
      </trkpt>
      <trkpt lat="47.9786" lon="-4.19357">
        <ele>90.8</ele>
        <time>2025-04-20T17:15:06.975Z</time>
      </trkpt>
      <trkpt lat="47.97866" lon="-4.19285">
        <ele>88.4</ele>
        <time>2025-04-20T17:15:12.355Z</time>
      </trkpt>
      <trkpt lat="47.97868" lon="-4.19242">
        <ele>87.2</ele>
        <time>2025-04-20T17:15:15.731Z</time>
      </trkpt>
      <trkpt lat="47.97871" lon="-4.19159">
        <ele>88.1</ele>
        <time>2025-04-20T17:15:26.545Z</time>
      </trkpt>
      <trkpt lat="47.97874" lon="-4.19118">
        <ele>89.2</ele>
        <time>2025-04-20T17:15:33.560Z</time>
        <extensions>
          <visugpx:TrkExtension xmlns:visugpx="https://www.visugpx.com/editgpx/">
            <visugpx:node>17</visugpx:node>
            </visugpx:TrkExtension>
        </extensions>
      </trkpt>
      <trkpt lat="47.97888" lon="-4.18932">
        <ele>90</ele>
        <time>2025-04-20T17:15:55.591Z</time>
      </trkpt>
      <trkpt lat="47.97889" lon="-4.18912">
        <ele>90</ele>
        <time>2025-04-20T17:15:57.810Z</time>
      </trkpt>
      <trkpt lat="47.97892" lon="-4.18866">
        <ele>89.2</ele>
        <time>2025-04-20T17:16:01.888Z</time>
      </trkpt>
      <trkpt lat="47.97891" lon="-4.18843">
        <ele>89</ele>
        <time>2025-04-20T17:16:04.154Z</time>
      </trkpt>
      <trkpt lat="47.97884" lon="-4.18832">
        <ele>89</ele>
        <time>2025-04-20T17:16:05.833Z</time>
      </trkpt>
      <trkpt lat="47.97881" lon="-4.18817">
        <ele>88.8</ele>
        <time>2025-04-20T17:16:07.293Z</time>
      </trkpt>
      <trkpt lat="47.97881" lon="-4.18809">
        <ele>88.8</ele>
        <time>2025-04-20T17:16:08.179Z</time>
      </trkpt>
      <trkpt lat="47.97885" lon="-4.18799">
        <ele>88.6</ele>
        <time>2025-04-20T17:16:09.208Z</time>
      </trkpt>
      <trkpt lat="47.97893" lon="-4.18789">
        <ele>88.5</ele>
        <time>2025-04-20T17:16:10.786Z</time>
      </trkpt>
      <trkpt lat="47.97902" lon="-4.18785">
        <ele>88.6</ele>
        <time>2025-04-20T17:16:12.510Z</time>
      </trkpt>
      <trkpt lat="47.97911" lon="-4.18789">
        <ele>88.9</ele>
        <time>2025-04-20T17:16:14.683Z</time>
      </trkpt>
      <trkpt lat="47.97919" lon="-4.18799">
        <ele>89</ele>
        <time>2025-04-20T17:16:16.577Z</time>
      </trkpt>
      <trkpt lat="47.97935" lon="-4.18805">
        <ele>89</ele>
        <time>2025-04-20T17:16:19.303Z</time>
      </trkpt>
      <trkpt lat="47.98008" lon="-4.188">
        <ele>88.2</ele>
        <time>2025-04-20T17:16:30.226Z</time>
      </trkpt>
      <trkpt lat="47.9813" lon="-4.18784">
        <ele>89.3</ele>
        <time>2025-04-20T17:16:52.326Z</time>
      </trkpt>
      <trkpt lat="47.9824" lon="-4.18779">
        <ele>92</ele>
        <time>2025-04-20T17:17:15.738Z</time>
      </trkpt>
      <trkpt lat="47.98321" lon="-4.18783">
        <ele>94.1</ele>
        <time>2025-04-20T17:17:33.246Z</time>
      </trkpt>
      <trkpt lat="47.98628" lon="-4.18812">
        <ele>102.1</ele>
        <time>2025-04-20T17:18:39.771Z</time>
      </trkpt>
      <trkpt lat="47.98661" lon="-4.18813">
        <ele>102.9</ele>
        <time>2025-04-20T17:18:46.770Z</time>
      </trkpt>
      <trkpt lat="47.98829" lon="-4.18805">
        <ele>105.8</ele>
        <time>2025-04-20T17:19:19.811Z</time>
      </trkpt>
      <trkpt lat="47.98859" lon="-4.18797">
        <ele>106.3</ele>
        <time>2025-04-20T17:19:25.748Z</time>
      </trkpt>
      <trkpt lat="47.98864" lon="-4.18787">
        <ele>106.7</ele>
        <time>2025-04-20T17:19:28.093Z</time>
      </trkpt>
      <trkpt lat="47.98868" lon="-4.18785">
        <ele>106.7</ele>
        <time>2025-04-20T17:19:28.790Z</time>
      </trkpt>
      <trkpt lat="47.98883" lon="-4.18754">
        <ele>107.7</ele>
        <time>2025-04-20T17:19:35.234Z</time>
      </trkpt>
      <trkpt lat="47.98884" lon="-4.18751">
        <ele>107.8</ele>
        <time>2025-04-20T17:19:35.838Z</time>
      </trkpt>
      <trkpt lat="47.98903" lon="-4.18697">
        <ele>110.4</ele>
        <time>2025-04-20T17:19:49.918Z</time>
      </trkpt>
      <trkpt lat="47.98922" lon="-4.18626">
        <ele>111</ele>
        <time>2025-04-20T17:19:59.413Z</time>
      </trkpt>
      <trkpt lat="47.98934" lon="-4.1858">
        <ele>110.5</ele>
        <time>2025-04-20T17:20:04.175Z</time>
      </trkpt>
      <trkpt lat="47.98938" lon="-4.18554">
        <ele>109.2</ele>
        <time>2025-04-20T17:20:05.946Z</time>
      </trkpt>
      <trkpt lat="47.98947" lon="-4.18531">
        <ele>108.2</ele>
        <time>2025-04-20T17:20:07.835Z</time>
      </trkpt>
      <trkpt lat="47.98964" lon="-4.18465">
        <ele>105</ele>
        <time>2025-04-20T17:20:12.528Z</time>
      </trkpt>
      <trkpt lat="47.98971" lon="-4.18439">
        <ele>102.8</ele>
        <time>2025-04-20T17:20:14.388Z</time>
      </trkpt>
      <trkpt lat="47.98973" lon="-4.18425">
        <ele>102.3</ele>
        <time>2025-04-20T17:20:15.430Z</time>
      </trkpt>
      <trkpt lat="47.98973" lon="-4.18415">
        <ele>101.9</ele>
        <time>2025-04-20T17:20:16.122Z</time>
      </trkpt>
      <trkpt lat="47.98966" lon="-4.18398">
        <ele>101.1</ele>
        <time>2025-04-20T17:20:17.504Z</time>
      </trkpt>
      <trkpt lat="47.98974" lon="-4.18393">
        <ele>101.2</ele>
        <time>2025-04-20T17:20:19.110Z</time>
      </trkpt>
      <trkpt lat="47.98981" lon="-4.18383">
        <ele>101.1</ele>
        <time>2025-04-20T17:20:20.565Z</time>
      </trkpt>
      <trkpt lat="47.98985" lon="-4.18372">
        <ele>100.9</ele>
        <time>2025-04-20T17:20:21.688Z</time>
      </trkpt>
      <trkpt lat="47.99" lon="-4.18304">
        <ele>99.9</ele>
        <time>2025-04-20T17:20:28.267Z</time>
      </trkpt>
      <trkpt lat="47.99018" lon="-4.18234">
        <ele>99.9</ele>
        <time>2025-04-20T17:20:36.561Z</time>
      </trkpt>
      <trkpt lat="47.991" lon="-4.1802">
        <ele>103.5</ele>
        <time>2025-04-20T17:21:10.635Z</time>
      </trkpt>
      <trkpt lat="47.99126" lon="-4.17932">
        <ele>105.2</ele>
        <time>2025-04-20T17:21:24.620Z</time>
      </trkpt>
      <trkpt lat="47.99145" lon="-4.17888">
        <ele>105</ele>
        <time>2025-04-20T17:21:30.111Z</time>
        <extensions>
          <visugpx:TrkExtension xmlns:visugpx="https://www.visugpx.com/editgpx/">
            <visugpx:node>18</visugpx:node>
            </visugpx:TrkExtension>
        </extensions>
      </trkpt>
      <trkpt lat="47.99149" lon="-4.17878">
        <ele>104.9</ele>
        <time>2025-04-20T17:21:31.257Z</time>
      </trkpt>
      <trkpt lat="47.99176" lon="-4.17825">
        <ele>104.3</ele>
        <time>2025-04-20T17:21:37.775Z</time>
      </trkpt>
      <trkpt lat="47.99236" lon="-4.17703">
        <ele>100.8</ele>
        <time>2025-04-20T17:21:50.260Z</time>
      </trkpt>
      <trkpt lat="47.9928" lon="-4.176">
        <ele>92.6</ele>
        <time>2025-04-20T17:21:58.369Z</time>
      </trkpt>
      <trkpt lat="47.993" lon="-4.17548">
        <ele>89.9</ele>
        <time>2025-04-20T17:22:02.349Z</time>
      </trkpt>
      <trkpt lat="47.9939" lon="-4.17379">
        <ele>92.3</ele>
        <time>2025-04-20T17:22:30.567Z</time>
      </trkpt>
      <trkpt lat="47.99427" lon="-4.17325">
        <ele>94.9</ele>
        <time>2025-04-20T17:22:45.529Z</time>
      </trkpt>
      <trkpt lat="47.99457" lon="-4.17281">
        <ele>97</ele>
        <time>2025-04-20T17:22:57.641Z</time>
      </trkpt>
      <trkpt lat="47.99549" lon="-4.17182">
        <ele>100.5</ele>
        <time>2025-04-20T17:23:23.552Z</time>
      </trkpt>
      <trkpt lat="47.99671" lon="-4.17044">
        <ele>101.1</ele>
        <time>2025-04-20T17:23:49.812Z</time>
      </trkpt>
      <trkpt lat="47.99696" lon="-4.17007">
        <ele>101</ele>
        <time>2025-04-20T17:23:55.473Z</time>
      </trkpt>
      <trkpt lat="47.99713" lon="-4.16976">
        <ele>100.1</ele>
        <time>2025-04-20T17:23:58.803Z</time>
      </trkpt>
      <trkpt lat="47.99733" lon="-4.16932">
        <ele>100.1</ele>
        <time>2025-04-20T17:24:04.685Z</time>
      </trkpt>
      <trkpt lat="47.99751" lon="-4.16879">
        <ele>101.1</ele>
        <time>2025-04-20T17:24:13.204Z</time>
      </trkpt>
      <trkpt lat="47.99758" lon="-4.16851">
        <ele>102.5</ele>
        <time>2025-04-20T17:24:20.715Z</time>
      </trkpt>
      <trkpt lat="47.99779" lon="-4.16725">
        <ele>108</ele>
        <time>2025-04-20T17:24:50.525Z</time>
      </trkpt>
      <trkpt lat="47.99789" lon="-4.16688">
        <ele>109.3</ele>
        <time>2025-04-20T17:24:58.096Z</time>
      </trkpt>
      <trkpt lat="47.99804" lon="-4.16651">
        <ele>108.8</ele>
        <time>2025-04-20T17:25:02.192Z</time>
      </trkpt>
      <trkpt lat="47.99835" lon="-4.16592">
        <ele>106.7</ele>
        <time>2025-04-20T17:25:08.054Z</time>
      </trkpt>
      <trkpt lat="47.99851" lon="-4.16561">
        <ele>106.2</ele>
        <time>2025-04-20T17:25:11.705Z</time>
      </trkpt>
      <trkpt lat="47.99861" lon="-4.16532">
        <ele>105.2</ele>
        <time>2025-04-20T17:25:14.184Z</time>
      </trkpt>
      <trkpt lat="47.99893" lon="-4.1639">
        <ele>103.3</ele>
        <time>2025-04-20T17:25:28.172Z</time>
      </trkpt>
      <trkpt lat="47.99898" lon="-4.16375">
        <ele>103.3</ele>
        <time>2025-04-20T17:25:30.025Z</time>
      </trkpt>
      <trkpt lat="47.99903" lon="-4.16367">
        <ele>103.6</ele>
        <time>2025-04-20T17:25:31.912Z</time>
      </trkpt>
      <trkpt lat="47.99907" lon="-4.16365">
        <ele>104</ele>
        <time>2025-04-20T17:25:34.121Z</time>
      </trkpt>
      <trkpt lat="47.9991" lon="-4.16282">
        <ele>103.5</ele>
        <time>2025-04-20T17:25:42.580Z</time>
      </trkpt>
      <trkpt lat="47.99917" lon="-4.16187">
        <ele>100.5</ele>
        <time>2025-04-20T17:25:49.787Z</time>
      </trkpt>
      <trkpt lat="47.9992" lon="-4.16149">
        <ele>99</ele>
        <time>2025-04-20T17:25:52.457Z</time>
      </trkpt>
      <trkpt lat="47.99926" lon="-4.16117">
        <ele>98.1</ele>
        <time>2025-04-20T17:25:55.080Z</time>
      </trkpt>
      <trkpt lat="47.99938" lon="-4.1608">
        <ele>96</ele>
        <time>2025-04-20T17:25:57.808Z</time>
      </trkpt>
      <trkpt lat="47.99955" lon="-4.16046">
        <ele>94.7</ele>
        <time>2025-04-20T17:26:01.034Z</time>
      </trkpt>
      <trkpt lat="47.99984" lon="-4.16002">
        <ele>92.5</ele>
        <time>2025-04-20T17:26:05.495Z</time>
      </trkpt>
      <trkpt lat="48.00015" lon="-4.15965">
        <ele>90.1</ele>
        <time>2025-04-20T17:26:09.582Z</time>
      </trkpt>
      <trkpt lat="48.00091" lon="-4.15888">
        <ele>86.5</ele>
        <time>2025-04-20T17:26:20.512Z</time>
      </trkpt>
      <trkpt lat="48.00106" lon="-4.15871">
        <ele>85.7</ele>
        <time>2025-04-20T17:26:22.700Z</time>
      </trkpt>
      <trkpt lat="48.00109" lon="-4.15867">
        <ele>85.5</ele>
        <time>2025-04-20T17:26:23.144Z</time>
        <extensions>
          <visugpx:TrkExtension xmlns:visugpx="https://www.visugpx.com/editgpx/">
            <visugpx:node>19</visugpx:node>
            </visugpx:TrkExtension>
        </extensions>
      </trkpt>
      <trkpt lat="48.00115" lon="-4.15859">
        <ele>85.1</ele>
        <time>2025-04-20T17:26:24.033Z</time>
      </trkpt>
      <trkpt lat="48.00132" lon="-4.1583">
        <ele>85.7</ele>
        <time>2025-04-20T17:26:29.444Z</time>
      </trkpt>
      <trkpt lat="48.00144" lon="-4.15798">
        <ele>85.9</ele>
        <time>2025-04-20T17:26:33.837Z</time>
      </trkpt>
      <trkpt lat="48.00152" lon="-4.15763">
        <ele>87.3</ele>
        <time>2025-04-20T17:26:41.603Z</time>
      </trkpt>
      <trkpt lat="48.00151" lon="-4.15742">
        <ele>88.3</ele>
        <time>2025-04-20T17:26:46.965Z</time>
      </trkpt>
      <trkpt lat="48.00144" lon="-4.15727">
        <ele>88.8</ele>
        <time>2025-04-20T17:26:50.113Z</time>
      </trkpt>
      <trkpt lat="48.00142" lon="-4.15718">
        <ele>89</ele>
        <time>2025-04-20T17:26:51.574Z</time>
      </trkpt>
      <trkpt lat="48.00142" lon="-4.157">
        <ele>89</ele>
        <time>2025-04-20T17:26:53.565Z</time>
      </trkpt>
      <trkpt lat="48.00145" lon="-4.15689">
        <ele>89</ele>
        <time>2025-04-20T17:26:54.878Z</time>
      </trkpt>
      <trkpt lat="48.00149" lon="-4.15679">
        <ele>89</ele>
        <time>2025-04-20T17:26:56.167Z</time>
      </trkpt>
      <trkpt lat="48.00154" lon="-4.15672">
        <ele>89</ele>
        <time>2025-04-20T17:26:57.299Z</time>
      </trkpt>
      <trkpt lat="48.00165" lon="-4.15664">
        <ele>89.5</ele>
        <time>2025-04-20T17:27:00.447Z</time>
      </trkpt>
      <trkpt lat="48.0017" lon="-4.15663">
        <ele>89.6</ele>
        <time>2025-04-20T17:27:01.466Z</time>
      </trkpt>
      <trkpt lat="48.00176" lon="-4.15652">
        <ele>91.1</ele>
        <time>2025-04-20T17:27:08.192Z</time>
      </trkpt>
      <trkpt lat="48.00181" lon="-4.15639">
        <ele>92.4</ele>
        <time>2025-04-20T17:27:15.258Z</time>
      </trkpt>
      <trkpt lat="48.00181" lon="-4.15622">
        <ele>92.8</ele>
        <time>2025-04-20T17:27:17.991Z</time>
      </trkpt>
      <trkpt lat="48.00178" lon="-4.15609">
        <ele>93.2</ele>
        <time>2025-04-20T17:27:20.435Z</time>
      </trkpt>
      <trkpt lat="48.00161" lon="-4.15578">
        <ele>92.3</ele>
        <time>2025-04-20T17:27:23.765Z</time>
      </trkpt>
      <trkpt lat="48.00126" lon="-4.15527">
        <ele>93</ele>
        <time>2025-04-20T17:27:33.082Z</time>
      </trkpt>
      <trkpt lat="48.00111" lon="-4.15503">
        <ele>93</ele>
        <time>2025-04-20T17:27:36.714Z</time>
      </trkpt>
      <trkpt lat="48.00102" lon="-4.15484">
        <ele>93.5</ele>
        <time>2025-04-20T17:27:40.325Z</time>
      </trkpt>
      <trkpt lat="48.00092" lon="-4.15453">
        <ele>94.8</ele>
        <time>2025-04-20T17:27:47.540Z</time>
      </trkpt>
      <trkpt lat="48.00089" lon="-4.15435">
        <ele>95.1</ele>
        <time>2025-04-20T17:27:50.170Z</time>
      </trkpt>
      <trkpt lat="48.00086" lon="-4.15415">
        <ele>95.1</ele>
        <time>2025-04-20T17:27:52.437Z</time>
      </trkpt>
      <trkpt lat="48.00086" lon="-4.15337">
        <ele>97.7</ele>
        <time>2025-04-20T17:28:07.448Z</time>
      </trkpt>
      <trkpt lat="48.00084" lon="-4.15294">
        <ele>98.4</ele>
        <time>2025-04-20T17:28:13.566Z</time>
      </trkpt>
      <trkpt lat="48.00079" lon="-4.15226">
        <ele>100</ele>
        <time>2025-04-20T17:28:24.537Z</time>
      </trkpt>
      <trkpt lat="48.00077" lon="-4.15215">
        <ele>100.2</ele>
        <time>2025-04-20T17:28:26.191Z</time>
      </trkpt>
      <trkpt lat="48.0007" lon="-4.15205">
        <ele>100.5</ele>
        <time>2025-04-20T17:28:28.407Z</time>
      </trkpt>
      <trkpt lat="48.00061" lon="-4.15201">
        <ele>100.8</ele>
        <time>2025-04-20T17:28:30.580Z</time>
      </trkpt>
      <trkpt lat="48.00057" lon="-4.15196">
        <ele>100.9</ele>
        <time>2025-04-20T17:28:31.626Z</time>
      </trkpt>
      <trkpt lat="48.00054" lon="-4.15183">
        <ele>100.9</ele>
        <time>2025-04-20T17:28:33.147Z</time>
      </trkpt>
      <trkpt lat="48.00054" lon="-4.15176">
        <ele>100.9</ele>
        <time>2025-04-20T17:28:33.921Z</time>
      </trkpt>
      <trkpt lat="48.00057" lon="-4.15167">
        <ele>101</ele>
        <time>2025-04-20T17:28:35.210Z</time>
      </trkpt>
      <trkpt lat="48.00062" lon="-4.1516">
        <ele>101</ele>
        <time>2025-04-20T17:28:36.343Z</time>
      </trkpt>
      <trkpt lat="48.00064" lon="-4.15137">
        <ele>101</ele>
        <time>2025-04-20T17:28:38.907Z</time>
      </trkpt>
      <trkpt lat="48.00063" lon="-4.15122">
        <ele>101</ele>
        <time>2025-04-20T17:28:40.574Z</time>
      </trkpt>
      <trkpt lat="48.00043" lon="-4.14975">
        <ele>101</ele>
        <time>2025-04-20T17:28:57.163Z</time>
      </trkpt>
      <trkpt lat="48.0004" lon="-4.14959">
        <ele>101</ele>
        <time>2025-04-20T17:28:59.000Z</time>
      </trkpt>
      <trkpt lat="48.00032" lon="-4.14931">
        <ele>100.6</ele>
        <time>2025-04-20T17:29:01.826Z</time>
      </trkpt>
      <trkpt lat="48.00019" lon="-4.14908">
        <ele>97.6</ele>
        <time>2025-04-20T17:29:03.824Z</time>
      </trkpt>
      <trkpt lat="48.00005" lon="-4.14884">
        <ele>94</ele>
        <time>2025-04-20T17:29:05.936Z</time>
      </trkpt>
      <trkpt lat="47.99985" lon="-4.14857">
        <ele>96.3</ele>
        <time>2025-04-20T17:29:18.403Z</time>
      </trkpt>
      <trkpt lat="47.99951" lon="-4.14824">
        <ele>98.5</ele>
        <time>2025-04-20T17:29:30.750Z</time>
      </trkpt>
      <trkpt lat="47.99944" lon="-4.14827">
        <ele>98.2</ele>
        <time>2025-04-20T17:29:31.604Z</time>
      </trkpt>
      <trkpt lat="47.99938" lon="-4.14827">
        <ele>98</ele>
        <time>2025-04-20T17:29:32.350Z</time>
      </trkpt>
      <trkpt lat="47.99932" lon="-4.14824">
        <ele>97.9</ele>
        <time>2025-04-20T17:29:33.257Z</time>
      </trkpt>
      <trkpt lat="47.99926" lon="-4.14818">
        <ele>97.9</ele>
        <time>2025-04-20T17:29:34.450Z</time>
      </trkpt>
      <trkpt lat="47.99922" lon="-4.14811">
        <ele>98</ele>
        <time>2025-04-20T17:29:35.648Z</time>
      </trkpt>
      <trkpt lat="47.99919" lon="-4.14796">
        <ele>98.1</ele>
        <time>2025-04-20T17:29:37.549Z</time>
      </trkpt>
      <trkpt lat="47.99919" lon="-4.14788">
        <ele>98.1</ele>
        <time>2025-04-20T17:29:38.433Z</time>
      </trkpt>
      <trkpt lat="47.99921" lon="-4.14778">
        <ele>98.2</ele>
        <time>2025-04-20T17:29:39.765Z</time>
      </trkpt>
      <trkpt lat="47.99926" lon="-4.1477">
        <ele>98.2</ele>
        <time>2025-04-20T17:29:40.975Z</time>
      </trkpt>
      <trkpt lat="47.99931" lon="-4.14764">
        <ele>98.3</ele>
        <time>2025-04-20T17:29:42.214Z</time>
      </trkpt>
      <trkpt lat="47.99938" lon="-4.14761">
        <ele>98.3</ele>
        <time>2025-04-20T17:29:43.417Z</time>
      </trkpt>
      <trkpt lat="47.99946" lon="-4.14742">
        <ele>98.3</ele>
        <time>2025-04-20T17:29:45.900Z</time>
      </trkpt>
      <trkpt lat="47.99957" lon="-4.1471">
        <ele>99.2</ele>
        <time>2025-04-20T17:29:51.839Z</time>
      </trkpt>
      <trkpt lat="47.9997" lon="-4.14643">
        <ele>98.2</ele>
        <time>2025-04-20T17:29:58.218Z</time>
      </trkpt>
      <trkpt lat="47.99974" lon="-4.14612">
        <ele>97</ele>
        <time>2025-04-20T17:30:00.446Z</time>
      </trkpt>
      <trkpt lat="47.99975" lon="-4.14587">
        <ele>96.9</ele>
        <time>2025-04-20T17:30:03.066Z</time>
      </trkpt>
      <trkpt lat="47.99974" lon="-4.14558">
        <ele>96</ele>
        <time>2025-04-20T17:30:05.265Z</time>
      </trkpt>
      <trkpt lat="47.9997" lon="-4.14526">
        <ele>95.2</ele>
        <time>2025-04-20T17:30:07.905Z</time>
      </trkpt>
      <trkpt lat="47.99924" lon="-4.14306">
        <ele>91</ele>
        <time>2025-04-20T17:30:28.017Z</time>
      </trkpt>
      <trkpt lat="47.99915" lon="-4.1426">
        <ele>90</ele>
        <time>2025-04-20T17:30:32.071Z</time>
      </trkpt>
      <trkpt lat="47.99911" lon="-4.14231">
        <ele>89.3</ele>
        <time>2025-04-20T17:30:34.498Z</time>
      </trkpt>
      <trkpt lat="47.99907" lon="-4.1418">
        <ele>89</ele>
        <time>2025-04-20T17:30:39.736Z</time>
      </trkpt>
      <trkpt lat="47.99904" lon="-4.14112">
        <ele>89.5</ele>
        <time>2025-04-20T17:30:48.132Z</time>
      </trkpt>
      <trkpt lat="47.99903" lon="-4.14063">
        <ele>89</ele>
        <time>2025-04-20T17:30:52.855Z</time>
      </trkpt>
      <trkpt lat="47.99903" lon="-4.14035">
        <ele>89.4</ele>
        <time>2025-04-20T17:30:56.704Z</time>
      </trkpt>
      <trkpt lat="47.99906" lon="-4.13939">
        <ele>89.5</ele>
        <time>2025-04-20T17:31:07.491Z</time>
      </trkpt>
      <trkpt lat="47.99914" lon="-4.13792">
        <ele>85.7</ele>
        <time>2025-04-20T17:31:19.299Z</time>
      </trkpt>
      <trkpt lat="47.99913" lon="-4.13738">
        <ele>84.8</ele>
        <time>2025-04-20T17:31:24.101Z</time>
      </trkpt>
      <trkpt lat="47.99912" lon="-4.1373">
        <ele>84.6</ele>
        <time>2025-04-20T17:31:24.761Z</time>
      </trkpt>
      <trkpt lat="47.99909" lon="-4.13679">
        <ele>83.1</ele>
        <time>2025-04-20T17:31:28.707Z</time>
      </trkpt>
      <trkpt lat="47.99894" lon="-4.13522">
        <ele>81.8</ele>
        <time>2025-04-20T17:31:44.388Z</time>
      </trkpt>
      <trkpt lat="47.99893" lon="-4.13496">
        <ele>81.8</ele>
        <time>2025-04-20T17:31:47.268Z</time>
      </trkpt>
      <trkpt lat="47.99894" lon="-4.13472">
        <ele>82.3</ele>
        <time>2025-04-20T17:31:50.954Z</time>
      </trkpt>
      <trkpt lat="47.99898" lon="-4.1345">
        <ele>81.4</ele>
        <time>2025-04-20T17:31:52.540Z</time>
      </trkpt>
      <trkpt lat="47.99919" lon="-4.13382">
        <ele>80.7</ele>
        <time>2025-04-20T17:31:59.835Z</time>
      </trkpt>
      <trkpt lat="47.99924" lon="-4.13354">
        <ele>80</ele>
        <time>2025-04-20T17:32:02.197Z</time>
      </trkpt>
      <trkpt lat="47.99924" lon="-4.13337">
        <ele>79.7</ele>
        <time>2025-04-20T17:32:03.691Z</time>
      </trkpt>
      <trkpt lat="47.99921" lon="-4.13321">
        <ele>79.6</ele>
        <time>2025-04-20T17:32:05.382Z</time>
      </trkpt>
      <trkpt lat="47.99916" lon="-4.13305">
        <ele>80</ele>
        <time>2025-04-20T17:32:08.177Z</time>
      </trkpt>
      <trkpt lat="47.99884" lon="-4.13224">
        <ele>77.9</ele>
        <time>2025-04-20T17:32:16.003Z</time>
      </trkpt>
      <trkpt lat="47.9988" lon="-4.13205">
        <ele>77.3</ele>
        <time>2025-04-20T17:32:17.525Z</time>
      </trkpt>
      <trkpt lat="47.99879" lon="-4.13188">
        <ele>77</ele>
        <time>2025-04-20T17:32:19.026Z</time>
      </trkpt>
      <trkpt lat="47.99882" lon="-4.1317">
        <ele>76.6</ele>
        <time>2025-04-20T17:32:20.582Z</time>
      </trkpt>
      <trkpt lat="47.99886" lon="-4.13159">
        <ele>76</ele>
        <time>2025-04-20T17:32:21.413Z</time>
      </trkpt>
      <trkpt lat="47.99914" lon="-4.13094">
        <ele>74</ele>
        <time>2025-04-20T17:32:27.595Z</time>
      </trkpt>
      <trkpt lat="47.99927" lon="-4.13054">
        <ele>71.7</ele>
        <time>2025-04-20T17:32:30.545Z</time>
      </trkpt>
      <trkpt lat="47.99932" lon="-4.13028">
        <ele>70.6</ele>
        <time>2025-04-20T17:32:32.407Z</time>
      </trkpt>
      <trkpt lat="47.99934" lon="-4.12991">
        <ele>71</ele>
        <time>2025-04-20T17:32:37.231Z</time>
      </trkpt>
      <trkpt lat="47.99931" lon="-4.12948">
        <ele>69.6</ele>
        <time>2025-04-20T17:32:40.458Z</time>
      </trkpt>
      <trkpt lat="47.99923" lon="-4.12912">
        <ele>67.8</ele>
        <time>2025-04-20T17:32:42.974Z</time>
      </trkpt>
      <trkpt lat="47.99916" lon="-4.12891">
        <ele>68.2</ele>
        <time>2025-04-20T17:32:46.350Z</time>
      </trkpt>
      <trkpt lat="47.99906" lon="-4.12867">
        <ele>68</ele>
        <time>2025-04-20T17:32:49.187Z</time>
      </trkpt>
      <trkpt lat="47.99893" lon="-4.12842">
        <ele>66.7</ele>
        <time>2025-04-20T17:32:51.358Z</time>
      </trkpt>
      <trkpt lat="47.99856" lon="-4.128">
        <ele>64.1</ele>
        <time>2025-04-20T17:32:56.285Z</time>
      </trkpt>
      <trkpt lat="47.99849" lon="-4.1279">
        <ele>63.7</ele>
        <time>2025-04-20T17:32:57.420Z</time>
      </trkpt>
      <trkpt lat="47.99839" lon="-4.12765">
        <ele>62</ele>
        <time>2025-04-20T17:32:59.353Z</time>
      </trkpt>
      <trkpt lat="47.99837" lon="-4.12744">
        <ele>60.4</ele>
        <time>2025-04-20T17:33:00.760Z</time>
      </trkpt>
      <trkpt lat="47.9984" lon="-4.12725">
        <ele>58</ele>
        <time>2025-04-20T17:33:02.056Z</time>
      </trkpt>
      <trkpt lat="47.99848" lon="-4.12701">
        <ele>58.4</ele>
        <time>2025-04-20T17:33:05.780Z</time>
      </trkpt>
      <trkpt lat="47.9988" lon="-4.12644">
        <ele>57.7</ele>
        <time>2025-04-20T17:33:13.021Z</time>
      </trkpt>
      <trkpt lat="47.99894" lon="-4.12613">
        <ele>57.7</ele>
        <time>2025-04-20T17:33:17.157Z</time>
      </trkpt>
      <trkpt lat="47.99898" lon="-4.12592">
        <ele>58.1</ele>
        <time>2025-04-20T17:33:20.366Z</time>
      </trkpt>
      <trkpt lat="47.999" lon="-4.12571">
        <ele>57.8</ele>
        <time>2025-04-20T17:33:22.310Z</time>
      </trkpt>
      <trkpt lat="47.99898" lon="-4.12551">
        <ele>57.1</ele>
        <time>2025-04-20T17:33:23.786Z</time>
      </trkpt>
      <trkpt lat="47.9987" lon="-4.12383">
        <ele>53.7</ele>
        <time>2025-04-20T17:33:38.643Z</time>
        <extensions>
          <visugpx:TrkExtension xmlns:visugpx="https://www.visugpx.com/editgpx/">
            <visugpx:node>20</visugpx:node>
            </visugpx:TrkExtension>
        </extensions>
      </trkpt>
      <trkpt lat="47.9986" lon="-4.12319">
        <ele>50.7</ele>
        <time>2025-04-20T17:33:43.004Z</time>
      </trkpt>
      <trkpt lat="47.99851" lon="-4.12292">
        <ele>50.4</ele>
        <time>2025-04-20T17:33:45.919Z</time>
      </trkpt>
      <trkpt lat="47.99841" lon="-4.12271">
        <ele>49.8</ele>
        <time>2025-04-20T17:33:48.041Z</time>
      </trkpt>
      <trkpt lat="47.99829" lon="-4.12253">
        <ele>49.9</ele>
        <time>2025-04-20T17:33:51.015Z</time>
      </trkpt>
      <trkpt lat="47.99816" lon="-4.12232">
        <ele>48</ele>
        <time>2025-04-20T17:33:52.914Z</time>
      </trkpt>
      <trkpt lat="47.99786" lon="-4.12194">
        <ele>47.1</ele>
        <time>2025-04-20T17:33:58.224Z</time>
      </trkpt>
      <trkpt lat="47.99769" lon="-4.12164">
        <ele>46.7</ele>
        <time>2025-04-20T17:34:02.013Z</time>
      </trkpt>
      <trkpt lat="47.99763" lon="-4.12151">
        <ele>46.2</ele>
        <time>2025-04-20T17:34:03.200Z</time>
      </trkpt>
      <trkpt lat="47.99758" lon="-4.1213">
        <ele>45.2</ele>
        <time>2025-04-20T17:34:04.679Z</time>
      </trkpt>
      <trkpt lat="47.99752" lon="-4.12101">
        <ele>45.3</ele>
        <time>2025-04-20T17:34:08.200Z</time>
      </trkpt>
      <trkpt lat="47.99748" lon="-4.12057">
        <ele>44.3</ele>
        <time>2025-04-20T17:34:11.886Z</time>
      </trkpt>
      <trkpt lat="47.99745" lon="-4.11962">
        <ele>42.4</ele>
        <time>2025-04-20T17:34:20.015Z</time>
      </trkpt>
      <trkpt lat="47.99744" lon="-4.11945">
        <ele>42.2</ele>
        <time>2025-04-20T17:34:21.628Z</time>
      </trkpt>
      <trkpt lat="47.99744" lon="-4.11935">
        <ele>41.9</ele>
        <time>2025-04-20T17:34:22.393Z</time>
      </trkpt>
      <trkpt lat="47.99744" lon="-4.1192">
        <ele>41.3</ele>
        <time>2025-04-20T17:34:23.432Z</time>
      </trkpt>
      <trkpt lat="47.99751" lon="-4.11847">
        <ele>39.9</ele>
        <time>2025-04-20T17:34:29.809Z</time>
      </trkpt>
      <trkpt lat="47.99754" lon="-4.11818">
        <ele>39.1</ele>
        <time>2025-04-20T17:34:32.121Z</time>
      </trkpt>
      <trkpt lat="47.99759" lon="-4.11796">
        <ele>38.4</ele>
        <time>2025-04-20T17:34:33.896Z</time>
      </trkpt>
      <trkpt lat="47.99771" lon="-4.11765">
        <ele>37.5</ele>
        <time>2025-04-20T17:34:36.783Z</time>
      </trkpt>
      <trkpt lat="47.99784" lon="-4.11737">
        <ele>36.4</ele>
        <time>2025-04-20T17:34:39.330Z</time>
      </trkpt>
      <trkpt lat="47.99806" lon="-4.11701">
        <ele>35.7</ele>
        <time>2025-04-20T17:34:43.787Z</time>
      </trkpt>
      <trkpt lat="47.99865" lon="-4.11632">
        <ele>33.6</ele>
        <time>2025-04-20T17:34:53.495Z</time>
      </trkpt>
      <trkpt lat="47.99881" lon="-4.11608">
        <ele>32.6</ele>
        <time>2025-04-20T17:34:56.100Z</time>
      </trkpt>
      <trkpt lat="47.99894" lon="-4.11576">
        <ele>31.7</ele>
        <time>2025-04-20T17:34:59.155Z</time>
      </trkpt>
      <trkpt lat="47.99901" lon="-4.11553">
        <ele>31.6</ele>
        <time>2025-04-20T17:35:01.799Z</time>
      </trkpt>
      <trkpt lat="47.99912" lon="-4.11524">
        <ele>31.2</ele>
        <time>2025-04-20T17:35:04.938Z</time>
      </trkpt>
      <trkpt lat="47.99939" lon="-4.11454">
        <ele>29.4</ele>
        <time>2025-04-20T17:35:11.663Z</time>
      </trkpt>
      <trkpt lat="47.9995" lon="-4.11432">
        <ele>28.4</ele>
        <time>2025-04-20T17:35:13.632Z</time>
      </trkpt>
      <trkpt lat="47.99952" lon="-4.11427">
        <ele>28.2</ele>
        <time>2025-04-20T17:35:14.058Z</time>
      </trkpt>
      <trkpt lat="47.99975" lon="-4.11369">
        <ele>26.7</ele>
        <time>2025-04-20T17:35:19.672Z</time>
      </trkpt>
      <trkpt lat="47.99982" lon="-4.1135">
        <ele>26.1</ele>
        <time>2025-04-20T17:35:21.373Z</time>
      </trkpt>
      <trkpt lat="48.00003" lon="-4.11294">
        <ele>24.2</ele>
        <time>2025-04-20T17:35:26.305Z</time>
      </trkpt>
      <trkpt lat="48.00012" lon="-4.11256">
        <ele>21.8</ele>
        <time>2025-04-20T17:35:28.980Z</time>
      </trkpt>
      <trkpt lat="48.00013" lon="-4.11239">
        <ele>21.6</ele>
        <time>2025-04-20T17:35:30.592Z</time>
      </trkpt>
      <trkpt lat="48.00047" lon="-4.11264">
        <ele>18.3</ele>
        <time>2025-04-20T17:35:34.349Z</time>
      </trkpt>
      <trkpt lat="48.00056" lon="-4.11273">
        <ele>17.1</ele>
        <time>2025-04-20T17:35:35.423Z</time>
      </trkpt>
      <trkpt lat="48.00084" lon="-4.11294">
        <ele>15</ele>
        <time>2025-04-20T17:35:38.530Z</time>
      </trkpt>
      <trkpt lat="48.00095" lon="-4.11303">
        <ele>14.2</ele>
        <time>2025-04-20T17:35:39.795Z</time>
      </trkpt>
      <trkpt lat="48.00103" lon="-4.1131">
        <ele>13.7</ele>
        <time>2025-04-20T17:35:40.792Z</time>
      </trkpt>
      <trkpt lat="48.00136" lon="-4.11337">
        <ele>11.4</ele>
        <time>2025-04-20T17:35:44.652Z</time>
      </trkpt>
      <trkpt lat="48.00156" lon="-4.11352">
        <ele>10</ele>
        <time>2025-04-20T17:35:46.928Z</time>
      </trkpt>
      <trkpt lat="48.0019" lon="-4.1138">
        <ele>6.6</ele>
        <time>2025-04-20T17:35:50.777Z</time>
      </trkpt>
      <trkpt lat="48.00197" lon="-4.11383">
        <ele>6.2</ele>
        <time>2025-04-20T17:35:51.555Z</time>
      </trkpt>
      <trkpt lat="48.00203" lon="-4.11387">
        <ele>6</ele>
        <time>2025-04-20T17:35:52.390Z</time>
      </trkpt>
      <trkpt lat="48.00213" lon="-4.11394">
        <ele>6</ele>
        <time>2025-04-20T17:35:54.215Z</time>
      </trkpt>
      <trkpt lat="48.00222" lon="-4.11393">
        <ele>6</ele>
        <time>2025-04-20T17:35:55.706Z</time>
      </trkpt>
      <trkpt lat="48.00224" lon="-4.11391">
        <ele>5.9</ele>
        <time>2025-04-20T17:35:55.988Z</time>
      </trkpt>
      <trkpt lat="48.00232" lon="-4.11389">
        <ele>5.6</ele>
        <time>2025-04-20T17:35:56.969Z</time>
      </trkpt>
      <trkpt lat="48.00235" lon="-4.1139">
        <ele>5.5</ele>
        <time>2025-04-20T17:35:57.354Z</time>
      </trkpt>
      <trkpt lat="48.00237" lon="-4.11393">
        <ele>5.5</ele>
        <time>2025-04-20T17:35:57.822Z</time>
      </trkpt>
      <trkpt lat="48.0024" lon="-4.11404">
        <ele>5.4</ele>
        <time>2025-04-20T17:35:58.993Z</time>
      </trkpt>
      <trkpt lat="48.00246" lon="-4.11417">
        <ele>5.1</ele>
        <time>2025-04-20T17:36:00.359Z</time>
      </trkpt>
      <trkpt lat="48.00254" lon="-4.11426">
        <ele>5</ele>
        <time>2025-04-20T17:36:01.868Z</time>
      </trkpt>
      <trkpt lat="48.0027" lon="-4.11438">
        <ele>5</ele>
        <time>2025-04-20T17:36:04.827Z</time>
      </trkpt>
      <trkpt lat="48.00294" lon="-4.1146">
        <ele>4.7</ele>
        <time>2025-04-20T17:36:09.046Z</time>
      </trkpt>
      <trkpt lat="48.003" lon="-4.1147">
        <ele>4.9</ele>
        <time>2025-04-20T17:36:10.910Z</time>
      </trkpt>
      <trkpt lat="48.00304" lon="-4.11477">
        <ele>5</ele>
        <time>2025-04-20T17:36:12.108Z</time>
      </trkpt>
      <trkpt lat="48.00343" lon="-4.1157">
        <ele>5.8</ele>
        <time>2025-04-20T17:36:25.619Z</time>
      </trkpt>
      <trkpt lat="48.00343" lon="-4.11572">
        <ele>5.9</ele>
        <time>2025-04-20T17:36:26.155Z</time>
      </trkpt>
      <trkpt lat="48.00348" lon="-4.1158">
        <ele>5.9</ele>
        <time>2025-04-20T17:36:27.366Z</time>
      </trkpt>
      <trkpt lat="48.00355" lon="-4.11594">
        <ele>6</ele>
        <time>2025-04-20T17:36:29.467Z</time>
      </trkpt>
      <trkpt lat="48.00359" lon="-4.11607">
        <ele>6</ele>
        <time>2025-04-20T17:36:31.049Z</time>
      </trkpt>
      <trkpt lat="48.00361" lon="-4.11614">
        <ele>6</ele>
        <time>2025-04-20T17:36:31.891Z</time>
      </trkpt>
      <trkpt lat="48.00362" lon="-4.11617">
        <ele>6</ele>
        <time>2025-04-20T17:36:32.261Z</time>
      </trkpt>
      <trkpt lat="48.00384" lon="-4.11673">
        <ele>7</ele>
        <time>2025-04-20T17:36:41.351Z</time>
      </trkpt>
      <trkpt lat="48.00393" lon="-4.1169">
        <ele>7</ele>
        <time>2025-04-20T17:36:43.748Z</time>
      </trkpt>
      <trkpt lat="48.00418" lon="-4.11721">
        <ele>8</ele>
        <time>2025-04-20T17:36:51.165Z</time>
      </trkpt>
      <trkpt lat="48.00422" lon="-4.11723">
        <ele>8</ele>
        <time>2025-04-20T17:36:51.862Z</time>
      </trkpt>
      <trkpt lat="48.00423" lon="-4.11727">
        <ele>8.2</ele>
        <time>2025-04-20T17:36:52.935Z</time>
      </trkpt>
      <trkpt lat="48.00423" lon="-4.11729">
        <ele>8.2</ele>
        <time>2025-04-20T17:36:53.156Z</time>
      </trkpt>
      <trkpt lat="48.00459" lon="-4.11758">
        <ele>9.1</ele>
        <time>2025-04-20T17:37:01.618Z</time>
      </trkpt>
      <trkpt lat="48.00469" lon="-4.11731">
        <ele>8</ele>
        <time>2025-04-20T17:37:03.846Z</time>
      </trkpt>
      <trkpt lat="48.00478" lon="-4.11721">
        <ele>7.7</ele>
        <time>2025-04-20T17:37:05.314Z</time>
      </trkpt>
      <trkpt lat="48.00484" lon="-4.11719">
        <ele>7.5</ele>
        <time>2025-04-20T17:37:06.083Z</time>
      </trkpt>
      <trkpt lat="48.00511" lon="-4.11712">
        <ele>6.6</ele>
        <time>2025-04-20T17:37:09.504Z</time>
      </trkpt>
      <trkpt lat="48.00537" lon="-4.117">
        <ele>6.5</ele>
        <time>2025-04-20T17:37:13.848Z</time>
      </trkpt>
      <trkpt lat="48.00596" lon="-4.11658">
        <ele>6.3</ele>
        <time>2025-04-20T17:37:24.342Z</time>
      </trkpt>
      <trkpt lat="48.00613" lon="-4.11648">
        <ele>6.3</ele>
        <time>2025-04-20T17:37:27.361Z</time>
      </trkpt>
      <trkpt lat="48.00619" lon="-4.11646">
        <ele>6.2</ele>
        <time>2025-04-20T17:37:28.238Z</time>
      </trkpt>
      <trkpt lat="48.00624" lon="-4.11637">
        <ele>6</ele>
        <time>2025-04-20T17:37:29.273Z</time>
      </trkpt>
      <trkpt lat="48.0063" lon="-4.11634">
        <ele>6</ele>
        <time>2025-04-20T17:37:30.318Z</time>
      </trkpt>
      <trkpt lat="48.00636" lon="-4.11632">
        <ele>6</ele>
        <time>2025-04-20T17:37:31.334Z</time>
      </trkpt>
      <trkpt lat="48.00643" lon="-4.11635">
        <ele>6.1</ele>
        <time>2025-04-20T17:37:32.714Z</time>
      </trkpt>
      <trkpt lat="48.00649" lon="-4.11631">
        <ele>6.3</ele>
        <time>2025-04-20T17:37:34.208Z</time>
      </trkpt>
      <trkpt lat="48.00657" lon="-4.11625">
        <ele>6.3</ele>
        <time>2025-04-20T17:37:35.687Z</time>
      </trkpt>
      <trkpt lat="48.00683" lon="-4.11606">
        <ele>6.5</ele>
        <time>2025-04-20T17:37:40.802Z</time>
      </trkpt>
      <trkpt lat="48.00698" lon="-4.11599">
        <ele>6.6</ele>
        <time>2025-04-20T17:37:43.565Z</time>
      </trkpt>
      <trkpt lat="48.00707" lon="-4.11596">
        <ele>6.5</ele>
        <time>2025-04-20T17:37:44.944Z</time>
        <extensions>
          <visugpx:TrkExtension xmlns:visugpx="https://www.visugpx.com/editgpx/">
            <visugpx:node>21</visugpx:node>
            </visugpx:TrkExtension>
        </extensions>
      </trkpt>
    </trkseg>
  </trk>
</gpx>